<?xml version="1.0" encoding="UTF-8" standalone="no" ?>
<gpx xmlns="http://www.topografix.com/GPX/1/1" xmlns:xsi="http://www.w3.org/2001/XMLSchema-instance" xsi:schemaLocation="http://www.topografix.com/GPX/1/1 http://www.topografix.com/GPX/1/1/gpx.xsd" version="1.1" creator="VisuGPX - https://www.visugpx.com">
  <metadata>
    <name>la scia depuis pagnolet</name>
  </metadata>
  <trk>
    <name><![CDATA[la scia depuis pagnolet_1]]></name>
    <trkseg>
      <trkpt lat="45.36888" lon="5.83791">
        <ele>1094.8</ele>
        <time>2022-04-03T12:34:56Z</time>
      </trkpt>
      <trkpt lat="45.36892" lon="5.838">
        <ele>1094.8</ele>
        <time>2022-04-03T12:35:11Z</time>
      </trkpt>
      <trkpt lat="45.36889" lon="5.83797">
        <ele>1094.8</ele>
        <time>2022-04-03T12:35:28Z</time>
      </trkpt>
      <trkpt lat="45.3689" lon="5.83799">
        <ele>1094.8</ele>
        <time>2022-04-03T12:35:46Z</time>
      </trkpt>
      <trkpt lat="45.3689" lon="5.83801">
        <ele>1094.8</ele>
        <time>2022-04-03T12:36:04Z</time>
      </trkpt>
      <trkpt lat="45.36891" lon="5.838">
        <ele>1094.8</ele>
        <time>2022-04-03T12:36:22Z</time>
      </trkpt>
      <trkpt lat="45.36893" lon="5.83797">
        <ele>1094.8</ele>
        <time>2022-04-03T12:36:41Z</time>
      </trkpt>
      <trkpt lat="45.36893" lon="5.83797">
        <ele>1094.8</ele>
        <time>2022-04-03T12:36:44Z</time>
      </trkpt>
      <trkpt lat="45.36895" lon="5.83795">
        <ele>1094.8</ele>
        <time>2022-04-03T12:36:59Z</time>
      </trkpt>
      <trkpt lat="45.36896" lon="5.83796">
        <ele>1094.8</ele>
        <time>2022-04-03T12:37:18Z</time>
      </trkpt>
      <trkpt lat="45.36895" lon="5.838">
        <ele>1094.8</ele>
        <time>2022-04-03T12:37:30Z</time>
      </trkpt>
      <trkpt lat="45.36894" lon="5.83802">
        <ele>1094.8</ele>
        <time>2022-04-03T12:37:41Z</time>
      </trkpt>
      <trkpt lat="45.36892" lon="5.83803">
        <ele>1094.8</ele>
        <time>2022-04-03T12:37:43Z</time>
      </trkpt>
      <trkpt lat="45.36889" lon="5.83803">
        <ele>1094.8</ele>
        <time>2022-04-03T12:37:50Z</time>
      </trkpt>
      <trkpt lat="45.36891" lon="5.83802">
        <ele>1094.8</ele>
        <time>2022-04-03T12:38:02Z</time>
      </trkpt>
      <trkpt lat="45.36889" lon="5.8381">
        <ele>1094.8</ele>
        <time>2022-04-03T12:38:17Z</time>
      </trkpt>
      <trkpt lat="45.36889" lon="5.83811">
        <ele>1095.4</ele>
        <time>2022-04-03T12:38:27Z</time>
      </trkpt>
      <trkpt lat="45.36886" lon="5.83813">
        <ele>1096</ele>
        <time>2022-04-03T12:38:31Z</time>
      </trkpt>
      <trkpt lat="45.36885" lon="5.83814">
        <ele>1096</ele>
        <time>2022-04-03T12:38:32Z</time>
      </trkpt>
      <trkpt lat="45.36884" lon="5.83817">
        <ele>1096.4</ele>
        <time>2022-04-03T12:38:34Z</time>
      </trkpt>
      <trkpt lat="45.36882" lon="5.8382">
        <ele>1097</ele>
        <time>2022-04-03T12:38:37Z</time>
      </trkpt>
      <trkpt lat="45.36881" lon="5.83826">
        <ele>1098.4</ele>
        <time>2022-04-03T12:38:42Z</time>
      </trkpt>
      <trkpt lat="45.36881" lon="5.83828">
        <ele>1098.6</ele>
        <time>2022-04-03T12:38:43Z</time>
      </trkpt>
      <trkpt lat="45.36879" lon="5.83831">
        <ele>1099.4</ele>
        <time>2022-04-03T12:38:46Z</time>
      </trkpt>
      <trkpt lat="45.36877" lon="5.83837">
        <ele>1100.8</ele>
        <time>2022-04-03T12:38:51Z</time>
      </trkpt>
      <trkpt lat="45.36874" lon="5.8384">
        <ele>1101.6</ele>
        <time>2022-04-03T12:38:54Z</time>
      </trkpt>
      <trkpt lat="45.36872" lon="5.83841">
        <ele>1101.8</ele>
        <time>2022-04-03T12:38:56Z</time>
      </trkpt>
      <trkpt lat="45.36869" lon="5.83841">
        <ele>1103</ele>
        <time>2022-04-03T12:39:00Z</time>
      </trkpt>
      <trkpt lat="45.36869" lon="5.83841">
        <ele>1103.2</ele>
        <time>2022-04-03T12:39:03Z</time>
      </trkpt>
      <trkpt lat="45.36867" lon="5.83839">
        <ele>1102.8</ele>
        <time>2022-04-03T12:39:17Z</time>
      </trkpt>
      <trkpt lat="45.36867" lon="5.83836">
        <ele>1102.8</ele>
        <time>2022-04-03T12:39:30Z</time>
      </trkpt>
      <trkpt lat="45.36863" lon="5.83834">
        <ele>1103.6</ele>
        <time>2022-04-03T12:39:43Z</time>
      </trkpt>
      <trkpt lat="45.36862" lon="5.83833">
        <ele>1103.4</ele>
        <time>2022-04-03T12:39:44Z</time>
      </trkpt>
      <trkpt lat="45.36855" lon="5.83827">
        <ele>1103.2</ele>
        <time>2022-04-03T12:39:49Z</time>
      </trkpt>
      <trkpt lat="45.36848" lon="5.83816">
        <ele>1103.6</ele>
        <time>2022-04-03T12:39:56Z</time>
      </trkpt>
      <trkpt lat="45.36847" lon="5.83813">
        <ele>1104.2</ele>
        <time>2022-04-03T12:39:59Z</time>
      </trkpt>
      <trkpt lat="45.36845" lon="5.8381">
        <ele>1105</ele>
        <time>2022-04-03T12:40:02Z</time>
      </trkpt>
      <trkpt lat="45.36844" lon="5.83809">
        <ele>1105.2</ele>
        <time>2022-04-03T12:40:03Z</time>
      </trkpt>
      <trkpt lat="45.36839" lon="5.83805">
        <ele>1106.4</ele>
        <time>2022-04-03T12:40:09Z</time>
      </trkpt>
      <trkpt lat="45.36834" lon="5.83804">
        <ele>1107.4</ele>
        <time>2022-04-03T12:40:15Z</time>
      </trkpt>
      <trkpt lat="45.36833" lon="5.83806">
        <ele>1107.6</ele>
        <time>2022-04-03T12:40:16Z</time>
      </trkpt>
      <trkpt lat="45.36828" lon="5.83808">
        <ele>1108.6</ele>
        <time>2022-04-03T12:40:20Z</time>
      </trkpt>
      <trkpt lat="45.36824" lon="5.83809">
        <ele>1109.6</ele>
        <time>2022-04-03T12:40:24Z</time>
      </trkpt>
      <trkpt lat="45.3682" lon="5.83817">
        <ele>1111</ele>
        <time>2022-04-03T12:40:30Z</time>
      </trkpt>
      <trkpt lat="45.36819" lon="5.8382">
        <ele>1111.6</ele>
        <time>2022-04-03T12:40:32Z</time>
      </trkpt>
      <trkpt lat="45.36818" lon="5.83824">
        <ele>1112</ele>
        <time>2022-04-03T12:40:34Z</time>
      </trkpt>
      <trkpt lat="45.36818" lon="5.83833">
        <ele>1112.8</ele>
        <time>2022-04-03T12:40:39Z</time>
      </trkpt>
      <trkpt lat="45.36818" lon="5.83835">
        <ele>1113.4</ele>
        <time>2022-04-03T12:40:40Z</time>
      </trkpt>
      <trkpt lat="45.36817" lon="5.83843">
        <ele>1114.2</ele>
        <time>2022-04-03T12:40:45Z</time>
      </trkpt>
      <trkpt lat="45.36816" lon="5.83849">
        <ele>1114.8</ele>
        <time>2022-04-03T12:40:48Z</time>
      </trkpt>
      <trkpt lat="45.36814" lon="5.83852">
        <ele>1115.4</ele>
        <time>2022-04-03T12:40:51Z</time>
      </trkpt>
      <trkpt lat="45.36811" lon="5.83855">
        <ele>1115.8</ele>
        <time>2022-04-03T12:40:55Z</time>
      </trkpt>
      <trkpt lat="45.3681" lon="5.83856">
        <ele>1116.4</ele>
        <time>2022-04-03T12:40:57Z</time>
      </trkpt>
      <trkpt lat="45.36808" lon="5.83858">
        <ele>1117</ele>
        <time>2022-04-03T12:40:59Z</time>
      </trkpt>
      <trkpt lat="45.36803" lon="5.8386">
        <ele>1118.2</ele>
        <time>2022-04-03T12:41:04Z</time>
      </trkpt>
      <trkpt lat="45.36801" lon="5.83861">
        <ele>1118.8</ele>
        <time>2022-04-03T12:41:06Z</time>
      </trkpt>
      <trkpt lat="45.36799" lon="5.83862">
        <ele>1119.2</ele>
        <time>2022-04-03T12:41:08Z</time>
      </trkpt>
      <trkpt lat="45.36796" lon="5.83862">
        <ele>1120.4</ele>
        <time>2022-04-03T12:41:12Z</time>
      </trkpt>
      <trkpt lat="45.36795" lon="5.83863">
        <ele>1120.4</ele>
        <time>2022-04-03T12:41:13Z</time>
      </trkpt>
      <trkpt lat="45.36792" lon="5.83864">
        <ele>1121.6</ele>
        <time>2022-04-03T12:41:17Z</time>
      </trkpt>
      <trkpt lat="45.36791" lon="5.83864">
        <ele>1122</ele>
        <time>2022-04-03T12:41:18Z</time>
      </trkpt>
      <trkpt lat="45.36788" lon="5.83865">
        <ele>1122.6</ele>
        <time>2022-04-03T12:41:21Z</time>
      </trkpt>
      <trkpt lat="45.36783" lon="5.83867">
        <ele>1124</ele>
        <time>2022-04-03T12:41:27Z</time>
      </trkpt>
      <trkpt lat="45.3678" lon="5.83868">
        <ele>1125.2</ele>
        <time>2022-04-03T12:41:31Z</time>
      </trkpt>
      <trkpt lat="45.36777" lon="5.83869">
        <ele>1126.4</ele>
        <time>2022-04-03T12:41:35Z</time>
      </trkpt>
      <trkpt lat="45.36774" lon="5.83871">
        <ele>1127.6</ele>
        <time>2022-04-03T12:41:40Z</time>
      </trkpt>
      <trkpt lat="45.36771" lon="5.83872">
        <ele>1128.8</ele>
        <time>2022-04-03T12:41:43Z</time>
      </trkpt>
      <trkpt lat="45.3677" lon="5.83873">
        <ele>1129.4</ele>
        <time>2022-04-03T12:41:45Z</time>
      </trkpt>
      <trkpt lat="45.36768" lon="5.83874">
        <ele>1130.2</ele>
        <time>2022-04-03T12:41:49Z</time>
      </trkpt>
      <trkpt lat="45.36764" lon="5.83875">
        <ele>1131.4</ele>
        <time>2022-04-03T12:41:53Z</time>
      </trkpt>
      <trkpt lat="45.3676" lon="5.83877">
        <ele>1132.4</ele>
        <time>2022-04-03T12:41:59Z</time>
      </trkpt>
      <trkpt lat="45.36759" lon="5.83877">
        <ele>1133.2</ele>
        <time>2022-04-03T12:42:01Z</time>
      </trkpt>
      <trkpt lat="45.36757" lon="5.83877">
        <ele>1133.4</ele>
        <time>2022-04-03T12:42:03Z</time>
      </trkpt>
      <trkpt lat="45.36753" lon="5.8388">
        <ele>1134.6</ele>
        <time>2022-04-03T12:42:09Z</time>
      </trkpt>
      <trkpt lat="45.36749" lon="5.83881">
        <ele>1135.8</ele>
        <time>2022-04-03T12:42:13Z</time>
      </trkpt>
      <trkpt lat="45.36746" lon="5.83883">
        <ele>1136.8</ele>
        <time>2022-04-03T12:42:17Z</time>
      </trkpt>
      <trkpt lat="45.36744" lon="5.83885">
        <ele>1138</ele>
        <time>2022-04-03T12:42:21Z</time>
      </trkpt>
      <trkpt lat="45.36744" lon="5.83885">
        <ele>1138.2</ele>
        <time>2022-04-03T12:42:25Z</time>
      </trkpt>
      <trkpt lat="45.36743" lon="5.83886">
        <ele>1138.2</ele>
        <time>2022-04-03T12:42:40Z</time>
      </trkpt>
      <trkpt lat="45.36739" lon="5.83888">
        <ele>1139.2</ele>
        <time>2022-04-03T12:42:45Z</time>
      </trkpt>
      <trkpt lat="45.36738" lon="5.83889">
        <ele>1139.2</ele>
        <time>2022-04-03T12:42:46Z</time>
      </trkpt>
      <trkpt lat="45.36734" lon="5.83891">
        <ele>1139.8</ele>
        <time>2022-04-03T12:42:50Z</time>
      </trkpt>
      <trkpt lat="45.36731" lon="5.83893">
        <ele>1140.2</ele>
        <time>2022-04-03T12:42:52Z</time>
      </trkpt>
      <trkpt lat="45.36726" lon="5.83897">
        <ele>1141.4</ele>
        <time>2022-04-03T12:42:57Z</time>
      </trkpt>
      <trkpt lat="45.3672" lon="5.83899">
        <ele>1142.6</ele>
        <time>2022-04-03T12:43:03Z</time>
      </trkpt>
      <trkpt lat="45.36716" lon="5.839">
        <ele>1143.6</ele>
        <time>2022-04-03T12:43:06Z</time>
      </trkpt>
      <trkpt lat="45.36713" lon="5.83901">
        <ele>1143.8</ele>
        <time>2022-04-03T12:43:08Z</time>
      </trkpt>
      <trkpt lat="45.36705" lon="5.83899">
        <ele>1144.8</ele>
        <time>2022-04-03T12:43:15Z</time>
      </trkpt>
      <trkpt lat="45.36704" lon="5.83899">
        <ele>1145.2</ele>
        <time>2022-04-03T12:43:16Z</time>
      </trkpt>
      <trkpt lat="45.367" lon="5.83899">
        <ele>1146</ele>
        <time>2022-04-03T12:43:20Z</time>
      </trkpt>
      <trkpt lat="45.36694" lon="5.83899">
        <ele>1147.2</ele>
        <time>2022-04-03T12:43:26Z</time>
      </trkpt>
      <trkpt lat="45.36692" lon="5.83899">
        <ele>1148.2</ele>
        <time>2022-04-03T12:43:29Z</time>
      </trkpt>
      <trkpt lat="45.36687" lon="5.83898">
        <ele>1149.4</ele>
        <time>2022-04-03T12:43:34Z</time>
      </trkpt>
      <trkpt lat="45.36683" lon="5.83899">
        <ele>1150.6</ele>
        <time>2022-04-03T12:43:39Z</time>
      </trkpt>
      <trkpt lat="45.3668" lon="5.83899">
        <ele>1151.8</ele>
        <time>2022-04-03T12:43:43Z</time>
      </trkpt>
      <trkpt lat="45.36679" lon="5.83899">
        <ele>1152</ele>
        <time>2022-04-03T12:43:44Z</time>
      </trkpt>
      <trkpt lat="45.36676" lon="5.839">
        <ele>1152.8</ele>
        <time>2022-04-03T12:43:48Z</time>
      </trkpt>
      <trkpt lat="45.36671" lon="5.83901">
        <ele>1154</ele>
        <time>2022-04-03T12:43:53Z</time>
      </trkpt>
      <trkpt lat="45.36666" lon="5.83902">
        <ele>1155.2</ele>
        <time>2022-04-03T12:43:58Z</time>
      </trkpt>
      <trkpt lat="45.36664" lon="5.83903">
        <ele>1156.2</ele>
        <time>2022-04-03T12:44:01Z</time>
      </trkpt>
      <trkpt lat="45.36663" lon="5.83903">
        <ele>1156.6</ele>
        <time>2022-04-03T12:44:02Z</time>
      </trkpt>
      <trkpt lat="45.36661" lon="5.83903">
        <ele>1157.2</ele>
        <time>2022-04-03T12:44:04Z</time>
      </trkpt>
      <trkpt lat="45.36658" lon="5.83902">
        <ele>1158.4</ele>
        <time>2022-04-03T12:44:10Z</time>
      </trkpt>
      <trkpt lat="45.36656" lon="5.83901">
        <ele>1159.4</ele>
        <time>2022-04-03T12:44:13Z</time>
      </trkpt>
      <trkpt lat="45.36656" lon="5.839">
        <ele>1159.8</ele>
        <time>2022-04-03T12:44:14Z</time>
      </trkpt>
      <trkpt lat="45.36654" lon="5.83898">
        <ele>1161</ele>
        <time>2022-04-03T12:44:18Z</time>
      </trkpt>
      <trkpt lat="45.3665" lon="5.83897">
        <ele>1162</ele>
        <time>2022-04-03T12:44:22Z</time>
      </trkpt>
      <trkpt lat="45.36646" lon="5.83898">
        <ele>1163</ele>
        <time>2022-04-03T12:44:26Z</time>
      </trkpt>
      <trkpt lat="45.36644" lon="5.83898">
        <ele>1163.2</ele>
        <time>2022-04-03T12:44:28Z</time>
      </trkpt>
      <trkpt lat="45.36641" lon="5.83898">
        <ele>1164.2</ele>
        <time>2022-04-03T12:44:32Z</time>
      </trkpt>
      <trkpt lat="45.36638" lon="5.83896">
        <ele>1165.4</ele>
        <time>2022-04-03T12:44:37Z</time>
      </trkpt>
      <trkpt lat="45.36633" lon="5.83896">
        <ele>1166.4</ele>
        <time>2022-04-03T12:44:41Z</time>
      </trkpt>
      <trkpt lat="45.36632" lon="5.83896">
        <ele>1166.8</ele>
        <time>2022-04-03T12:44:42Z</time>
      </trkpt>
      <trkpt lat="45.36627" lon="5.83896">
        <ele>1167.8</ele>
        <time>2022-04-03T12:44:47Z</time>
      </trkpt>
      <trkpt lat="45.36623" lon="5.83895">
        <ele>1169</ele>
        <time>2022-04-03T12:44:51Z</time>
      </trkpt>
      <trkpt lat="45.36618" lon="5.83894">
        <ele>1170</ele>
        <time>2022-04-03T12:44:56Z</time>
      </trkpt>
      <trkpt lat="45.36617" lon="5.83894">
        <ele>1170.2</ele>
        <time>2022-04-03T12:44:57Z</time>
      </trkpt>
      <trkpt lat="45.36611" lon="5.83894">
        <ele>1171.4</ele>
        <time>2022-04-03T12:45:02Z</time>
      </trkpt>
      <trkpt lat="45.36607" lon="5.83894">
        <ele>1172.4</ele>
        <time>2022-04-03T12:45:07Z</time>
      </trkpt>
      <trkpt lat="45.36603" lon="5.83894">
        <ele>1172.8</ele>
        <time>2022-04-03T12:45:10Z</time>
      </trkpt>
      <trkpt lat="45.36597" lon="5.83896">
        <ele>1173.6</ele>
        <time>2022-04-03T12:45:16Z</time>
      </trkpt>
      <trkpt lat="45.36592" lon="5.83896">
        <ele>1174.6</ele>
        <time>2022-04-03T12:45:21Z</time>
      </trkpt>
      <trkpt lat="45.36589" lon="5.83895">
        <ele>1175.2</ele>
        <time>2022-04-03T12:45:24Z</time>
      </trkpt>
      <trkpt lat="45.3658" lon="5.83893">
        <ele>1176</ele>
        <time>2022-04-03T12:45:31Z</time>
      </trkpt>
      <trkpt lat="45.36576" lon="5.83893">
        <ele>1176.6</ele>
        <time>2022-04-03T12:45:36Z</time>
      </trkpt>
      <trkpt lat="45.36574" lon="5.83892">
        <ele>1177</ele>
        <time>2022-04-03T12:45:38Z</time>
      </trkpt>
      <trkpt lat="45.36566" lon="5.8389">
        <ele>1178.2</ele>
        <time>2022-04-03T12:45:47Z</time>
      </trkpt>
      <trkpt lat="45.36562" lon="5.8389">
        <ele>1179</ele>
        <time>2022-04-03T12:45:50Z</time>
      </trkpt>
      <trkpt lat="45.36558" lon="5.83888">
        <ele>1179.4</ele>
        <time>2022-04-03T12:45:54Z</time>
      </trkpt>
      <trkpt lat="45.3655" lon="5.83886">
        <ele>1180.4</ele>
        <time>2022-04-03T12:46:00Z</time>
      </trkpt>
      <trkpt lat="45.36546" lon="5.83884">
        <ele>1180.8</ele>
        <time>2022-04-03T12:46:03Z</time>
      </trkpt>
      <trkpt lat="45.36536" lon="5.83883">
        <ele>1181.6</ele>
        <time>2022-04-03T12:46:10Z</time>
      </trkpt>
      <trkpt lat="45.36531" lon="5.83881">
        <ele>1182.4</ele>
        <time>2022-04-03T12:46:16Z</time>
      </trkpt>
      <trkpt lat="45.36528" lon="5.83881">
        <ele>1182.6</ele>
        <time>2022-04-03T12:46:19Z</time>
      </trkpt>
      <trkpt lat="45.36519" lon="5.8388">
        <ele>1183.6</ele>
        <time>2022-04-03T12:46:26Z</time>
      </trkpt>
      <trkpt lat="45.36517" lon="5.8388">
        <ele>1183.8</ele>
        <time>2022-04-03T12:46:28Z</time>
      </trkpt>
      <trkpt lat="45.36512" lon="5.8388">
        <ele>1184.8</ele>
        <time>2022-04-03T12:46:32Z</time>
      </trkpt>
      <trkpt lat="45.36506" lon="5.83877">
        <ele>1185.8</ele>
        <time>2022-04-03T12:46:38Z</time>
      </trkpt>
      <trkpt lat="45.36504" lon="5.83876">
        <ele>1185.8</ele>
        <time>2022-04-03T12:46:39Z</time>
      </trkpt>
      <trkpt lat="45.36498" lon="5.83875">
        <ele>1187</ele>
        <time>2022-04-03T12:46:45Z</time>
      </trkpt>
      <trkpt lat="45.36492" lon="5.83874">
        <ele>1188</ele>
        <time>2022-04-03T12:46:51Z</time>
      </trkpt>
      <trkpt lat="45.36487" lon="5.83874">
        <ele>1189</ele>
        <time>2022-04-03T12:46:56Z</time>
      </trkpt>
      <trkpt lat="45.36483" lon="5.83873">
        <ele>1190.2</ele>
        <time>2022-04-03T12:47:01Z</time>
      </trkpt>
      <trkpt lat="45.36481" lon="5.83873">
        <ele>1190.8</ele>
        <time>2022-04-03T12:47:03Z</time>
      </trkpt>
      <trkpt lat="45.3648" lon="5.83873">
        <ele>1191</ele>
        <time>2022-04-03T12:47:05Z</time>
      </trkpt>
      <trkpt lat="45.36479" lon="5.83873">
        <ele>1191.4</ele>
        <time>2022-04-03T12:47:06Z</time>
      </trkpt>
      <trkpt lat="45.36475" lon="5.83873">
        <ele>1192.6</ele>
        <time>2022-04-03T12:47:11Z</time>
      </trkpt>
      <trkpt lat="45.36472" lon="5.83874">
        <ele>1193.6</ele>
        <time>2022-04-03T12:47:15Z</time>
      </trkpt>
      <trkpt lat="45.36468" lon="5.83875">
        <ele>1194.8</ele>
        <time>2022-04-03T12:47:19Z</time>
      </trkpt>
      <trkpt lat="45.36465" lon="5.83875">
        <ele>1195.8</ele>
        <time>2022-04-03T12:47:23Z</time>
      </trkpt>
      <trkpt lat="45.36461" lon="5.83874">
        <ele>1197</ele>
        <time>2022-04-03T12:47:28Z</time>
      </trkpt>
      <trkpt lat="45.36458" lon="5.83874">
        <ele>1198</ele>
        <time>2022-04-03T12:47:32Z</time>
      </trkpt>
      <trkpt lat="45.36455" lon="5.83874">
        <ele>1199</ele>
        <time>2022-04-03T12:47:36Z</time>
      </trkpt>
      <trkpt lat="45.36451" lon="5.83875">
        <ele>1200.4</ele>
        <time>2022-04-03T12:47:41Z</time>
      </trkpt>
      <trkpt lat="45.3645" lon="5.83876">
        <ele>1201</ele>
        <time>2022-04-03T12:47:44Z</time>
      </trkpt>
      <trkpt lat="45.36448" lon="5.83876">
        <ele>1201.4</ele>
        <time>2022-04-03T12:47:46Z</time>
      </trkpt>
      <trkpt lat="45.36444" lon="5.83876">
        <ele>1202.8</ele>
        <time>2022-04-03T12:47:51Z</time>
      </trkpt>
      <trkpt lat="45.36442" lon="5.83877">
        <ele>1203.8</ele>
        <time>2022-04-03T12:47:55Z</time>
      </trkpt>
      <trkpt lat="45.3644" lon="5.83878">
        <ele>1204.6</ele>
        <time>2022-04-03T12:47:58Z</time>
      </trkpt>
      <trkpt lat="45.36438" lon="5.83879">
        <ele>1205</ele>
        <time>2022-04-03T12:48:00Z</time>
      </trkpt>
      <trkpt lat="45.36433" lon="5.8388">
        <ele>1206.2</ele>
        <time>2022-04-03T12:48:06Z</time>
      </trkpt>
      <trkpt lat="45.36429" lon="5.83882">
        <ele>1207.4</ele>
        <time>2022-04-03T12:48:11Z</time>
      </trkpt>
      <trkpt lat="45.36429" lon="5.83882">
        <ele>1207.6</ele>
        <time>2022-04-03T12:48:12Z</time>
      </trkpt>
      <trkpt lat="45.36424" lon="5.83885">
        <ele>1208.6</ele>
        <time>2022-04-03T12:48:17Z</time>
      </trkpt>
      <trkpt lat="45.3642" lon="5.83887">
        <ele>1209.6</ele>
        <time>2022-04-03T12:48:23Z</time>
      </trkpt>
      <trkpt lat="45.36418" lon="5.83887">
        <ele>1210</ele>
        <time>2022-04-03T12:48:25Z</time>
      </trkpt>
      <trkpt lat="45.36417" lon="5.83888">
        <ele>1210.8</ele>
        <time>2022-04-03T12:48:27Z</time>
      </trkpt>
      <trkpt lat="45.36412" lon="5.83891">
        <ele>1212</ele>
        <time>2022-04-03T12:48:33Z</time>
      </trkpt>
      <trkpt lat="45.36408" lon="5.83893">
        <ele>1213</ele>
        <time>2022-04-03T12:48:38Z</time>
      </trkpt>
      <trkpt lat="45.36402" lon="5.83896">
        <ele>1214</ele>
        <time>2022-04-03T12:48:45Z</time>
      </trkpt>
      <trkpt lat="45.36399" lon="5.83899">
        <ele>1215.2</ele>
        <time>2022-04-03T12:48:49Z</time>
      </trkpt>
      <trkpt lat="45.36398" lon="5.83899">
        <ele>1215.4</ele>
        <time>2022-04-03T12:48:50Z</time>
      </trkpt>
      <trkpt lat="45.36396" lon="5.83901">
        <ele>1216.4</ele>
        <time>2022-04-03T12:48:54Z</time>
      </trkpt>
      <trkpt lat="45.36392" lon="5.83904">
        <ele>1217.6</ele>
        <time>2022-04-03T12:48:59Z</time>
      </trkpt>
      <trkpt lat="45.3639" lon="5.83906">
        <ele>1218.4</ele>
        <time>2022-04-03T12:49:02Z</time>
      </trkpt>
      <trkpt lat="45.3639" lon="5.83907">
        <ele>1218.8</ele>
        <time>2022-04-03T12:49:03Z</time>
      </trkpt>
      <trkpt lat="45.36387" lon="5.83909">
        <ele>1219.8</ele>
        <time>2022-04-03T12:49:07Z</time>
      </trkpt>
      <trkpt lat="45.36385" lon="5.83913">
        <ele>1221</ele>
        <time>2022-04-03T12:49:11Z</time>
      </trkpt>
      <trkpt lat="45.36383" lon="5.83917">
        <ele>1222</ele>
        <time>2022-04-03T12:49:15Z</time>
      </trkpt>
      <trkpt lat="45.36383" lon="5.83918">
        <ele>1222.4</ele>
        <time>2022-04-03T12:49:16Z</time>
      </trkpt>
      <trkpt lat="45.36381" lon="5.83922">
        <ele>1223.6</ele>
        <time>2022-04-03T12:49:21Z</time>
      </trkpt>
      <trkpt lat="45.36381" lon="5.83924">
        <ele>1224.6</ele>
        <time>2022-04-03T12:49:25Z</time>
      </trkpt>
      <trkpt lat="45.36378" lon="5.83928">
        <ele>1225.6</ele>
        <time>2022-04-03T12:49:29Z</time>
      </trkpt>
      <trkpt lat="45.36376" lon="5.8393">
        <ele>1225.8</ele>
        <time>2022-04-03T12:49:30Z</time>
      </trkpt>
      <trkpt lat="45.36375" lon="5.8393">
        <ele>1226</ele>
        <time>2022-04-03T12:49:31Z</time>
      </trkpt>
      <trkpt lat="45.36374" lon="5.83932">
        <ele>1226.8</ele>
        <time>2022-04-03T12:49:34Z</time>
      </trkpt>
      <trkpt lat="45.36369" lon="5.83931">
        <ele>1227.6</ele>
        <time>2022-04-03T12:49:37Z</time>
      </trkpt>
      <trkpt lat="45.36368" lon="5.83931">
        <ele>1228</ele>
        <time>2022-04-03T12:49:38Z</time>
      </trkpt>
      <trkpt lat="45.36365" lon="5.8393">
        <ele>1228.4</ele>
        <time>2022-04-03T12:49:41Z</time>
      </trkpt>
      <trkpt lat="45.36364" lon="5.83929">
        <ele>1229.2</ele>
        <time>2022-04-03T12:49:44Z</time>
      </trkpt>
      <trkpt lat="45.36361" lon="5.83928">
        <ele>1230.4</ele>
        <time>2022-04-03T12:49:48Z</time>
      </trkpt>
      <trkpt lat="45.36358" lon="5.83925">
        <ele>1231.4</ele>
        <time>2022-04-03T12:49:53Z</time>
      </trkpt>
      <trkpt lat="45.36356" lon="5.83922">
        <ele>1232.6</ele>
        <time>2022-04-03T12:49:57Z</time>
      </trkpt>
      <trkpt lat="45.36354" lon="5.83919">
        <ele>1233.6</ele>
        <time>2022-04-03T12:50:01Z</time>
      </trkpt>
      <trkpt lat="45.36349" lon="5.83914">
        <ele>1234.6</ele>
        <time>2022-04-03T12:50:09Z</time>
      </trkpt>
      <trkpt lat="45.36348" lon="5.83913">
        <ele>1234.8</ele>
        <time>2022-04-03T12:50:11Z</time>
      </trkpt>
      <trkpt lat="45.36344" lon="5.83911">
        <ele>1235.6</ele>
        <time>2022-04-03T12:50:15Z</time>
      </trkpt>
      <trkpt lat="45.36341" lon="5.83908">
        <ele>1236.8</ele>
        <time>2022-04-03T12:50:20Z</time>
      </trkpt>
      <trkpt lat="45.36334" lon="5.83907">
        <ele>1238.2</ele>
        <time>2022-04-03T12:50:26Z</time>
      </trkpt>
      <trkpt lat="45.36333" lon="5.83904">
        <ele>1239.2</ele>
        <time>2022-04-03T12:50:30Z</time>
      </trkpt>
      <trkpt lat="45.3633" lon="5.83899">
        <ele>1240.2</ele>
        <time>2022-04-03T12:50:37Z</time>
      </trkpt>
      <trkpt lat="45.3633" lon="5.83898">
        <ele>1240.8</ele>
        <time>2022-04-03T12:50:38Z</time>
      </trkpt>
      <trkpt lat="45.36329" lon="5.83898">
        <ele>1241.2</ele>
        <time>2022-04-03T12:50:40Z</time>
      </trkpt>
      <trkpt lat="45.36327" lon="5.83894">
        <ele>1242.4</ele>
        <time>2022-04-03T12:50:44Z</time>
      </trkpt>
      <trkpt lat="45.36325" lon="5.83891">
        <ele>1243.6</ele>
        <time>2022-04-03T12:50:50Z</time>
      </trkpt>
      <trkpt lat="45.36322" lon="5.8389">
        <ele>1244.6</ele>
        <time>2022-04-03T12:50:55Z</time>
      </trkpt>
      <trkpt lat="45.36319" lon="5.83888">
        <ele>1246</ele>
        <time>2022-04-03T12:51:00Z</time>
      </trkpt>
      <trkpt lat="45.36315" lon="5.83887">
        <ele>1247</ele>
        <time>2022-04-03T12:51:04Z</time>
      </trkpt>
      <trkpt lat="45.36312" lon="5.83885">
        <ele>1248</ele>
        <time>2022-04-03T12:51:10Z</time>
      </trkpt>
      <trkpt lat="45.3631" lon="5.83884">
        <ele>1249.2</ele>
        <time>2022-04-03T12:51:14Z</time>
      </trkpt>
      <trkpt lat="45.36308" lon="5.83883">
        <ele>1249.4</ele>
        <time>2022-04-03T12:51:16Z</time>
      </trkpt>
      <trkpt lat="45.36306" lon="5.8388">
        <ele>1250.4</ele>
        <time>2022-04-03T12:51:20Z</time>
      </trkpt>
      <trkpt lat="45.36303" lon="5.83879">
        <ele>1251.6</ele>
        <time>2022-04-03T12:51:24Z</time>
      </trkpt>
      <trkpt lat="45.36301" lon="5.83878">
        <ele>1251.8</ele>
        <time>2022-04-03T12:51:27Z</time>
      </trkpt>
      <trkpt lat="45.36298" lon="5.83876">
        <ele>1252.6</ele>
        <time>2022-04-03T12:51:32Z</time>
      </trkpt>
      <trkpt lat="45.36295" lon="5.83874">
        <ele>1253.8</ele>
        <time>2022-04-03T12:51:36Z</time>
      </trkpt>
      <trkpt lat="45.36292" lon="5.83871">
        <ele>1254.6</ele>
        <time>2022-04-03T12:51:40Z</time>
      </trkpt>
      <trkpt lat="45.36291" lon="5.83871">
        <ele>1255</ele>
        <time>2022-04-03T12:51:42Z</time>
      </trkpt>
      <trkpt lat="45.36288" lon="5.83866">
        <ele>1255.8</ele>
        <time>2022-04-03T12:51:48Z</time>
      </trkpt>
      <trkpt lat="45.36287" lon="5.83865">
        <ele>1256</ele>
        <time>2022-04-03T12:51:49Z</time>
      </trkpt>
      <trkpt lat="45.36287" lon="5.83863">
        <ele>1256.4</ele>
        <time>2022-04-03T12:51:50Z</time>
      </trkpt>
      <trkpt lat="45.36286" lon="5.83858">
        <ele>1257</ele>
        <time>2022-04-03T12:51:54Z</time>
      </trkpt>
      <trkpt lat="45.36285" lon="5.83855">
        <ele>1257.2</ele>
        <time>2022-04-03T12:51:56Z</time>
      </trkpt>
      <trkpt lat="45.36283" lon="5.83848">
        <ele>1258.2</ele>
        <time>2022-04-03T12:52:01Z</time>
      </trkpt>
      <trkpt lat="45.36283" lon="5.83838">
        <ele>1259</ele>
        <time>2022-04-03T12:52:07Z</time>
      </trkpt>
      <trkpt lat="45.36284" lon="5.83834">
        <ele>1259.2</ele>
        <time>2022-04-03T12:52:10Z</time>
      </trkpt>
      <trkpt lat="45.36284" lon="5.83834">
        <ele>1259.6</ele>
        <time>2022-04-03T12:52:16Z</time>
      </trkpt>
      <trkpt lat="45.36284" lon="5.83831">
        <ele>1259.8</ele>
        <time>2022-04-03T12:52:28Z</time>
      </trkpt>
      <trkpt lat="45.36285" lon="5.83828">
        <ele>1260</ele>
        <time>2022-04-03T12:52:31Z</time>
      </trkpt>
      <trkpt lat="45.36285" lon="5.83825">
        <ele>1260.6</ele>
        <time>2022-04-03T12:52:33Z</time>
      </trkpt>
      <trkpt lat="45.36286" lon="5.83819">
        <ele>1261.8</ele>
        <time>2022-04-03T12:52:38Z</time>
      </trkpt>
      <trkpt lat="45.36286" lon="5.83817">
        <ele>1262.6</ele>
        <time>2022-04-03T12:52:40Z</time>
      </trkpt>
      <trkpt lat="45.36286" lon="5.83814">
        <ele>1263</ele>
        <time>2022-04-03T12:52:42Z</time>
      </trkpt>
      <trkpt lat="45.36287" lon="5.83807">
        <ele>1264</ele>
        <time>2022-04-03T12:52:49Z</time>
      </trkpt>
      <trkpt lat="45.36287" lon="5.83803">
        <ele>1264.6</ele>
        <time>2022-04-03T12:52:52Z</time>
      </trkpt>
      <trkpt lat="45.36287" lon="5.83801">
        <ele>1265</ele>
        <time>2022-04-03T12:52:54Z</time>
      </trkpt>
      <trkpt lat="45.36288" lon="5.83797">
        <ele>1266.2</ele>
        <time>2022-04-03T12:52:58Z</time>
      </trkpt>
      <trkpt lat="45.36286" lon="5.83792">
        <ele>1267.4</ele>
        <time>2022-04-03T12:53:04Z</time>
      </trkpt>
      <trkpt lat="45.36286" lon="5.83786">
        <ele>1268.6</ele>
        <time>2022-04-03T12:53:10Z</time>
      </trkpt>
      <trkpt lat="45.36283" lon="5.83785">
        <ele>1269</ele>
        <time>2022-04-03T12:53:15Z</time>
      </trkpt>
      <trkpt lat="45.3628" lon="5.83786">
        <ele>1269.8</ele>
        <time>2022-04-03T12:53:19Z</time>
      </trkpt>
      <trkpt lat="45.36279" lon="5.83788">
        <ele>1270</ele>
        <time>2022-04-03T12:53:21Z</time>
      </trkpt>
      <trkpt lat="45.36275" lon="5.83793">
        <ele>1270.8</ele>
        <time>2022-04-03T12:53:26Z</time>
      </trkpt>
      <trkpt lat="45.36272" lon="5.83797">
        <ele>1272</ele>
        <time>2022-04-03T12:53:31Z</time>
      </trkpt>
      <trkpt lat="45.36269" lon="5.83802">
        <ele>1273</ele>
        <time>2022-04-03T12:53:36Z</time>
      </trkpt>
      <trkpt lat="45.36267" lon="5.83805">
        <ele>1273.4</ele>
        <time>2022-04-03T12:53:39Z</time>
      </trkpt>
      <trkpt lat="45.36264" lon="5.83809">
        <ele>1274.2</ele>
        <time>2022-04-03T12:53:44Z</time>
      </trkpt>
      <trkpt lat="45.36261" lon="5.83812">
        <ele>1275.4</ele>
        <time>2022-04-03T12:53:48Z</time>
      </trkpt>
      <trkpt lat="45.36259" lon="5.83816">
        <ele>1276.2</ele>
        <time>2022-04-03T12:53:52Z</time>
      </trkpt>
      <trkpt lat="45.36259" lon="5.83817">
        <ele>1276.4</ele>
        <time>2022-04-03T12:53:53Z</time>
      </trkpt>
      <trkpt lat="45.36256" lon="5.83822">
        <ele>1277.6</ele>
        <time>2022-04-03T12:53:58Z</time>
      </trkpt>
      <trkpt lat="45.36252" lon="5.83827">
        <ele>1278.8</ele>
        <time>2022-04-03T12:54:05Z</time>
      </trkpt>
      <trkpt lat="45.36248" lon="5.83833">
        <ele>1280</ele>
        <time>2022-04-03T12:54:12Z</time>
      </trkpt>
      <trkpt lat="45.36246" lon="5.83835">
        <ele>1280.2</ele>
        <time>2022-04-03T12:54:14Z</time>
      </trkpt>
      <trkpt lat="45.36245" lon="5.83838">
        <ele>1281</ele>
        <time>2022-04-03T12:54:17Z</time>
      </trkpt>
      <trkpt lat="45.36241" lon="5.83843">
        <ele>1282</ele>
        <time>2022-04-03T12:54:23Z</time>
      </trkpt>
      <trkpt lat="45.36238" lon="5.83846">
        <ele>1283.2</ele>
        <time>2022-04-03T12:54:27Z</time>
      </trkpt>
      <trkpt lat="45.36235" lon="5.83846">
        <ele>1284</ele>
        <time>2022-04-03T12:54:30Z</time>
      </trkpt>
      <trkpt lat="45.36234" lon="5.83847">
        <ele>1284.4</ele>
        <time>2022-04-03T12:54:32Z</time>
      </trkpt>
      <trkpt lat="45.36233" lon="5.83851">
        <ele>1285.8</ele>
        <time>2022-04-03T12:54:37Z</time>
      </trkpt>
      <trkpt lat="45.36232" lon="5.83852">
        <ele>1286.2</ele>
        <time>2022-04-03T12:54:39Z</time>
      </trkpt>
      <trkpt lat="45.36231" lon="5.83854">
        <ele>1286.6</ele>
        <time>2022-04-03T12:54:41Z</time>
      </trkpt>
      <trkpt lat="45.36228" lon="5.83858">
        <ele>1287</ele>
        <time>2022-04-03T12:54:45Z</time>
      </trkpt>
      <trkpt lat="45.36224" lon="5.83862">
        <ele>1288</ele>
        <time>2022-04-03T12:54:51Z</time>
      </trkpt>
      <trkpt lat="45.36223" lon="5.83863">
        <ele>1288.2</ele>
        <time>2022-04-03T12:54:52Z</time>
      </trkpt>
      <trkpt lat="45.36215" lon="5.83866">
        <ele>1289.2</ele>
        <time>2022-04-03T12:55:01Z</time>
      </trkpt>
      <trkpt lat="45.36213" lon="5.83867">
        <ele>1289.6</ele>
        <time>2022-04-03T12:55:03Z</time>
      </trkpt>
      <trkpt lat="45.36212" lon="5.8387">
        <ele>1289.6</ele>
        <time>2022-04-03T12:55:12Z</time>
      </trkpt>
      <trkpt lat="45.36213" lon="5.83869">
        <ele>1290.2</ele>
        <time>2022-04-03T12:55:22Z</time>
      </trkpt>
      <trkpt lat="45.36213" lon="5.83869">
        <ele>1290.2</ele>
        <time>2022-04-03T12:55:25Z</time>
      </trkpt>
      <trkpt lat="45.36214" lon="5.83871">
        <ele>1289.8</ele>
        <time>2022-04-03T12:55:40Z</time>
      </trkpt>
      <trkpt lat="45.36215" lon="5.8387">
        <ele>1289</ele>
        <time>2022-04-03T12:55:48Z</time>
      </trkpt>
      <trkpt lat="45.36213" lon="5.83871">
        <ele>1289.6</ele>
        <time>2022-04-03T12:55:54Z</time>
      </trkpt>
      <trkpt lat="45.36208" lon="5.83876">
        <ele>1289.8</ele>
        <time>2022-04-03T12:56:05Z</time>
      </trkpt>
      <trkpt lat="45.36208" lon="5.83877">
        <ele>1290</ele>
        <time>2022-04-03T12:56:06Z</time>
      </trkpt>
      <trkpt lat="45.36207" lon="5.83878">
        <ele>1290.2</ele>
        <time>2022-04-03T12:56:07Z</time>
      </trkpt>
      <trkpt lat="45.36203" lon="5.83882">
        <ele>1291.4</ele>
        <time>2022-04-03T12:56:13Z</time>
      </trkpt>
      <trkpt lat="45.36201" lon="5.83885">
        <ele>1292.4</ele>
        <time>2022-04-03T12:56:18Z</time>
      </trkpt>
      <trkpt lat="45.362" lon="5.83886">
        <ele>1292.6</ele>
        <time>2022-04-03T12:56:19Z</time>
      </trkpt>
      <trkpt lat="45.36199" lon="5.83887">
        <ele>1293.4</ele>
        <time>2022-04-03T12:56:21Z</time>
      </trkpt>
      <trkpt lat="45.36196" lon="5.83893">
        <ele>1294.6</ele>
        <time>2022-04-03T12:56:27Z</time>
      </trkpt>
      <trkpt lat="45.36194" lon="5.83898">
        <ele>1295.6</ele>
        <time>2022-04-03T12:56:31Z</time>
      </trkpt>
      <trkpt lat="45.36192" lon="5.83906">
        <ele>1297</ele>
        <time>2022-04-03T12:56:39Z</time>
      </trkpt>
      <trkpt lat="45.36192" lon="5.8391">
        <ele>1298</ele>
        <time>2022-04-03T12:56:43Z</time>
      </trkpt>
      <trkpt lat="45.36192" lon="5.8391">
        <ele>1298.2</ele>
        <time>2022-04-03T12:56:44Z</time>
      </trkpt>
      <trkpt lat="45.36192" lon="5.83916">
        <ele>1299.4</ele>
        <time>2022-04-03T12:56:49Z</time>
      </trkpt>
      <trkpt lat="45.36194" lon="5.83925">
        <ele>1300.8</ele>
        <time>2022-04-03T12:56:57Z</time>
      </trkpt>
      <trkpt lat="45.36195" lon="5.83931">
        <ele>1302</ele>
        <time>2022-04-03T12:57:02Z</time>
      </trkpt>
      <trkpt lat="45.36194" lon="5.83935">
        <ele>1303</ele>
        <time>2022-04-03T12:57:06Z</time>
      </trkpt>
      <trkpt lat="45.36195" lon="5.8394">
        <ele>1303.8</ele>
        <time>2022-04-03T12:57:10Z</time>
      </trkpt>
      <trkpt lat="45.36195" lon="5.83941">
        <ele>1304.2</ele>
        <time>2022-04-03T12:57:11Z</time>
      </trkpt>
      <trkpt lat="45.36195" lon="5.83946">
        <ele>1305.2</ele>
        <time>2022-04-03T12:57:16Z</time>
      </trkpt>
      <trkpt lat="45.36195" lon="5.83952">
        <ele>1306.4</ele>
        <time>2022-04-03T12:57:21Z</time>
      </trkpt>
      <trkpt lat="45.36195" lon="5.83953">
        <ele>1306.6</ele>
        <time>2022-04-03T12:57:22Z</time>
      </trkpt>
      <trkpt lat="45.36195" lon="5.83958">
        <ele>1307.4</ele>
        <time>2022-04-03T12:57:26Z</time>
      </trkpt>
      <trkpt lat="45.36195" lon="5.83963">
        <ele>1308.4</ele>
        <time>2022-04-03T12:57:30Z</time>
      </trkpt>
      <trkpt lat="45.36195" lon="5.83968">
        <ele>1309.6</ele>
        <time>2022-04-03T12:57:35Z</time>
      </trkpt>
      <trkpt lat="45.36194" lon="5.83973">
        <ele>1310.8</ele>
        <time>2022-04-03T12:57:40Z</time>
      </trkpt>
      <trkpt lat="45.36193" lon="5.83977">
        <ele>1311.8</ele>
        <time>2022-04-03T12:57:44Z</time>
      </trkpt>
      <trkpt lat="45.36192" lon="5.8398">
        <ele>1312.8</ele>
        <time>2022-04-03T12:57:47Z</time>
      </trkpt>
      <trkpt lat="45.3619" lon="5.83988">
        <ele>1314.2</ele>
        <time>2022-04-03T12:57:54Z</time>
      </trkpt>
      <trkpt lat="45.36189" lon="5.8399">
        <ele>1314.6</ele>
        <time>2022-04-03T12:57:57Z</time>
      </trkpt>
      <trkpt lat="45.36189" lon="5.83991">
        <ele>1315.2</ele>
        <time>2022-04-03T12:57:59Z</time>
      </trkpt>
      <trkpt lat="45.36187" lon="5.83995">
        <ele>1316.4</ele>
        <time>2022-04-03T12:58:03Z</time>
      </trkpt>
      <trkpt lat="45.36184" lon="5.84">
        <ele>1317.6</ele>
        <time>2022-04-03T12:58:08Z</time>
      </trkpt>
      <trkpt lat="45.36183" lon="5.84001">
        <ele>1318</ele>
        <time>2022-04-03T12:58:10Z</time>
      </trkpt>
      <trkpt lat="45.36181" lon="5.84001">
        <ele>1318.8</ele>
        <time>2022-04-03T12:58:12Z</time>
      </trkpt>
      <trkpt lat="45.36176" lon="5.84001">
        <ele>1319.8</ele>
        <time>2022-04-03T12:58:17Z</time>
      </trkpt>
      <trkpt lat="45.36174" lon="5.84">
        <ele>1320</ele>
        <time>2022-04-03T12:58:18Z</time>
      </trkpt>
      <trkpt lat="45.36173" lon="5.83999">
        <ele>1320.4</ele>
        <time>2022-04-03T12:58:20Z</time>
      </trkpt>
      <trkpt lat="45.3617" lon="5.83998">
        <ele>1320.8</ele>
        <time>2022-04-03T12:58:23Z</time>
      </trkpt>
      <trkpt lat="45.36165" lon="5.83998">
        <ele>1322</ele>
        <time>2022-04-03T12:58:29Z</time>
      </trkpt>
      <trkpt lat="45.36162" lon="5.83997">
        <ele>1322.2</ele>
        <time>2022-04-03T12:58:32Z</time>
      </trkpt>
      <trkpt lat="45.3616" lon="5.83998">
        <ele>1323.2</ele>
        <time>2022-04-03T12:58:35Z</time>
      </trkpt>
      <trkpt lat="45.36156" lon="5.83997">
        <ele>1324.2</ele>
        <time>2022-04-03T12:58:39Z</time>
      </trkpt>
      <trkpt lat="45.36152" lon="5.83997">
        <ele>1325.2</ele>
        <time>2022-04-03T12:58:45Z</time>
      </trkpt>
      <trkpt lat="45.3615" lon="5.83996">
        <ele>1325.4</ele>
        <time>2022-04-03T12:58:47Z</time>
      </trkpt>
      <trkpt lat="45.36147" lon="5.83999">
        <ele>1326.2</ele>
        <time>2022-04-03T12:58:52Z</time>
      </trkpt>
      <trkpt lat="45.36144" lon="5.84001">
        <ele>1327.6</ele>
        <time>2022-04-03T12:58:57Z</time>
      </trkpt>
      <trkpt lat="45.3614" lon="5.84005">
        <ele>1328.8</ele>
        <time>2022-04-03T12:59:04Z</time>
      </trkpt>
      <trkpt lat="45.36138" lon="5.84009">
        <ele>1330</ele>
        <time>2022-04-03T12:59:09Z</time>
      </trkpt>
      <trkpt lat="45.36137" lon="5.84011">
        <ele>1331.2</ele>
        <time>2022-04-03T12:59:12Z</time>
      </trkpt>
      <trkpt lat="45.36135" lon="5.84014">
        <ele>1332.4</ele>
        <time>2022-04-03T12:59:18Z</time>
      </trkpt>
      <trkpt lat="45.36134" lon="5.84017">
        <ele>1333.8</ele>
        <time>2022-04-03T12:59:22Z</time>
      </trkpt>
      <trkpt lat="45.36132" lon="5.84019">
        <ele>1334.6</ele>
        <time>2022-04-03T12:59:25Z</time>
      </trkpt>
      <trkpt lat="45.36131" lon="5.84021">
        <ele>1334.8</ele>
        <time>2022-04-03T12:59:28Z</time>
      </trkpt>
      <trkpt lat="45.36127" lon="5.84023">
        <ele>1335.8</ele>
        <time>2022-04-03T12:59:33Z</time>
      </trkpt>
      <trkpt lat="45.36126" lon="5.84025">
        <ele>1336.8</ele>
        <time>2022-04-03T12:59:37Z</time>
      </trkpt>
      <trkpt lat="45.36125" lon="5.84026">
        <ele>1337</ele>
        <time>2022-04-03T12:59:38Z</time>
      </trkpt>
      <trkpt lat="45.36122" lon="5.84029">
        <ele>1338.4</ele>
        <time>2022-04-03T12:59:44Z</time>
      </trkpt>
      <trkpt lat="45.36121" lon="5.84033">
        <ele>1339.6</ele>
        <time>2022-04-03T12:59:49Z</time>
      </trkpt>
      <trkpt lat="45.36119" lon="5.84035">
        <ele>1340.8</ele>
        <time>2022-04-03T12:59:54Z</time>
      </trkpt>
      <trkpt lat="45.36116" lon="5.84039">
        <ele>1341.8</ele>
        <time>2022-04-03T13:00:00Z</time>
      </trkpt>
      <trkpt lat="45.36115" lon="5.84039">
        <ele>1342.2</ele>
        <time>2022-04-03T13:00:02Z</time>
      </trkpt>
      <trkpt lat="45.36113" lon="5.84042">
        <ele>1343</ele>
        <time>2022-04-03T13:00:06Z</time>
      </trkpt>
      <trkpt lat="45.3611" lon="5.84045">
        <ele>1344</ele>
        <time>2022-04-03T13:00:11Z</time>
      </trkpt>
      <trkpt lat="45.36108" lon="5.84049">
        <ele>1344.4</ele>
        <time>2022-04-03T13:00:15Z</time>
      </trkpt>
      <trkpt lat="45.36108" lon="5.8405">
        <ele>1344.8</ele>
        <time>2022-04-03T13:00:16Z</time>
      </trkpt>
      <trkpt lat="45.36107" lon="5.84052">
        <ele>1345.2</ele>
        <time>2022-04-03T13:00:18Z</time>
      </trkpt>
      <trkpt lat="45.36103" lon="5.84059">
        <ele>1346.4</ele>
        <time>2022-04-03T13:00:26Z</time>
      </trkpt>
      <trkpt lat="45.36102" lon="5.84061">
        <ele>1346.6</ele>
        <time>2022-04-03T13:00:27Z</time>
      </trkpt>
      <trkpt lat="45.36098" lon="5.84075">
        <ele>1347.2</ele>
        <time>2022-04-03T13:00:37Z</time>
      </trkpt>
      <trkpt lat="45.36096" lon="5.8408">
        <ele>1347.4</ele>
        <time>2022-04-03T13:00:41Z</time>
      </trkpt>
      <trkpt lat="45.36095" lon="5.84082">
        <ele>1347.6</ele>
        <time>2022-04-03T13:00:42Z</time>
      </trkpt>
      <trkpt lat="45.36094" lon="5.8409">
        <ele>1348.6</ele>
        <time>2022-04-03T13:00:48Z</time>
      </trkpt>
      <trkpt lat="45.36093" lon="5.84095">
        <ele>1349.6</ele>
        <time>2022-04-03T13:00:53Z</time>
      </trkpt>
      <trkpt lat="45.36093" lon="5.84097">
        <ele>1349.8</ele>
        <time>2022-04-03T13:00:54Z</time>
      </trkpt>
      <trkpt lat="45.36094" lon="5.84104">
        <ele>1351</ele>
        <time>2022-04-03T13:01:00Z</time>
      </trkpt>
      <trkpt lat="45.36093" lon="5.84111">
        <ele>1352</ele>
        <time>2022-04-03T13:01:06Z</time>
      </trkpt>
      <trkpt lat="45.36093" lon="5.84111">
        <ele>1352.2</ele>
        <time>2022-04-03T13:01:07Z</time>
      </trkpt>
      <trkpt lat="45.36093" lon="5.84116">
        <ele>1353.4</ele>
        <time>2022-04-03T13:01:12Z</time>
      </trkpt>
      <trkpt lat="45.36092" lon="5.84121">
        <ele>1354.6</ele>
        <time>2022-04-03T13:01:18Z</time>
      </trkpt>
      <trkpt lat="45.36092" lon="5.84122">
        <ele>1355</ele>
        <time>2022-04-03T13:01:19Z</time>
      </trkpt>
      <trkpt lat="45.36092" lon="5.84124">
        <ele>1355.8</ele>
        <time>2022-04-03T13:01:22Z</time>
      </trkpt>
      <trkpt lat="45.36091" lon="5.84128">
        <ele>1357</ele>
        <time>2022-04-03T13:01:26Z</time>
      </trkpt>
      <trkpt lat="45.36091" lon="5.8413">
        <ele>1357.6</ele>
        <time>2022-04-03T13:01:29Z</time>
      </trkpt>
      <trkpt lat="45.36089" lon="5.84132">
        <ele>1358.2</ele>
        <time>2022-04-03T13:01:31Z</time>
      </trkpt>
      <trkpt lat="45.36086" lon="5.84134">
        <ele>1359</ele>
        <time>2022-04-03T13:01:35Z</time>
      </trkpt>
      <trkpt lat="45.36085" lon="5.84135">
        <ele>1359.4</ele>
        <time>2022-04-03T13:01:36Z</time>
      </trkpt>
      <trkpt lat="45.36084" lon="5.84137">
        <ele>1359.8</ele>
        <time>2022-04-03T13:01:38Z</time>
      </trkpt>
      <trkpt lat="45.36083" lon="5.84138">
        <ele>1360.4</ele>
        <time>2022-04-03T13:01:40Z</time>
      </trkpt>
      <trkpt lat="45.3608" lon="5.84141">
        <ele>1361.4</ele>
        <time>2022-04-03T13:01:45Z</time>
      </trkpt>
      <trkpt lat="45.36077" lon="5.84144">
        <ele>1362.4</ele>
        <time>2022-04-03T13:01:50Z</time>
      </trkpt>
      <trkpt lat="45.36074" lon="5.84145">
        <ele>1363.6</ele>
        <time>2022-04-03T13:01:55Z</time>
      </trkpt>
      <trkpt lat="45.36068" lon="5.84147">
        <ele>1364.8</ele>
        <time>2022-04-03T13:02:02Z</time>
      </trkpt>
      <trkpt lat="45.36068" lon="5.84148">
        <ele>1365.6</ele>
        <time>2022-04-03T13:02:04Z</time>
      </trkpt>
      <trkpt lat="45.36067" lon="5.84148">
        <ele>1366</ele>
        <time>2022-04-03T13:02:05Z</time>
      </trkpt>
      <trkpt lat="45.36063" lon="5.84148">
        <ele>1367.4</ele>
        <time>2022-04-03T13:02:11Z</time>
      </trkpt>
      <trkpt lat="45.36058" lon="5.84151">
        <ele>1368.6</ele>
        <time>2022-04-03T13:02:18Z</time>
      </trkpt>
      <trkpt lat="45.36054" lon="5.84153">
        <ele>1370</ele>
        <time>2022-04-03T13:02:25Z</time>
      </trkpt>
      <trkpt lat="45.36054" lon="5.84156">
        <ele>1371</ele>
        <time>2022-04-03T13:02:30Z</time>
      </trkpt>
      <trkpt lat="45.36052" lon="5.8416">
        <ele>1372.4</ele>
        <time>2022-04-03T13:02:35Z</time>
      </trkpt>
      <trkpt lat="45.36052" lon="5.84164">
        <ele>1373.6</ele>
        <time>2022-04-03T13:02:40Z</time>
      </trkpt>
      <trkpt lat="45.36052" lon="5.84166">
        <ele>1374.2</ele>
        <time>2022-04-03T13:02:42Z</time>
      </trkpt>
      <trkpt lat="45.36051" lon="5.84167">
        <ele>1374.6</ele>
        <time>2022-04-03T13:02:44Z</time>
      </trkpt>
      <trkpt lat="45.36048" lon="5.8417">
        <ele>1375.6</ele>
        <time>2022-04-03T13:02:49Z</time>
      </trkpt>
      <trkpt lat="45.36045" lon="5.84171">
        <ele>1376.6</ele>
        <time>2022-04-03T13:02:53Z</time>
      </trkpt>
      <trkpt lat="45.36045" lon="5.84172">
        <ele>1376.8</ele>
        <time>2022-04-03T13:02:54Z</time>
      </trkpt>
      <trkpt lat="45.36041" lon="5.84172">
        <ele>1377.8</ele>
        <time>2022-04-03T13:03:00Z</time>
      </trkpt>
      <trkpt lat="45.36038" lon="5.84173">
        <ele>1378.4</ele>
        <time>2022-04-03T13:03:05Z</time>
      </trkpt>
      <trkpt lat="45.36036" lon="5.84173">
        <ele>1378.8</ele>
        <time>2022-04-03T13:03:08Z</time>
      </trkpt>
      <trkpt lat="45.36031" lon="5.84172">
        <ele>1380</ele>
        <time>2022-04-03T13:03:13Z</time>
      </trkpt>
      <trkpt lat="45.36028" lon="5.84169">
        <ele>1380.6</ele>
        <time>2022-04-03T13:03:17Z</time>
      </trkpt>
      <trkpt lat="45.36023" lon="5.84167">
        <ele>1381</ele>
        <time>2022-04-03T13:03:21Z</time>
      </trkpt>
      <trkpt lat="45.36014" lon="5.84164">
        <ele>1381.8</ele>
        <time>2022-04-03T13:03:31Z</time>
      </trkpt>
      <trkpt lat="45.36012" lon="5.84163">
        <ele>1382.2</ele>
        <time>2022-04-03T13:03:33Z</time>
      </trkpt>
      <trkpt lat="45.36006" lon="5.84161">
        <ele>1383</ele>
        <time>2022-04-03T13:03:39Z</time>
      </trkpt>
      <trkpt lat="45.36004" lon="5.8416">
        <ele>1383.4</ele>
        <time>2022-04-03T13:03:41Z</time>
      </trkpt>
      <trkpt lat="45.35999" lon="5.84159">
        <ele>1384</ele>
        <time>2022-04-03T13:03:46Z</time>
      </trkpt>
      <trkpt lat="45.35995" lon="5.84157">
        <ele>1384.4</ele>
        <time>2022-04-03T13:03:51Z</time>
      </trkpt>
      <trkpt lat="45.3599" lon="5.84154">
        <ele>1385.4</ele>
        <time>2022-04-03T13:03:58Z</time>
      </trkpt>
      <trkpt lat="45.35989" lon="5.84153">
        <ele>1385.6</ele>
        <time>2022-04-03T13:03:59Z</time>
      </trkpt>
      <trkpt lat="45.35984" lon="5.84153">
        <ele>1386.8</ele>
        <time>2022-04-03T13:04:05Z</time>
      </trkpt>
      <trkpt lat="45.35978" lon="5.84151">
        <ele>1388</ele>
        <time>2022-04-03T13:04:12Z</time>
      </trkpt>
      <trkpt lat="45.35975" lon="5.84151">
        <ele>1388.4</ele>
        <time>2022-04-03T13:04:15Z</time>
      </trkpt>
      <trkpt lat="45.35969" lon="5.84149">
        <ele>1389</ele>
        <time>2022-04-03T13:04:20Z</time>
      </trkpt>
      <trkpt lat="45.35959" lon="5.84147">
        <ele>1390.4</ele>
        <time>2022-04-03T13:04:32Z</time>
      </trkpt>
      <trkpt lat="45.35959" lon="5.84146">
        <ele>1390.6</ele>
        <time>2022-04-03T13:04:33Z</time>
      </trkpt>
      <trkpt lat="45.35942" lon="5.84141">
        <ele>1391.6</ele>
        <time>2022-04-03T13:04:45Z</time>
      </trkpt>
      <trkpt lat="45.35941" lon="5.84141">
        <ele>1391.8</ele>
        <time>2022-04-03T13:04:46Z</time>
      </trkpt>
      <trkpt lat="45.35931" lon="5.84139">
        <ele>1392.6</ele>
        <time>2022-04-03T13:04:55Z</time>
      </trkpt>
      <trkpt lat="45.35925" lon="5.84139">
        <ele>1393.8</ele>
        <time>2022-04-03T13:05:00Z</time>
      </trkpt>
      <trkpt lat="45.35924" lon="5.84139">
        <ele>1394</ele>
        <time>2022-04-03T13:05:01Z</time>
      </trkpt>
      <trkpt lat="45.35918" lon="5.8414">
        <ele>1394.6</ele>
        <time>2022-04-03T13:05:07Z</time>
      </trkpt>
      <trkpt lat="45.35917" lon="5.8414">
        <ele>1395</ele>
        <time>2022-04-03T13:05:10Z</time>
      </trkpt>
      <trkpt lat="45.35915" lon="5.8414">
        <ele>1395.2</ele>
        <time>2022-04-03T13:05:13Z</time>
      </trkpt>
      <trkpt lat="45.35914" lon="5.8414">
        <ele>1396</ele>
        <time>2022-04-03T13:05:16Z</time>
      </trkpt>
      <trkpt lat="45.35915" lon="5.84141">
        <ele>1396</ele>
        <time>2022-04-03T13:05:23Z</time>
      </trkpt>
      <trkpt lat="45.35916" lon="5.84134">
        <ele>1395.4</ele>
        <time>2022-04-03T13:05:37Z</time>
      </trkpt>
      <trkpt lat="45.35916" lon="5.84135">
        <ele>1395.4</ele>
        <time>2022-04-03T13:05:55Z</time>
      </trkpt>
      <trkpt lat="45.35915" lon="5.84141">
        <ele>1396.4</ele>
        <time>2022-04-03T13:06:12Z</time>
      </trkpt>
      <trkpt lat="45.35909" lon="5.84139">
        <ele>1396.8</ele>
        <time>2022-04-03T13:06:19Z</time>
      </trkpt>
      <trkpt lat="45.35908" lon="5.84138">
        <ele>1397</ele>
        <time>2022-04-03T13:06:20Z</time>
      </trkpt>
      <trkpt lat="45.35907" lon="5.84139">
        <ele>1397</ele>
        <time>2022-04-03T13:06:21Z</time>
      </trkpt>
      <trkpt lat="45.35897" lon="5.84138">
        <ele>1398</ele>
        <time>2022-04-03T13:06:30Z</time>
      </trkpt>
      <trkpt lat="45.35894" lon="5.84138">
        <ele>1399.4</ele>
        <time>2022-04-03T13:06:33Z</time>
      </trkpt>
      <trkpt lat="45.35893" lon="5.84138">
        <ele>1399.6</ele>
        <time>2022-04-03T13:06:34Z</time>
      </trkpt>
      <trkpt lat="45.35889" lon="5.84139">
        <ele>1400.6</ele>
        <time>2022-04-03T13:06:38Z</time>
      </trkpt>
      <trkpt lat="45.35884" lon="5.84139">
        <ele>1401.8</ele>
        <time>2022-04-03T13:06:45Z</time>
      </trkpt>
      <trkpt lat="45.35881" lon="5.84142">
        <ele>1402.4</ele>
        <time>2022-04-03T13:06:49Z</time>
      </trkpt>
      <trkpt lat="45.35877" lon="5.84142">
        <ele>1402.8</ele>
        <time>2022-04-03T13:06:52Z</time>
      </trkpt>
      <trkpt lat="45.35872" lon="5.84142">
        <ele>1404</ele>
        <time>2022-04-03T13:06:58Z</time>
      </trkpt>
      <trkpt lat="45.35866" lon="5.84142">
        <ele>1404.8</ele>
        <time>2022-04-03T13:07:04Z</time>
      </trkpt>
      <trkpt lat="45.35862" lon="5.84142">
        <ele>1405.2</ele>
        <time>2022-04-03T13:07:08Z</time>
      </trkpt>
      <trkpt lat="45.35855" lon="5.84142">
        <ele>1406.2</ele>
        <time>2022-04-03T13:07:16Z</time>
      </trkpt>
      <trkpt lat="45.3585" lon="5.8414">
        <ele>1406.8</ele>
        <time>2022-04-03T13:07:21Z</time>
      </trkpt>
      <trkpt lat="45.35844" lon="5.84135">
        <ele>1407.2</ele>
        <time>2022-04-03T13:07:28Z</time>
      </trkpt>
      <trkpt lat="45.3584" lon="5.84134">
        <ele>1407.6</ele>
        <time>2022-04-03T13:07:34Z</time>
      </trkpt>
      <trkpt lat="45.35834" lon="5.84135">
        <ele>1408.4</ele>
        <time>2022-04-03T13:07:40Z</time>
      </trkpt>
      <trkpt lat="45.35826" lon="5.84136">
        <ele>1409.4</ele>
        <time>2022-04-03T13:07:47Z</time>
      </trkpt>
      <trkpt lat="45.35826" lon="5.84136">
        <ele>1409.4</ele>
        <time>2022-04-03T13:07:48Z</time>
      </trkpt>
      <trkpt lat="45.3582" lon="5.84136">
        <ele>1410.6</ele>
        <time>2022-04-03T13:07:55Z</time>
      </trkpt>
      <trkpt lat="45.35813" lon="5.84136">
        <ele>1411.6</ele>
        <time>2022-04-03T13:08:02Z</time>
      </trkpt>
      <trkpt lat="45.35805" lon="5.84136">
        <ele>1413</ele>
        <time>2022-04-03T13:08:09Z</time>
      </trkpt>
      <trkpt lat="45.35802" lon="5.84138">
        <ele>1414</ele>
        <time>2022-04-03T13:08:12Z</time>
      </trkpt>
      <trkpt lat="45.35798" lon="5.84138">
        <ele>1414.8</ele>
        <time>2022-04-03T13:08:16Z</time>
      </trkpt>
      <trkpt lat="45.35796" lon="5.84138">
        <ele>1415.2</ele>
        <time>2022-04-03T13:08:18Z</time>
      </trkpt>
      <trkpt lat="45.35788" lon="5.8414">
        <ele>1416.2</ele>
        <time>2022-04-03T13:08:28Z</time>
      </trkpt>
      <trkpt lat="45.35787" lon="5.8414">
        <ele>1416.2</ele>
        <time>2022-04-03T13:08:29Z</time>
      </trkpt>
      <trkpt lat="45.35786" lon="5.8414">
        <ele>1416.2</ele>
        <time>2022-04-03T13:08:30Z</time>
      </trkpt>
      <trkpt lat="45.35781" lon="5.84143">
        <ele>1417.4</ele>
        <time>2022-04-03T13:08:35Z</time>
      </trkpt>
      <trkpt lat="45.3578" lon="5.84143">
        <ele>1418.6</ele>
        <time>2022-04-03T13:08:37Z</time>
      </trkpt>
      <trkpt lat="45.35777" lon="5.84143">
        <ele>1420</ele>
        <time>2022-04-03T13:08:40Z</time>
      </trkpt>
      <trkpt lat="45.35777" lon="5.84143">
        <ele>1420</ele>
        <time>2022-04-03T13:08:41Z</time>
      </trkpt>
      <trkpt lat="45.35771" lon="5.84146">
        <ele>1418.8</ele>
        <time>2022-04-03T13:08:50Z</time>
      </trkpt>
      <trkpt lat="45.35768" lon="5.84147">
        <ele>1419.8</ele>
        <time>2022-04-03T13:08:54Z</time>
      </trkpt>
      <trkpt lat="45.35767" lon="5.84148">
        <ele>1420.4</ele>
        <time>2022-04-03T13:08:56Z</time>
      </trkpt>
      <trkpt lat="45.35764" lon="5.84149">
        <ele>1421.2</ele>
        <time>2022-04-03T13:09:00Z</time>
      </trkpt>
      <trkpt lat="45.3576" lon="5.84149">
        <ele>1422.6</ele>
        <time>2022-04-03T13:09:04Z</time>
      </trkpt>
      <trkpt lat="45.35755" lon="5.84151">
        <ele>1424</ele>
        <time>2022-04-03T13:09:09Z</time>
      </trkpt>
      <trkpt lat="45.35755" lon="5.84152">
        <ele>1424.4</ele>
        <time>2022-04-03T13:09:10Z</time>
      </trkpt>
      <trkpt lat="45.35753" lon="5.84153">
        <ele>1425.4</ele>
        <time>2022-04-03T13:09:12Z</time>
      </trkpt>
      <trkpt lat="45.35751" lon="5.84153">
        <ele>1426.4</ele>
        <time>2022-04-03T13:09:14Z</time>
      </trkpt>
      <trkpt lat="45.35745" lon="5.84159">
        <ele>1427.6</ele>
        <time>2022-04-03T13:09:22Z</time>
      </trkpt>
      <trkpt lat="45.35743" lon="5.8416">
        <ele>1428</ele>
        <time>2022-04-03T13:09:24Z</time>
      </trkpt>
      <trkpt lat="45.35741" lon="5.84161">
        <ele>1428.8</ele>
        <time>2022-04-03T13:09:26Z</time>
      </trkpt>
      <trkpt lat="45.35737" lon="5.84163">
        <ele>1430</ele>
        <time>2022-04-03T13:09:29Z</time>
      </trkpt>
      <trkpt lat="45.35735" lon="5.84164">
        <ele>1431</ele>
        <time>2022-04-03T13:09:31Z</time>
      </trkpt>
      <trkpt lat="45.35732" lon="5.84165">
        <ele>1432</ele>
        <time>2022-04-03T13:09:34Z</time>
      </trkpt>
      <trkpt lat="45.35725" lon="5.84168">
        <ele>1432.8</ele>
        <time>2022-04-03T13:09:39Z</time>
      </trkpt>
      <trkpt lat="45.35721" lon="5.84169">
        <ele>1431</ele>
        <time>2022-04-03T13:09:44Z</time>
      </trkpt>
      <trkpt lat="45.35712" lon="5.84172">
        <ele>1430</ele>
        <time>2022-04-03T13:09:53Z</time>
      </trkpt>
      <trkpt lat="45.3571" lon="5.84173">
        <ele>1430.6</ele>
        <time>2022-04-03T13:09:55Z</time>
      </trkpt>
      <trkpt lat="45.35708" lon="5.84172">
        <ele>1431</ele>
        <time>2022-04-03T13:09:57Z</time>
      </trkpt>
      <trkpt lat="45.35702" lon="5.84172">
        <ele>1433.2</ele>
        <time>2022-04-03T13:10:02Z</time>
      </trkpt>
      <trkpt lat="45.35701" lon="5.84172">
        <ele>1434.2</ele>
        <time>2022-04-03T13:10:03Z</time>
      </trkpt>
      <trkpt lat="45.35699" lon="5.84171">
        <ele>1435.4</ele>
        <time>2022-04-03T13:10:05Z</time>
      </trkpt>
      <trkpt lat="45.35696" lon="5.84171">
        <ele>1436.2</ele>
        <time>2022-04-03T13:10:08Z</time>
      </trkpt>
      <trkpt lat="45.35695" lon="5.84171">
        <ele>1437</ele>
        <time>2022-04-03T13:10:09Z</time>
      </trkpt>
      <trkpt lat="45.35693" lon="5.8417">
        <ele>1438</ele>
        <time>2022-04-03T13:10:11Z</time>
      </trkpt>
      <trkpt lat="45.35692" lon="5.8417">
        <ele>1439.8</ele>
        <time>2022-04-03T13:10:13Z</time>
      </trkpt>
      <trkpt lat="45.35691" lon="5.8417">
        <ele>1438.6</ele>
        <time>2022-04-03T13:10:14Z</time>
      </trkpt>
      <trkpt lat="45.35684" lon="5.84169">
        <ele>1439.6</ele>
        <time>2022-04-03T13:10:22Z</time>
      </trkpt>
      <trkpt lat="45.35683" lon="5.84168">
        <ele>1439.8</ele>
        <time>2022-04-03T13:10:23Z</time>
      </trkpt>
      <trkpt lat="45.35683" lon="5.84168">
        <ele>1441</ele>
        <time>2022-04-03T13:10:25Z</time>
      </trkpt>
      <trkpt lat="45.35678" lon="5.84168">
        <ele>1442.2</ele>
        <time>2022-04-03T13:10:27Z</time>
      </trkpt>
      <trkpt lat="45.35677" lon="5.84168">
        <ele>1443.2</ele>
        <time>2022-04-03T13:10:28Z</time>
      </trkpt>
      <trkpt lat="45.35674" lon="5.84169">
        <ele>1444.2</ele>
        <time>2022-04-03T13:10:32Z</time>
      </trkpt>
      <trkpt lat="45.35672" lon="5.84168">
        <ele>1445</ele>
        <time>2022-04-03T13:10:35Z</time>
      </trkpt>
      <trkpt lat="45.35671" lon="5.84168">
        <ele>1445.6</ele>
        <time>2022-04-03T13:10:36Z</time>
      </trkpt>
      <trkpt lat="45.35667" lon="5.84167">
        <ele>1446.8</ele>
        <time>2022-04-03T13:10:41Z</time>
      </trkpt>
      <trkpt lat="45.35666" lon="5.84167">
        <ele>1445.8</ele>
        <time>2022-04-03T13:10:42Z</time>
      </trkpt>
      <trkpt lat="45.35664" lon="5.84167">
        <ele>1444.8</ele>
        <time>2022-04-03T13:10:44Z</time>
      </trkpt>
      <trkpt lat="45.35662" lon="5.84168">
        <ele>1443.2</ele>
        <time>2022-04-03T13:10:47Z</time>
      </trkpt>
      <trkpt lat="45.35662" lon="5.84168">
        <ele>1442</ele>
        <time>2022-04-03T13:10:48Z</time>
      </trkpt>
      <trkpt lat="45.35651" lon="5.84171">
        <ele>1443.2</ele>
        <time>2022-04-03T13:11:00Z</time>
      </trkpt>
      <trkpt lat="45.35649" lon="5.8417">
        <ele>1444.4</ele>
        <time>2022-04-03T13:11:02Z</time>
      </trkpt>
      <trkpt lat="45.35649" lon="5.84169">
        <ele>1445.2</ele>
        <time>2022-04-03T13:11:03Z</time>
      </trkpt>
      <trkpt lat="45.35646" lon="5.84169">
        <ele>1445.6</ele>
        <time>2022-04-03T13:11:06Z</time>
      </trkpt>
      <trkpt lat="45.35644" lon="5.84168">
        <ele>1443.8</ele>
        <time>2022-04-03T13:11:09Z</time>
      </trkpt>
      <trkpt lat="45.35639" lon="5.84168">
        <ele>1444.2</ele>
        <time>2022-04-03T13:11:16Z</time>
      </trkpt>
      <trkpt lat="45.35629" lon="5.84171">
        <ele>1442.8</ele>
        <time>2022-04-03T13:11:28Z</time>
      </trkpt>
      <trkpt lat="45.35628" lon="5.84171">
        <ele>1442</ele>
        <time>2022-04-03T13:11:29Z</time>
      </trkpt>
      <trkpt lat="45.35626" lon="5.84171">
        <ele>1441.8</ele>
        <time>2022-04-03T13:11:32Z</time>
      </trkpt>
      <trkpt lat="45.35622" lon="5.84169">
        <ele>1443.4</ele>
        <time>2022-04-03T13:11:38Z</time>
      </trkpt>
      <trkpt lat="45.35621" lon="5.84169">
        <ele>1444.8</ele>
        <time>2022-04-03T13:11:39Z</time>
      </trkpt>
      <trkpt lat="45.35619" lon="5.84169">
        <ele>1445.8</ele>
        <time>2022-04-03T13:11:42Z</time>
      </trkpt>
      <trkpt lat="45.35618" lon="5.84169">
        <ele>1446.2</ele>
        <time>2022-04-03T13:11:43Z</time>
      </trkpt>
      <trkpt lat="45.35611" lon="5.84169">
        <ele>1445.2</ele>
        <time>2022-04-03T13:11:54Z</time>
      </trkpt>
      <trkpt lat="45.3561" lon="5.84169">
        <ele>1444.8</ele>
        <time>2022-04-03T13:11:55Z</time>
      </trkpt>
      <trkpt lat="45.35609" lon="5.8417">
        <ele>1444</ele>
        <time>2022-04-03T13:11:57Z</time>
      </trkpt>
      <trkpt lat="45.35607" lon="5.84169">
        <ele>1442.8</ele>
        <time>2022-04-03T13:11:59Z</time>
      </trkpt>
      <trkpt lat="45.35602" lon="5.8417">
        <ele>1444</ele>
        <time>2022-04-03T13:12:06Z</time>
      </trkpt>
      <trkpt lat="45.35599" lon="5.84171">
        <ele>1444.6</ele>
        <time>2022-04-03T13:12:11Z</time>
      </trkpt>
      <trkpt lat="45.35589" lon="5.84175">
        <ele>1445.2</ele>
        <time>2022-04-03T13:12:21Z</time>
      </trkpt>
      <trkpt lat="45.35584" lon="5.84175">
        <ele>1446.2</ele>
        <time>2022-04-03T13:12:26Z</time>
      </trkpt>
      <trkpt lat="45.35583" lon="5.84176">
        <ele>1446.2</ele>
        <time>2022-04-03T13:12:27Z</time>
      </trkpt>
      <trkpt lat="45.35579" lon="5.84177">
        <ele>1447.4</ele>
        <time>2022-04-03T13:12:32Z</time>
      </trkpt>
      <trkpt lat="45.35572" lon="5.8418">
        <ele>1448</ele>
        <time>2022-04-03T13:12:40Z</time>
      </trkpt>
      <trkpt lat="45.35572" lon="5.8418">
        <ele>1448.4</ele>
        <time>2022-04-03T13:12:41Z</time>
      </trkpt>
      <trkpt lat="45.3557" lon="5.84181">
        <ele>1449.8</ele>
        <time>2022-04-03T13:12:43Z</time>
      </trkpt>
      <trkpt lat="45.35568" lon="5.84182">
        <ele>1450.8</ele>
        <time>2022-04-03T13:12:46Z</time>
      </trkpt>
      <trkpt lat="45.35566" lon="5.84184">
        <ele>1452</ele>
        <time>2022-04-03T13:12:49Z</time>
      </trkpt>
      <trkpt lat="45.35564" lon="5.84186">
        <ele>1454</ele>
        <time>2022-04-03T13:12:52Z</time>
      </trkpt>
      <trkpt lat="45.35564" lon="5.84186">
        <ele>1455</ele>
        <time>2022-04-03T13:12:53Z</time>
      </trkpt>
      <trkpt lat="45.35563" lon="5.84186">
        <ele>1455.6</ele>
        <time>2022-04-03T13:12:54Z</time>
      </trkpt>
      <trkpt lat="45.35562" lon="5.84186">
        <ele>1456.4</ele>
        <time>2022-04-03T13:12:55Z</time>
      </trkpt>
      <trkpt lat="45.35561" lon="5.84186">
        <ele>1457.6</ele>
        <time>2022-04-03T13:12:57Z</time>
      </trkpt>
      <trkpt lat="45.3556" lon="5.84186">
        <ele>1458.8</ele>
        <time>2022-04-03T13:12:59Z</time>
      </trkpt>
      <trkpt lat="45.35558" lon="5.84186">
        <ele>1457</ele>
        <time>2022-04-03T13:13:01Z</time>
      </trkpt>
      <trkpt lat="45.35554" lon="5.84187">
        <ele>1456</ele>
        <time>2022-04-03T13:13:08Z</time>
      </trkpt>
      <trkpt lat="45.35544" lon="5.84185">
        <ele>1456.6</ele>
        <time>2022-04-03T13:13:18Z</time>
      </trkpt>
      <trkpt lat="45.35538" lon="5.84182">
        <ele>1455.8</ele>
        <time>2022-04-03T13:13:28Z</time>
      </trkpt>
      <trkpt lat="45.35537" lon="5.84181">
        <ele>1455.8</ele>
        <time>2022-04-03T13:13:29Z</time>
      </trkpt>
      <trkpt lat="45.35531" lon="5.84179">
        <ele>1457.4</ele>
        <time>2022-04-03T13:13:36Z</time>
      </trkpt>
      <trkpt lat="45.35527" lon="5.84179">
        <ele>1456.4</ele>
        <time>2022-04-03T13:13:40Z</time>
      </trkpt>
      <trkpt lat="45.35525" lon="5.84178">
        <ele>1455.8</ele>
        <time>2022-04-03T13:13:42Z</time>
      </trkpt>
      <trkpt lat="45.35524" lon="5.84178">
        <ele>1455.4</ele>
        <time>2022-04-03T13:13:43Z</time>
      </trkpt>
      <trkpt lat="45.3552" lon="5.84177">
        <ele>1454</ele>
        <time>2022-04-03T13:13:46Z</time>
      </trkpt>
      <trkpt lat="45.35517" lon="5.84175">
        <ele>1453</ele>
        <time>2022-04-03T13:13:49Z</time>
      </trkpt>
      <trkpt lat="45.35511" lon="5.84172">
        <ele>1452</ele>
        <time>2022-04-03T13:13:56Z</time>
      </trkpt>
      <trkpt lat="45.35501" lon="5.84166">
        <ele>1453.8</ele>
        <time>2022-04-03T13:14:08Z</time>
      </trkpt>
      <trkpt lat="45.35499" lon="5.84165">
        <ele>1454</ele>
        <time>2022-04-03T13:14:09Z</time>
      </trkpt>
      <trkpt lat="45.35494" lon="5.84164">
        <ele>1456.2</ele>
        <time>2022-04-03T13:14:13Z</time>
      </trkpt>
      <trkpt lat="45.35491" lon="5.84164">
        <ele>1457.2</ele>
        <time>2022-04-03T13:14:15Z</time>
      </trkpt>
      <trkpt lat="45.35486" lon="5.84163">
        <ele>1458.2</ele>
        <time>2022-04-03T13:14:19Z</time>
      </trkpt>
      <trkpt lat="45.35485" lon="5.84162">
        <ele>1458.4</ele>
        <time>2022-04-03T13:14:21Z</time>
      </trkpt>
      <trkpt lat="45.35483" lon="5.84162">
        <ele>1459.2</ele>
        <time>2022-04-03T13:14:23Z</time>
      </trkpt>
      <trkpt lat="45.35481" lon="5.8416">
        <ele>1460.4</ele>
        <time>2022-04-03T13:14:25Z</time>
      </trkpt>
      <trkpt lat="45.35478" lon="5.84159">
        <ele>1461.4</ele>
        <time>2022-04-03T13:14:28Z</time>
      </trkpt>
      <trkpt lat="45.35475" lon="5.84159">
        <ele>1462.4</ele>
        <time>2022-04-03T13:14:31Z</time>
      </trkpt>
      <trkpt lat="45.35472" lon="5.84157">
        <ele>1463.8</ele>
        <time>2022-04-03T13:14:35Z</time>
      </trkpt>
      <trkpt lat="45.3547" lon="5.84157">
        <ele>1464.2</ele>
        <time>2022-04-03T13:14:36Z</time>
      </trkpt>
      <trkpt lat="45.35469" lon="5.84157">
        <ele>1464.8</ele>
        <time>2022-04-03T13:14:38Z</time>
      </trkpt>
      <trkpt lat="45.3546" lon="5.84155">
        <ele>1466.2</ele>
        <time>2022-04-03T13:14:46Z</time>
      </trkpt>
      <trkpt lat="45.35457" lon="5.84153">
        <ele>1467.4</ele>
        <time>2022-04-03T13:14:49Z</time>
      </trkpt>
      <trkpt lat="45.35456" lon="5.84153">
        <ele>1468</ele>
        <time>2022-04-03T13:14:51Z</time>
      </trkpt>
      <trkpt lat="45.35455" lon="5.84152">
        <ele>1468.4</ele>
        <time>2022-04-03T13:14:52Z</time>
      </trkpt>
      <trkpt lat="45.3545" lon="5.84151">
        <ele>1469.6</ele>
        <time>2022-04-03T13:14:57Z</time>
      </trkpt>
      <trkpt lat="45.35443" lon="5.84149">
        <ele>1469.6</ele>
        <time>2022-04-03T13:15:03Z</time>
      </trkpt>
      <trkpt lat="45.35429" lon="5.84145">
        <ele>1470.8</ele>
        <time>2022-04-03T13:15:17Z</time>
      </trkpt>
      <trkpt lat="45.35428" lon="5.84145">
        <ele>1471</ele>
        <time>2022-04-03T13:15:19Z</time>
      </trkpt>
      <trkpt lat="45.35414" lon="5.84148">
        <ele>1470.2</ele>
        <time>2022-04-03T13:15:32Z</time>
      </trkpt>
      <trkpt lat="45.35401" lon="5.84149">
        <ele>1470</ele>
        <time>2022-04-03T13:15:44Z</time>
      </trkpt>
      <trkpt lat="45.354" lon="5.84149">
        <ele>1469.8</ele>
        <time>2022-04-03T13:15:45Z</time>
      </trkpt>
      <trkpt lat="45.35394" lon="5.84152">
        <ele>1470.8</ele>
        <time>2022-04-03T13:15:51Z</time>
      </trkpt>
      <trkpt lat="45.35391" lon="5.84153">
        <ele>1471.8</ele>
        <time>2022-04-03T13:15:54Z</time>
      </trkpt>
      <trkpt lat="45.35388" lon="5.84152">
        <ele>1472.4</ele>
        <time>2022-04-03T13:15:57Z</time>
      </trkpt>
      <trkpt lat="45.3538" lon="5.84152">
        <ele>1470.8</ele>
        <time>2022-04-03T13:16:04Z</time>
      </trkpt>
      <trkpt lat="45.35374" lon="5.84152">
        <ele>1471</ele>
        <time>2022-04-03T13:16:10Z</time>
      </trkpt>
      <trkpt lat="45.3537" lon="5.84154">
        <ele>1472</ele>
        <time>2022-04-03T13:16:14Z</time>
      </trkpt>
      <trkpt lat="45.35369" lon="5.84154">
        <ele>1473</ele>
        <time>2022-04-03T13:16:15Z</time>
      </trkpt>
      <trkpt lat="45.35367" lon="5.84155">
        <ele>1474.2</ele>
        <time>2022-04-03T13:16:17Z</time>
      </trkpt>
      <trkpt lat="45.35365" lon="5.84156">
        <ele>1475.6</ele>
        <time>2022-04-03T13:16:19Z</time>
      </trkpt>
      <trkpt lat="45.35363" lon="5.84157">
        <ele>1476.8</ele>
        <time>2022-04-03T13:16:21Z</time>
      </trkpt>
      <trkpt lat="45.3536" lon="5.84158">
        <ele>1477.6</ele>
        <time>2022-04-03T13:16:23Z</time>
      </trkpt>
      <trkpt lat="45.3536" lon="5.84158">
        <ele>1477.8</ele>
        <time>2022-04-03T13:16:24Z</time>
      </trkpt>
      <trkpt lat="45.35348" lon="5.84164">
        <ele>1478.2</ele>
        <time>2022-04-03T13:16:35Z</time>
      </trkpt>
      <trkpt lat="45.35338" lon="5.84164">
        <ele>1479</ele>
        <time>2022-04-03T13:16:44Z</time>
      </trkpt>
      <trkpt lat="45.35337" lon="5.84164">
        <ele>1480</ele>
        <time>2022-04-03T13:16:45Z</time>
      </trkpt>
      <trkpt lat="45.35334" lon="5.84164">
        <ele>1481.4</ele>
        <time>2022-04-03T13:16:47Z</time>
      </trkpt>
      <trkpt lat="45.35329" lon="5.84163">
        <ele>1481.8</ele>
        <time>2022-04-03T13:16:50Z</time>
      </trkpt>
      <trkpt lat="45.35327" lon="5.84162">
        <ele>1482.8</ele>
        <time>2022-04-03T13:16:52Z</time>
      </trkpt>
      <trkpt lat="45.35323" lon="5.8416">
        <ele>1483.6</ele>
        <time>2022-04-03T13:16:57Z</time>
      </trkpt>
      <trkpt lat="45.35322" lon="5.8416">
        <ele>1483.6</ele>
        <time>2022-04-03T13:16:58Z</time>
      </trkpt>
      <trkpt lat="45.35319" lon="5.84158">
        <ele>1483.4</ele>
        <time>2022-04-03T13:17:02Z</time>
      </trkpt>
      <trkpt lat="45.35318" lon="5.84158">
        <ele>1482.8</ele>
        <time>2022-04-03T13:17:03Z</time>
      </trkpt>
      <trkpt lat="45.35315" lon="5.84155">
        <ele>1481.6</ele>
        <time>2022-04-03T13:17:06Z</time>
      </trkpt>
      <trkpt lat="45.35312" lon="5.84152">
        <ele>1480.2</ele>
        <time>2022-04-03T13:17:09Z</time>
      </trkpt>
      <trkpt lat="45.35311" lon="5.84151">
        <ele>1480.2</ele>
        <time>2022-04-03T13:17:10Z</time>
      </trkpt>
      <trkpt lat="45.35308" lon="5.8415">
        <ele>1479</ele>
        <time>2022-04-03T13:17:13Z</time>
      </trkpt>
      <trkpt lat="45.35307" lon="5.84147">
        <ele>1479.6</ele>
        <time>2022-04-03T13:17:15Z</time>
      </trkpt>
      <trkpt lat="45.35305" lon="5.84146">
        <ele>1480.2</ele>
        <time>2022-04-03T13:17:17Z</time>
      </trkpt>
      <trkpt lat="45.35298" lon="5.84144">
        <ele>1481.2</ele>
        <time>2022-04-03T13:17:24Z</time>
      </trkpt>
      <trkpt lat="45.35295" lon="5.84144">
        <ele>1482.8</ele>
        <time>2022-04-03T13:17:27Z</time>
      </trkpt>
      <trkpt lat="45.35293" lon="5.84144">
        <ele>1484</ele>
        <time>2022-04-03T13:17:29Z</time>
      </trkpt>
      <trkpt lat="45.35292" lon="5.84144">
        <ele>1485.6</ele>
        <time>2022-04-03T13:17:30Z</time>
      </trkpt>
      <trkpt lat="45.3529" lon="5.84144">
        <ele>1487.2</ele>
        <time>2022-04-03T13:17:32Z</time>
      </trkpt>
      <trkpt lat="45.35288" lon="5.84143">
        <ele>1488.2</ele>
        <time>2022-04-03T13:17:34Z</time>
      </trkpt>
      <trkpt lat="45.35286" lon="5.84142">
        <ele>1489.8</ele>
        <time>2022-04-03T13:17:36Z</time>
      </trkpt>
      <trkpt lat="45.35284" lon="5.84142">
        <ele>1491.4</ele>
        <time>2022-04-03T13:17:38Z</time>
      </trkpt>
      <trkpt lat="45.35282" lon="5.84141">
        <ele>1492.6</ele>
        <time>2022-04-03T13:17:40Z</time>
      </trkpt>
      <trkpt lat="45.35278" lon="5.8414">
        <ele>1492.6</ele>
        <time>2022-04-03T13:17:44Z</time>
      </trkpt>
      <trkpt lat="45.35277" lon="5.84139">
        <ele>1493.8</ele>
        <time>2022-04-03T13:17:46Z</time>
      </trkpt>
      <trkpt lat="45.35272" lon="5.84137">
        <ele>1493.4</ele>
        <time>2022-04-03T13:17:51Z</time>
      </trkpt>
      <trkpt lat="45.35271" lon="5.84138">
        <ele>1492.8</ele>
        <time>2022-04-03T13:17:52Z</time>
      </trkpt>
      <trkpt lat="45.3527" lon="5.84138">
        <ele>1491</ele>
        <time>2022-04-03T13:17:53Z</time>
      </trkpt>
      <trkpt lat="45.3527" lon="5.84139">
        <ele>1489</ele>
        <time>2022-04-03T13:17:54Z</time>
      </trkpt>
      <trkpt lat="45.35269" lon="5.84139">
        <ele>1487.4</ele>
        <time>2022-04-03T13:17:55Z</time>
      </trkpt>
      <trkpt lat="45.35267" lon="5.84139">
        <ele>1487</ele>
        <time>2022-04-03T13:17:57Z</time>
      </trkpt>
      <trkpt lat="45.35263" lon="5.8414">
        <ele>1486.2</ele>
        <time>2022-04-03T13:18:00Z</time>
      </trkpt>
      <trkpt lat="45.35257" lon="5.84142">
        <ele>1485.2</ele>
        <time>2022-04-03T13:18:04Z</time>
      </trkpt>
      <trkpt lat="45.35253" lon="5.8414">
        <ele>1487.2</ele>
        <time>2022-04-03T13:18:08Z</time>
      </trkpt>
      <trkpt lat="45.35252" lon="5.8414">
        <ele>1488.6</ele>
        <time>2022-04-03T13:18:09Z</time>
      </trkpt>
      <trkpt lat="45.35251" lon="5.8414">
        <ele>1490</ele>
        <time>2022-04-03T13:18:10Z</time>
      </trkpt>
      <trkpt lat="45.3525" lon="5.84141">
        <ele>1489.6</ele>
        <time>2022-04-03T13:18:11Z</time>
      </trkpt>
      <trkpt lat="45.35248" lon="5.84141">
        <ele>1487.4</ele>
        <time>2022-04-03T13:18:12Z</time>
      </trkpt>
      <trkpt lat="45.35243" lon="5.84141">
        <ele>1486.2</ele>
        <time>2022-04-03T13:18:16Z</time>
      </trkpt>
      <trkpt lat="45.3524" lon="5.8414">
        <ele>1485.8</ele>
        <time>2022-04-03T13:18:18Z</time>
      </trkpt>
      <trkpt lat="45.35238" lon="5.8414">
        <ele>1485</ele>
        <time>2022-04-03T13:18:20Z</time>
      </trkpt>
      <trkpt lat="45.35236" lon="5.84141">
        <ele>1483.2</ele>
        <time>2022-04-03T13:18:22Z</time>
      </trkpt>
      <trkpt lat="45.35236" lon="5.84141">
        <ele>1481.6</ele>
        <time>2022-04-03T13:18:23Z</time>
      </trkpt>
      <trkpt lat="45.35234" lon="5.84141">
        <ele>1480.2</ele>
        <time>2022-04-03T13:18:25Z</time>
      </trkpt>
      <trkpt lat="45.35229" lon="5.84141">
        <ele>1481.2</ele>
        <time>2022-04-03T13:18:29Z</time>
      </trkpt>
      <trkpt lat="45.35227" lon="5.84142">
        <ele>1482.2</ele>
        <time>2022-04-03T13:18:31Z</time>
      </trkpt>
      <trkpt lat="45.35226" lon="5.84142">
        <ele>1482.4</ele>
        <time>2022-04-03T13:18:32Z</time>
      </trkpt>
      <trkpt lat="45.35221" lon="5.84143">
        <ele>1481</ele>
        <time>2022-04-03T13:18:36Z</time>
      </trkpt>
      <trkpt lat="45.35218" lon="5.84142">
        <ele>1480.4</ele>
        <time>2022-04-03T13:18:39Z</time>
      </trkpt>
      <trkpt lat="45.35215" lon="5.84142">
        <ele>1479.4</ele>
        <time>2022-04-03T13:18:41Z</time>
      </trkpt>
      <trkpt lat="45.35212" lon="5.84142">
        <ele>1478.2</ele>
        <time>2022-04-03T13:18:43Z</time>
      </trkpt>
      <trkpt lat="45.35211" lon="5.84143">
        <ele>1477.8</ele>
        <time>2022-04-03T13:18:44Z</time>
      </trkpt>
      <trkpt lat="45.35209" lon="5.84146">
        <ele>1477</ele>
        <time>2022-04-03T13:18:47Z</time>
      </trkpt>
      <trkpt lat="45.35207" lon="5.84146">
        <ele>1476.6</ele>
        <time>2022-04-03T13:18:49Z</time>
      </trkpt>
      <trkpt lat="45.35207" lon="5.84147">
        <ele>1476.2</ele>
        <time>2022-04-03T13:18:50Z</time>
      </trkpt>
      <trkpt lat="45.35206" lon="5.84147">
        <ele>1476</ele>
        <time>2022-04-03T13:18:51Z</time>
      </trkpt>
      <trkpt lat="45.35202" lon="5.8415">
        <ele>1477</ele>
        <time>2022-04-03T13:18:55Z</time>
      </trkpt>
      <trkpt lat="45.35201" lon="5.8415">
        <ele>1478</ele>
        <time>2022-04-03T13:18:56Z</time>
      </trkpt>
      <trkpt lat="45.352" lon="5.8415">
        <ele>1478.4</ele>
        <time>2022-04-03T13:18:57Z</time>
      </trkpt>
      <trkpt lat="45.35191" lon="5.84152">
        <ele>1476.8</ele>
        <time>2022-04-03T13:19:04Z</time>
      </trkpt>
      <trkpt lat="45.35187" lon="5.84156">
        <ele>1475.6</ele>
        <time>2022-04-03T13:19:08Z</time>
      </trkpt>
      <trkpt lat="45.35182" lon="5.84159">
        <ele>1475.4</ele>
        <time>2022-04-03T13:19:12Z</time>
      </trkpt>
      <trkpt lat="45.35178" lon="5.84161">
        <ele>1477.6</ele>
        <time>2022-04-03T13:19:16Z</time>
      </trkpt>
      <trkpt lat="45.35176" lon="5.8416">
        <ele>1479.6</ele>
        <time>2022-04-03T13:19:18Z</time>
      </trkpt>
      <trkpt lat="45.35175" lon="5.8416">
        <ele>1481</ele>
        <time>2022-04-03T13:19:19Z</time>
      </trkpt>
      <trkpt lat="45.35174" lon="5.8416">
        <ele>1483.8</ele>
        <time>2022-04-03T13:19:21Z</time>
      </trkpt>
      <trkpt lat="45.35172" lon="5.8416">
        <ele>1484.8</ele>
        <time>2022-04-03T13:19:23Z</time>
      </trkpt>
      <trkpt lat="45.35169" lon="5.84161">
        <ele>1484.8</ele>
        <time>2022-04-03T13:19:25Z</time>
      </trkpt>
      <trkpt lat="45.35168" lon="5.84162">
        <ele>1485.8</ele>
        <time>2022-04-03T13:19:27Z</time>
      </trkpt>
      <trkpt lat="45.35166" lon="5.84163">
        <ele>1486.8</ele>
        <time>2022-04-03T13:19:29Z</time>
      </trkpt>
      <trkpt lat="45.35165" lon="5.84165">
        <ele>1487.6</ele>
        <time>2022-04-03T13:19:31Z</time>
      </trkpt>
      <trkpt lat="45.35165" lon="5.84167">
        <ele>1487.4</ele>
        <time>2022-04-03T13:19:33Z</time>
      </trkpt>
      <trkpt lat="45.35167" lon="5.8417">
        <ele>1487.8</ele>
        <time>2022-04-03T13:19:35Z</time>
      </trkpt>
      <trkpt lat="45.35172" lon="5.84173">
        <ele>1486.4</ele>
        <time>2022-04-03T13:19:41Z</time>
      </trkpt>
      <trkpt lat="45.35183" lon="5.84175">
        <ele>1487.6</ele>
        <time>2022-04-03T13:19:51Z</time>
      </trkpt>
      <trkpt lat="45.35186" lon="5.84176">
        <ele>1488</ele>
        <time>2022-04-03T13:19:54Z</time>
      </trkpt>
      <trkpt lat="45.35199" lon="5.8418">
        <ele>1486.4</ele>
        <time>2022-04-03T13:20:07Z</time>
      </trkpt>
      <trkpt lat="45.352" lon="5.84181">
        <ele>1486</ele>
        <time>2022-04-03T13:20:08Z</time>
      </trkpt>
      <trkpt lat="45.35211" lon="5.84182">
        <ele>1487.4</ele>
        <time>2022-04-03T13:20:18Z</time>
      </trkpt>
      <trkpt lat="45.35215" lon="5.84185">
        <ele>1487.2</ele>
        <time>2022-04-03T13:20:22Z</time>
      </trkpt>
      <trkpt lat="45.35226" lon="5.84188">
        <ele>1488.4</ele>
        <time>2022-04-03T13:20:33Z</time>
      </trkpt>
      <trkpt lat="45.35228" lon="5.84189">
        <ele>1488.6</ele>
        <time>2022-04-03T13:20:35Z</time>
      </trkpt>
      <trkpt lat="45.35237" lon="5.84194">
        <ele>1488.8</ele>
        <time>2022-04-03T13:20:47Z</time>
      </trkpt>
      <trkpt lat="45.35245" lon="5.84199">
        <ele>1490</ele>
        <time>2022-04-03T13:20:56Z</time>
      </trkpt>
      <trkpt lat="45.35249" lon="5.84202">
        <ele>1491</ele>
        <time>2022-04-03T13:21:01Z</time>
      </trkpt>
      <trkpt lat="45.35254" lon="5.84204">
        <ele>1492</ele>
        <time>2022-04-03T13:21:05Z</time>
      </trkpt>
      <trkpt lat="45.35259" lon="5.84208">
        <ele>1493.2</ele>
        <time>2022-04-03T13:21:10Z</time>
      </trkpt>
      <trkpt lat="45.35261" lon="5.84209">
        <ele>1494.2</ele>
        <time>2022-04-03T13:21:12Z</time>
      </trkpt>
      <trkpt lat="45.35262" lon="5.8421">
        <ele>1494.6</ele>
        <time>2022-04-03T13:21:13Z</time>
      </trkpt>
      <trkpt lat="45.35272" lon="5.84217">
        <ele>1496</ele>
        <time>2022-04-03T13:21:24Z</time>
      </trkpt>
      <trkpt lat="45.35272" lon="5.84217">
        <ele>1497.2</ele>
        <time>2022-04-03T13:21:25Z</time>
      </trkpt>
      <trkpt lat="45.35274" lon="5.84219">
        <ele>1497.8</ele>
        <time>2022-04-03T13:21:27Z</time>
      </trkpt>
      <trkpt lat="45.35276" lon="5.84223">
        <ele>1498.4</ele>
        <time>2022-04-03T13:21:31Z</time>
      </trkpt>
      <trkpt lat="45.35278" lon="5.84226">
        <ele>1499.4</ele>
        <time>2022-04-03T13:21:34Z</time>
      </trkpt>
      <trkpt lat="45.3528" lon="5.8423">
        <ele>1500.6</ele>
        <time>2022-04-03T13:21:38Z</time>
      </trkpt>
      <trkpt lat="45.35281" lon="5.84232">
        <ele>1501.4</ele>
        <time>2022-04-03T13:21:40Z</time>
      </trkpt>
      <trkpt lat="45.35282" lon="5.84232">
        <ele>1501.8</ele>
        <time>2022-04-03T13:21:41Z</time>
      </trkpt>
      <trkpt lat="45.35283" lon="5.84234">
        <ele>1503.2</ele>
        <time>2022-04-03T13:21:43Z</time>
      </trkpt>
      <trkpt lat="45.35285" lon="5.84236">
        <ele>1504.8</ele>
        <time>2022-04-03T13:21:45Z</time>
      </trkpt>
      <trkpt lat="45.35289" lon="5.8424">
        <ele>1506</ele>
        <time>2022-04-03T13:21:50Z</time>
      </trkpt>
      <trkpt lat="45.35294" lon="5.84245">
        <ele>1507</ele>
        <time>2022-04-03T13:21:55Z</time>
      </trkpt>
      <trkpt lat="45.35303" lon="5.84261">
        <ele>1507.6</ele>
        <time>2022-04-03T13:22:09Z</time>
      </trkpt>
      <trkpt lat="45.35304" lon="5.84263">
        <ele>1508.2</ele>
        <time>2022-04-03T13:22:11Z</time>
      </trkpt>
      <trkpt lat="45.35308" lon="5.8427">
        <ele>1509.2</ele>
        <time>2022-04-03T13:22:17Z</time>
      </trkpt>
      <trkpt lat="45.3531" lon="5.84278">
        <ele>1510</ele>
        <time>2022-04-03T13:22:23Z</time>
      </trkpt>
      <trkpt lat="45.35311" lon="5.8428">
        <ele>1510.4</ele>
        <time>2022-04-03T13:22:25Z</time>
      </trkpt>
      <trkpt lat="45.35313" lon="5.84285">
        <ele>1511.4</ele>
        <time>2022-04-03T13:22:30Z</time>
      </trkpt>
      <trkpt lat="45.35319" lon="5.84289">
        <ele>1511.8</ele>
        <time>2022-04-03T13:22:35Z</time>
      </trkpt>
      <trkpt lat="45.35324" lon="5.84291">
        <ele>1512.4</ele>
        <time>2022-04-03T13:22:41Z</time>
      </trkpt>
      <trkpt lat="45.35328" lon="5.84292">
        <ele>1513.4</ele>
        <time>2022-04-03T13:22:45Z</time>
      </trkpt>
      <trkpt lat="45.35335" lon="5.84291">
        <ele>1514</ele>
        <time>2022-04-03T13:22:50Z</time>
      </trkpt>
      <trkpt lat="45.35339" lon="5.8429">
        <ele>1514.6</ele>
        <time>2022-04-03T13:22:53Z</time>
      </trkpt>
      <trkpt lat="45.35346" lon="5.84286">
        <ele>1515.8</ele>
        <time>2022-04-03T13:23:00Z</time>
      </trkpt>
      <trkpt lat="45.35348" lon="5.84286">
        <ele>1516.4</ele>
        <time>2022-04-03T13:23:02Z</time>
      </trkpt>
      <trkpt lat="45.35353" lon="5.84286">
        <ele>1516.8</ele>
        <time>2022-04-03T13:23:06Z</time>
      </trkpt>
      <trkpt lat="45.35363" lon="5.84291">
        <ele>1518</ele>
        <time>2022-04-03T13:23:16Z</time>
      </trkpt>
      <trkpt lat="45.35364" lon="5.84292">
        <ele>1518.2</ele>
        <time>2022-04-03T13:23:17Z</time>
      </trkpt>
      <trkpt lat="45.35368" lon="5.84297">
        <ele>1519</ele>
        <time>2022-04-03T13:23:22Z</time>
      </trkpt>
      <trkpt lat="45.35376" lon="5.84304">
        <ele>1520.2</ele>
        <time>2022-04-03T13:23:31Z</time>
      </trkpt>
      <trkpt lat="45.35382" lon="5.84311">
        <ele>1521.2</ele>
        <time>2022-04-03T13:23:38Z</time>
      </trkpt>
      <trkpt lat="45.35386" lon="5.84315">
        <ele>1521.8</ele>
        <time>2022-04-03T13:23:43Z</time>
      </trkpt>
      <trkpt lat="45.35387" lon="5.84315">
        <ele>1522.4</ele>
        <time>2022-04-03T13:23:44Z</time>
      </trkpt>
      <trkpt lat="45.35389" lon="5.84318">
        <ele>1523.6</ele>
        <time>2022-04-03T13:23:47Z</time>
      </trkpt>
      <trkpt lat="45.35393" lon="5.84321">
        <ele>1524.6</ele>
        <time>2022-04-03T13:23:53Z</time>
      </trkpt>
      <trkpt lat="45.35398" lon="5.84324">
        <ele>1525</ele>
        <time>2022-04-03T13:23:58Z</time>
      </trkpt>
      <trkpt lat="45.35402" lon="5.84327">
        <ele>1525.6</ele>
        <time>2022-04-03T13:24:03Z</time>
      </trkpt>
      <trkpt lat="45.35407" lon="5.84332">
        <ele>1526.8</ele>
        <time>2022-04-03T13:24:11Z</time>
      </trkpt>
      <trkpt lat="45.35409" lon="5.84334">
        <ele>1527.2</ele>
        <time>2022-04-03T13:24:13Z</time>
      </trkpt>
      <trkpt lat="45.35415" lon="5.8434">
        <ele>1527.8</ele>
        <time>2022-04-03T13:24:20Z</time>
      </trkpt>
      <trkpt lat="45.35417" lon="5.84341">
        <ele>1528</ele>
        <time>2022-04-03T13:24:22Z</time>
      </trkpt>
      <trkpt lat="45.3542" lon="5.84344">
        <ele>1528</ele>
        <time>2022-04-03T13:24:25Z</time>
      </trkpt>
      <trkpt lat="45.3543" lon="5.84358">
        <ele>1528.4</ele>
        <time>2022-04-03T13:24:39Z</time>
      </trkpt>
      <trkpt lat="45.35431" lon="5.84362">
        <ele>1529.2</ele>
        <time>2022-04-03T13:24:42Z</time>
      </trkpt>
      <trkpt lat="45.3543" lon="5.84369">
        <ele>1530.2</ele>
        <time>2022-04-03T13:24:48Z</time>
      </trkpt>
      <trkpt lat="45.35427" lon="5.84369">
        <ele>1531</ele>
        <time>2022-04-03T13:24:51Z</time>
      </trkpt>
      <trkpt lat="45.35426" lon="5.8437">
        <ele>1531.4</ele>
        <time>2022-04-03T13:24:52Z</time>
      </trkpt>
      <trkpt lat="45.35421" lon="5.84369">
        <ele>1532</ele>
        <time>2022-04-03T13:24:56Z</time>
      </trkpt>
      <trkpt lat="45.35416" lon="5.84367">
        <ele>1532.6</ele>
        <time>2022-04-03T13:25:01Z</time>
      </trkpt>
      <trkpt lat="45.35408" lon="5.84364">
        <ele>1531.8</ele>
        <time>2022-04-03T13:25:07Z</time>
      </trkpt>
      <trkpt lat="45.35401" lon="5.84359">
        <ele>1531.6</ele>
        <time>2022-04-03T13:25:14Z</time>
      </trkpt>
      <trkpt lat="45.35394" lon="5.84354">
        <ele>1532</ele>
        <time>2022-04-03T13:25:21Z</time>
      </trkpt>
      <trkpt lat="45.35381" lon="5.8435">
        <ele>1530.4</ele>
        <time>2022-04-03T13:25:33Z</time>
      </trkpt>
      <trkpt lat="45.35379" lon="5.8435">
        <ele>1529.8</ele>
        <time>2022-04-03T13:25:35Z</time>
      </trkpt>
      <trkpt lat="45.35375" lon="5.8435">
        <ele>1529.2</ele>
        <time>2022-04-03T13:25:40Z</time>
      </trkpt>
      <trkpt lat="45.35367" lon="5.84354">
        <ele>1529</ele>
        <time>2022-04-03T13:25:48Z</time>
      </trkpt>
      <trkpt lat="45.35361" lon="5.8436">
        <ele>1530.8</ele>
        <time>2022-04-03T13:25:57Z</time>
      </trkpt>
      <trkpt lat="45.35359" lon="5.84362">
        <ele>1532.4</ele>
        <time>2022-04-03T13:25:59Z</time>
      </trkpt>
      <trkpt lat="45.35358" lon="5.84362">
        <ele>1533.6</ele>
        <time>2022-04-03T13:26:00Z</time>
      </trkpt>
      <trkpt lat="45.35357" lon="5.84363">
        <ele>1534.8</ele>
        <time>2022-04-03T13:26:01Z</time>
      </trkpt>
      <trkpt lat="45.35357" lon="5.84365">
        <ele>1535.4</ele>
        <time>2022-04-03T13:26:02Z</time>
      </trkpt>
      <trkpt lat="45.35356" lon="5.84365">
        <ele>1536.4</ele>
        <time>2022-04-03T13:26:03Z</time>
      </trkpt>
      <trkpt lat="45.35355" lon="5.84366">
        <ele>1537.6</ele>
        <time>2022-04-03T13:26:04Z</time>
      </trkpt>
      <trkpt lat="45.35353" lon="5.84367">
        <ele>1538.6</ele>
        <time>2022-04-03T13:26:06Z</time>
      </trkpt>
      <trkpt lat="45.35351" lon="5.84368">
        <ele>1540.6</ele>
        <time>2022-04-03T13:26:08Z</time>
      </trkpt>
      <trkpt lat="45.35344" lon="5.8437">
        <ele>1542.4</ele>
        <time>2022-04-03T13:26:14Z</time>
      </trkpt>
      <trkpt lat="45.35343" lon="5.84371">
        <ele>1545</ele>
        <time>2022-04-03T13:26:15Z</time>
      </trkpt>
      <trkpt lat="45.35342" lon="5.84372">
        <ele>1546</ele>
        <time>2022-04-03T13:26:16Z</time>
      </trkpt>
      <trkpt lat="45.35342" lon="5.84372">
        <ele>1547.2</ele>
        <time>2022-04-03T13:26:17Z</time>
      </trkpt>
      <trkpt lat="45.35341" lon="5.84373">
        <ele>1549.4</ele>
        <time>2022-04-03T13:26:19Z</time>
      </trkpt>
      <trkpt lat="45.35339" lon="5.84374">
        <ele>1551.2</ele>
        <time>2022-04-03T13:26:21Z</time>
      </trkpt>
      <trkpt lat="45.35338" lon="5.84374">
        <ele>1552.2</ele>
        <time>2022-04-03T13:26:22Z</time>
      </trkpt>
      <trkpt lat="45.35338" lon="5.84374">
        <ele>1553.2</ele>
        <time>2022-04-03T13:26:23Z</time>
      </trkpt>
      <trkpt lat="45.35337" lon="5.84374">
        <ele>1554.6</ele>
        <time>2022-04-03T13:26:24Z</time>
      </trkpt>
      <trkpt lat="45.35337" lon="5.84374">
        <ele>1556</ele>
        <time>2022-04-03T13:26:25Z</time>
      </trkpt>
      <trkpt lat="45.35335" lon="5.84375">
        <ele>1557.4</ele>
        <time>2022-04-03T13:26:27Z</time>
      </trkpt>
      <trkpt lat="45.35333" lon="5.84376">
        <ele>1559.6</ele>
        <time>2022-04-03T13:26:29Z</time>
      </trkpt>
      <trkpt lat="45.35332" lon="5.84377">
        <ele>1560.6</ele>
        <time>2022-04-03T13:26:30Z</time>
      </trkpt>
      <trkpt lat="45.3533" lon="5.84378">
        <ele>1562</ele>
        <time>2022-04-03T13:26:31Z</time>
      </trkpt>
      <trkpt lat="45.35329" lon="5.84379">
        <ele>1563.2</ele>
        <time>2022-04-03T13:26:32Z</time>
      </trkpt>
      <trkpt lat="45.35326" lon="5.84381">
        <ele>1564.8</ele>
        <time>2022-04-03T13:26:34Z</time>
      </trkpt>
      <trkpt lat="45.35326" lon="5.84382">
        <ele>1566.2</ele>
        <time>2022-04-03T13:26:35Z</time>
      </trkpt>
      <trkpt lat="45.3532" lon="5.84387">
        <ele>1567.8</ele>
        <time>2022-04-03T13:26:40Z</time>
      </trkpt>
      <trkpt lat="45.35316" lon="5.8439">
        <ele>1569</ele>
        <time>2022-04-03T13:26:45Z</time>
      </trkpt>
      <trkpt lat="45.35314" lon="5.84391">
        <ele>1569.2</ele>
        <time>2022-04-03T13:26:48Z</time>
      </trkpt>
      <trkpt lat="45.35306" lon="5.84397">
        <ele>1570.4</ele>
        <time>2022-04-03T13:26:56Z</time>
      </trkpt>
      <trkpt lat="45.35298" lon="5.844">
        <ele>1570.8</ele>
        <time>2022-04-03T13:27:04Z</time>
      </trkpt>
      <trkpt lat="45.35287" lon="5.84404">
        <ele>1572.2</ele>
        <time>2022-04-03T13:27:13Z</time>
      </trkpt>
      <trkpt lat="45.35284" lon="5.84405">
        <ele>1573.8</ele>
        <time>2022-04-03T13:27:15Z</time>
      </trkpt>
      <trkpt lat="45.35283" lon="5.84405">
        <ele>1573.4</ele>
        <time>2022-04-03T13:27:16Z</time>
      </trkpt>
      <trkpt lat="45.35279" lon="5.84405">
        <ele>1575.2</ele>
        <time>2022-04-03T13:27:20Z</time>
      </trkpt>
      <trkpt lat="45.35277" lon="5.84406">
        <ele>1576.6</ele>
        <time>2022-04-03T13:27:22Z</time>
      </trkpt>
      <trkpt lat="45.35275" lon="5.84405">
        <ele>1578.6</ele>
        <time>2022-04-03T13:27:24Z</time>
      </trkpt>
      <trkpt lat="45.35274" lon="5.84405">
        <ele>1579.6</ele>
        <time>2022-04-03T13:27:25Z</time>
      </trkpt>
      <trkpt lat="45.35272" lon="5.84406">
        <ele>1581.8</ele>
        <time>2022-04-03T13:27:27Z</time>
      </trkpt>
      <trkpt lat="45.3527" lon="5.84406">
        <ele>1582.8</ele>
        <time>2022-04-03T13:27:28Z</time>
      </trkpt>
      <trkpt lat="45.3527" lon="5.84406">
        <ele>1584.2</ele>
        <time>2022-04-03T13:27:29Z</time>
      </trkpt>
      <trkpt lat="45.35268" lon="5.84406">
        <ele>1585.4</ele>
        <time>2022-04-03T13:27:30Z</time>
      </trkpt>
      <trkpt lat="45.35267" lon="5.84406">
        <ele>1585.8</ele>
        <time>2022-04-03T13:27:31Z</time>
      </trkpt>
      <trkpt lat="45.35266" lon="5.84407">
        <ele>1586.6</ele>
        <time>2022-04-03T13:27:32Z</time>
      </trkpt>
      <trkpt lat="45.35254" lon="5.84412">
        <ele>1586.6</ele>
        <time>2022-04-03T13:27:45Z</time>
      </trkpt>
      <trkpt lat="45.3525" lon="5.84414">
        <ele>1585.4</ele>
        <time>2022-04-03T13:27:49Z</time>
      </trkpt>
      <trkpt lat="45.35238" lon="5.84416">
        <ele>1585.4</ele>
        <time>2022-04-03T13:27:58Z</time>
      </trkpt>
      <trkpt lat="45.3523" lon="5.84416">
        <ele>1586.4</ele>
        <time>2022-04-03T13:28:05Z</time>
      </trkpt>
      <trkpt lat="45.35223" lon="5.84415">
        <ele>1587.2</ele>
        <time>2022-04-03T13:28:13Z</time>
      </trkpt>
      <trkpt lat="45.35218" lon="5.84415">
        <ele>1587.8</ele>
        <time>2022-04-03T13:28:16Z</time>
      </trkpt>
      <trkpt lat="45.35214" lon="5.84415">
        <ele>1588.8</ele>
        <time>2022-04-03T13:28:19Z</time>
      </trkpt>
      <trkpt lat="45.35207" lon="5.84413">
        <ele>1589.8</ele>
        <time>2022-04-03T13:28:26Z</time>
      </trkpt>
      <trkpt lat="45.35206" lon="5.84413">
        <ele>1589.8</ele>
        <time>2022-04-03T13:28:27Z</time>
      </trkpt>
      <trkpt lat="45.35193" lon="5.84414">
        <ele>1591</ele>
        <time>2022-04-03T13:28:38Z</time>
      </trkpt>
      <trkpt lat="45.35192" lon="5.84413">
        <ele>1591.2</ele>
        <time>2022-04-03T13:28:39Z</time>
      </trkpt>
      <trkpt lat="45.35188" lon="5.84412">
        <ele>1592</ele>
        <time>2022-04-03T13:28:42Z</time>
      </trkpt>
      <trkpt lat="45.35181" lon="5.84411">
        <ele>1593.2</ele>
        <time>2022-04-03T13:28:48Z</time>
      </trkpt>
      <trkpt lat="45.35177" lon="5.84414">
        <ele>1594</ele>
        <time>2022-04-03T13:28:53Z</time>
      </trkpt>
      <trkpt lat="45.35174" lon="5.84415">
        <ele>1594.2</ele>
        <time>2022-04-03T13:28:55Z</time>
      </trkpt>
      <trkpt lat="45.3516" lon="5.84421">
        <ele>1595</ele>
        <time>2022-04-03T13:29:08Z</time>
      </trkpt>
      <trkpt lat="45.35144" lon="5.84429">
        <ele>1592.8</ele>
        <time>2022-04-03T13:29:22Z</time>
      </trkpt>
      <trkpt lat="45.35143" lon="5.84429">
        <ele>1592.6</ele>
        <time>2022-04-03T13:29:23Z</time>
      </trkpt>
      <trkpt lat="45.3514" lon="5.84431">
        <ele>1594.4</ele>
        <time>2022-04-03T13:29:26Z</time>
      </trkpt>
      <trkpt lat="45.35138" lon="5.84432">
        <ele>1596</ele>
        <time>2022-04-03T13:29:28Z</time>
      </trkpt>
      <trkpt lat="45.35128" lon="5.84437">
        <ele>1595.4</ele>
        <time>2022-04-03T13:29:38Z</time>
      </trkpt>
      <trkpt lat="45.35124" lon="5.84435">
        <ele>1597.2</ele>
        <time>2022-04-03T13:29:43Z</time>
      </trkpt>
      <trkpt lat="45.35122" lon="5.84435">
        <ele>1598.2</ele>
        <time>2022-04-03T13:29:45Z</time>
      </trkpt>
      <trkpt lat="45.35119" lon="5.84436">
        <ele>1599.4</ele>
        <time>2022-04-03T13:29:48Z</time>
      </trkpt>
      <trkpt lat="45.35114" lon="5.84437">
        <ele>1600.4</ele>
        <time>2022-04-03T13:29:52Z</time>
      </trkpt>
      <trkpt lat="45.35112" lon="5.84437">
        <ele>1600.2</ele>
        <time>2022-04-03T13:29:53Z</time>
      </trkpt>
      <trkpt lat="45.351" lon="5.84441">
        <ele>1599.8</ele>
        <time>2022-04-03T13:30:05Z</time>
      </trkpt>
      <trkpt lat="45.35098" lon="5.84441">
        <ele>1601.8</ele>
        <time>2022-04-03T13:30:08Z</time>
      </trkpt>
      <trkpt lat="45.35096" lon="5.84441">
        <ele>1602.8</ele>
        <time>2022-04-03T13:30:09Z</time>
      </trkpt>
      <trkpt lat="45.35096" lon="5.84441">
        <ele>1604.2</ele>
        <time>2022-04-03T13:30:10Z</time>
      </trkpt>
      <trkpt lat="45.35095" lon="5.84441">
        <ele>1605.6</ele>
        <time>2022-04-03T13:30:11Z</time>
      </trkpt>
      <trkpt lat="45.35094" lon="5.84441">
        <ele>1606.6</ele>
        <time>2022-04-03T13:30:12Z</time>
      </trkpt>
      <trkpt lat="45.35093" lon="5.84441">
        <ele>1608.2</ele>
        <time>2022-04-03T13:30:14Z</time>
      </trkpt>
      <trkpt lat="45.35091" lon="5.84441">
        <ele>1609.6</ele>
        <time>2022-04-03T13:30:16Z</time>
      </trkpt>
      <trkpt lat="45.35091" lon="5.84442">
        <ele>1611.2</ele>
        <time>2022-04-03T13:30:18Z</time>
      </trkpt>
      <trkpt lat="45.3509" lon="5.84444">
        <ele>1612.6</ele>
        <time>2022-04-03T13:30:22Z</time>
      </trkpt>
      <trkpt lat="45.35089" lon="5.84448">
        <ele>1613</ele>
        <time>2022-04-03T13:30:27Z</time>
      </trkpt>
      <trkpt lat="45.35086" lon="5.84461">
        <ele>1613.2</ele>
        <time>2022-04-03T13:30:41Z</time>
      </trkpt>
      <trkpt lat="45.35085" lon="5.84463">
        <ele>1613.8</ele>
        <time>2022-04-03T13:30:44Z</time>
      </trkpt>
      <trkpt lat="45.35083" lon="5.84472">
        <ele>1615</ele>
        <time>2022-04-03T13:30:54Z</time>
      </trkpt>
      <trkpt lat="45.35081" lon="5.84478">
        <ele>1616.2</ele>
        <time>2022-04-03T13:31:01Z</time>
      </trkpt>
      <trkpt lat="45.3508" lon="5.84485">
        <ele>1616.6</ele>
        <time>2022-04-03T13:31:09Z</time>
      </trkpt>
      <trkpt lat="45.35081" lon="5.84488">
        <ele>1617.4</ele>
        <time>2022-04-03T13:31:12Z</time>
      </trkpt>
      <trkpt lat="45.35081" lon="5.8449">
        <ele>1617.8</ele>
        <time>2022-04-03T13:31:13Z</time>
      </trkpt>
      <trkpt lat="45.3508" lon="5.84496">
        <ele>1618.6</ele>
        <time>2022-04-03T13:31:18Z</time>
      </trkpt>
      <trkpt lat="45.3508" lon="5.84497">
        <ele>1618.6</ele>
        <time>2022-04-03T13:31:19Z</time>
      </trkpt>
      <trkpt lat="45.3508" lon="5.84499">
        <ele>1618.8</ele>
        <time>2022-04-03T13:31:20Z</time>
      </trkpt>
      <trkpt lat="45.35077" lon="5.84518">
        <ele>1619.8</ele>
        <time>2022-04-03T13:31:32Z</time>
      </trkpt>
      <trkpt lat="45.35076" lon="5.8452">
        <ele>1620</ele>
        <time>2022-04-03T13:31:33Z</time>
      </trkpt>
      <trkpt lat="45.35074" lon="5.84535">
        <ele>1621</ele>
        <time>2022-04-03T13:31:43Z</time>
      </trkpt>
      <trkpt lat="45.35073" lon="5.84539">
        <ele>1621.6</ele>
        <time>2022-04-03T13:31:46Z</time>
      </trkpt>
      <trkpt lat="45.3507" lon="5.84551">
        <ele>1622.2</ele>
        <time>2022-04-03T13:31:54Z</time>
      </trkpt>
      <trkpt lat="45.35069" lon="5.84556">
        <ele>1622.6</ele>
        <time>2022-04-03T13:31:59Z</time>
      </trkpt>
      <trkpt lat="45.3507" lon="5.84564">
        <ele>1623.4</ele>
        <time>2022-04-03T13:32:06Z</time>
      </trkpt>
      <trkpt lat="45.35071" lon="5.84567">
        <ele>1624</ele>
        <time>2022-04-03T13:32:08Z</time>
      </trkpt>
      <trkpt lat="45.35072" lon="5.84568">
        <ele>1624.4</ele>
        <time>2022-04-03T13:32:09Z</time>
      </trkpt>
      <trkpt lat="45.35072" lon="5.84571">
        <ele>1625</ele>
        <time>2022-04-03T13:32:11Z</time>
      </trkpt>
      <trkpt lat="45.35073" lon="5.84575">
        <ele>1625.6</ele>
        <time>2022-04-03T13:32:14Z</time>
      </trkpt>
      <trkpt lat="45.35074" lon="5.8458">
        <ele>1626.8</ele>
        <time>2022-04-03T13:32:19Z</time>
      </trkpt>
      <trkpt lat="45.35075" lon="5.84585">
        <ele>1627.6</ele>
        <time>2022-04-03T13:32:24Z</time>
      </trkpt>
      <trkpt lat="45.35076" lon="5.84588">
        <ele>1628</ele>
        <time>2022-04-03T13:32:27Z</time>
      </trkpt>
      <trkpt lat="45.35078" lon="5.8459">
        <ele>1629.2</ele>
        <time>2022-04-03T13:32:31Z</time>
      </trkpt>
      <trkpt lat="45.3508" lon="5.84593">
        <ele>1629.6</ele>
        <time>2022-04-03T13:32:35Z</time>
      </trkpt>
      <trkpt lat="45.35081" lon="5.84597">
        <ele>1630.2</ele>
        <time>2022-04-03T13:32:39Z</time>
      </trkpt>
      <trkpt lat="45.35085" lon="5.84604">
        <ele>1631.2</ele>
        <time>2022-04-03T13:32:47Z</time>
      </trkpt>
      <trkpt lat="45.35086" lon="5.84604">
        <ele>1631.4</ele>
        <time>2022-04-03T13:32:48Z</time>
      </trkpt>
      <trkpt lat="45.35093" lon="5.84613">
        <ele>1632</ele>
        <time>2022-04-03T13:33:01Z</time>
      </trkpt>
      <trkpt lat="45.35094" lon="5.84614">
        <ele>1633.2</ele>
        <time>2022-04-03T13:33:02Z</time>
      </trkpt>
      <trkpt lat="45.35094" lon="5.84615">
        <ele>1634.6</ele>
        <time>2022-04-03T13:33:03Z</time>
      </trkpt>
      <trkpt lat="45.35095" lon="5.84617">
        <ele>1635.8</ele>
        <time>2022-04-03T13:33:05Z</time>
      </trkpt>
      <trkpt lat="45.35096" lon="5.84621">
        <ele>1636.8</ele>
        <time>2022-04-03T13:33:10Z</time>
      </trkpt>
      <trkpt lat="45.35097" lon="5.84624">
        <ele>1637.2</ele>
        <time>2022-04-03T13:33:13Z</time>
      </trkpt>
      <trkpt lat="45.35097" lon="5.84625">
        <ele>1638</ele>
        <time>2022-04-03T13:33:14Z</time>
      </trkpt>
      <trkpt lat="45.35098" lon="5.84626">
        <ele>1639.2</ele>
        <time>2022-04-03T13:33:17Z</time>
      </trkpt>
      <trkpt lat="45.35099" lon="5.84629">
        <ele>1639.8</ele>
        <time>2022-04-03T13:33:23Z</time>
      </trkpt>
      <trkpt lat="45.35101" lon="5.84631">
        <ele>1640.2</ele>
        <time>2022-04-03T13:33:26Z</time>
      </trkpt>
      <trkpt lat="45.35102" lon="5.84634">
        <ele>1640.8</ele>
        <time>2022-04-03T13:33:28Z</time>
      </trkpt>
      <trkpt lat="45.35103" lon="5.84641">
        <ele>1641.2</ele>
        <time>2022-04-03T13:33:33Z</time>
      </trkpt>
      <trkpt lat="45.35104" lon="5.84643">
        <ele>1641.6</ele>
        <time>2022-04-03T13:33:34Z</time>
      </trkpt>
      <trkpt lat="45.35106" lon="5.84648">
        <ele>1642.8</ele>
        <time>2022-04-03T13:33:40Z</time>
      </trkpt>
      <trkpt lat="45.35107" lon="5.84652">
        <ele>1643.6</ele>
        <time>2022-04-03T13:33:45Z</time>
      </trkpt>
      <trkpt lat="45.35106" lon="5.84655">
        <ele>1644</ele>
        <time>2022-04-03T13:33:47Z</time>
      </trkpt>
      <trkpt lat="45.35103" lon="5.84662">
        <ele>1645</ele>
        <time>2022-04-03T13:33:54Z</time>
      </trkpt>
      <trkpt lat="45.35102" lon="5.84663">
        <ele>1645.8</ele>
        <time>2022-04-03T13:33:55Z</time>
      </trkpt>
      <trkpt lat="45.35102" lon="5.84664">
        <ele>1646.2</ele>
        <time>2022-04-03T13:33:56Z</time>
      </trkpt>
      <trkpt lat="45.35099" lon="5.84669">
        <ele>1647.2</ele>
        <time>2022-04-03T13:34:02Z</time>
      </trkpt>
      <trkpt lat="45.35096" lon="5.84672">
        <ele>1648.2</ele>
        <time>2022-04-03T13:34:06Z</time>
      </trkpt>
      <trkpt lat="45.35096" lon="5.84673">
        <ele>1648.4</ele>
        <time>2022-04-03T13:34:07Z</time>
      </trkpt>
      <trkpt lat="45.35094" lon="5.84675">
        <ele>1649</ele>
        <time>2022-04-03T13:34:09Z</time>
      </trkpt>
      <trkpt lat="45.35094" lon="5.84677">
        <ele>1649.4</ele>
        <time>2022-04-03T13:34:11Z</time>
      </trkpt>
      <trkpt lat="45.35092" lon="5.84683">
        <ele>1650.4</ele>
        <time>2022-04-03T13:34:18Z</time>
      </trkpt>
      <trkpt lat="45.35094" lon="5.84687">
        <ele>1651.4</ele>
        <time>2022-04-03T13:34:24Z</time>
      </trkpt>
      <trkpt lat="45.35095" lon="5.8469">
        <ele>1652.6</ele>
        <time>2022-04-03T13:34:29Z</time>
      </trkpt>
      <trkpt lat="45.35097" lon="5.84693">
        <ele>1653.8</ele>
        <time>2022-04-03T13:34:34Z</time>
      </trkpt>
      <trkpt lat="45.35099" lon="5.84695">
        <ele>1654.8</ele>
        <time>2022-04-03T13:34:38Z</time>
      </trkpt>
      <trkpt lat="45.351" lon="5.84698">
        <ele>1655.4</ele>
        <time>2022-04-03T13:34:41Z</time>
      </trkpt>
      <trkpt lat="45.35101" lon="5.847">
        <ele>1655.8</ele>
        <time>2022-04-03T13:34:44Z</time>
      </trkpt>
      <trkpt lat="45.35106" lon="5.84705">
        <ele>1656.6</ele>
        <time>2022-04-03T13:34:53Z</time>
      </trkpt>
      <trkpt lat="45.35108" lon="5.84706">
        <ele>1656.8</ele>
        <time>2022-04-03T13:34:56Z</time>
      </trkpt>
      <trkpt lat="45.35109" lon="5.84706">
        <ele>1658</ele>
        <time>2022-04-03T13:34:57Z</time>
      </trkpt>
      <trkpt lat="45.3511" lon="5.84707">
        <ele>1659.2</ele>
        <time>2022-04-03T13:34:59Z</time>
      </trkpt>
      <trkpt lat="45.35111" lon="5.84708">
        <ele>1660.2</ele>
        <time>2022-04-03T13:35:02Z</time>
      </trkpt>
      <trkpt lat="45.35113" lon="5.8471">
        <ele>1661.2</ele>
        <time>2022-04-03T13:35:06Z</time>
      </trkpt>
      <trkpt lat="45.35114" lon="5.8471">
        <ele>1661.4</ele>
        <time>2022-04-03T13:35:07Z</time>
      </trkpt>
      <trkpt lat="45.35114" lon="5.84713">
        <ele>1662.4</ele>
        <time>2022-04-03T13:35:19Z</time>
      </trkpt>
      <trkpt lat="45.35119" lon="5.84719">
        <ele>1663.4</ele>
        <time>2022-04-03T13:35:30Z</time>
      </trkpt>
      <trkpt lat="45.35121" lon="5.84723">
        <ele>1664.6</ele>
        <time>2022-04-03T13:35:35Z</time>
      </trkpt>
      <trkpt lat="45.35122" lon="5.84725">
        <ele>1665.8</ele>
        <time>2022-04-03T13:35:39Z</time>
      </trkpt>
      <trkpt lat="45.35122" lon="5.84727">
        <ele>1666.2</ele>
        <time>2022-04-03T13:35:41Z</time>
      </trkpt>
      <trkpt lat="45.35123" lon="5.84729">
        <ele>1667</ele>
        <time>2022-04-03T13:35:44Z</time>
      </trkpt>
      <trkpt lat="45.35125" lon="5.84733">
        <ele>1668.2</ele>
        <time>2022-04-03T13:35:49Z</time>
      </trkpt>
      <trkpt lat="45.35128" lon="5.84737">
        <ele>1669.4</ele>
        <time>2022-04-03T13:35:55Z</time>
      </trkpt>
      <trkpt lat="45.3513" lon="5.84741">
        <ele>1670.4</ele>
        <time>2022-04-03T13:36:01Z</time>
      </trkpt>
      <trkpt lat="45.35133" lon="5.84746">
        <ele>1671.8</ele>
        <time>2022-04-03T13:36:07Z</time>
      </trkpt>
      <trkpt lat="45.35134" lon="5.84748">
        <ele>1673</ele>
        <time>2022-04-03T13:36:09Z</time>
      </trkpt>
      <trkpt lat="45.35135" lon="5.8475">
        <ele>1674.2</ele>
        <time>2022-04-03T13:36:12Z</time>
      </trkpt>
      <trkpt lat="45.35139" lon="5.84758">
        <ele>1675.2</ele>
        <time>2022-04-03T13:36:21Z</time>
      </trkpt>
      <trkpt lat="45.35141" lon="5.8476">
        <ele>1676.4</ele>
        <time>2022-04-03T13:36:24Z</time>
      </trkpt>
      <trkpt lat="45.35143" lon="5.84765">
        <ele>1677.6</ele>
        <time>2022-04-03T13:36:30Z</time>
      </trkpt>
      <trkpt lat="45.35143" lon="5.84768">
        <ele>1678.2</ele>
        <time>2022-04-03T13:36:34Z</time>
      </trkpt>
      <trkpt lat="45.35144" lon="5.8477">
        <ele>1678.6</ele>
        <time>2022-04-03T13:36:36Z</time>
      </trkpt>
      <trkpt lat="45.35145" lon="5.84773">
        <ele>1679.6</ele>
        <time>2022-04-03T13:36:40Z</time>
      </trkpt>
      <trkpt lat="45.35147" lon="5.84777">
        <ele>1680.8</ele>
        <time>2022-04-03T13:36:47Z</time>
      </trkpt>
      <trkpt lat="45.35148" lon="5.84782">
        <ele>1682</ele>
        <time>2022-04-03T13:36:52Z</time>
      </trkpt>
      <trkpt lat="45.35149" lon="5.84787">
        <ele>1683.6</ele>
        <time>2022-04-03T13:36:58Z</time>
      </trkpt>
      <trkpt lat="45.35149" lon="5.8479">
        <ele>1684.4</ele>
        <time>2022-04-03T13:37:01Z</time>
      </trkpt>
      <trkpt lat="45.3515" lon="5.84793">
        <ele>1684.6</ele>
        <time>2022-04-03T13:37:04Z</time>
      </trkpt>
      <trkpt lat="45.3515" lon="5.84796">
        <ele>1686</ele>
        <time>2022-04-03T13:37:08Z</time>
      </trkpt>
      <trkpt lat="45.3515" lon="5.84799">
        <ele>1687</ele>
        <time>2022-04-03T13:37:11Z</time>
      </trkpt>
      <trkpt lat="45.35151" lon="5.84801">
        <ele>1687.8</ele>
        <time>2022-04-03T13:37:14Z</time>
      </trkpt>
      <trkpt lat="45.35151" lon="5.84802">
        <ele>1688</ele>
        <time>2022-04-03T13:37:15Z</time>
      </trkpt>
      <trkpt lat="45.35151" lon="5.84805">
        <ele>1689.2</ele>
        <time>2022-04-03T13:37:21Z</time>
      </trkpt>
      <trkpt lat="45.3515" lon="5.84808">
        <ele>1689.8</ele>
        <time>2022-04-03T13:37:28Z</time>
      </trkpt>
      <trkpt lat="45.3515" lon="5.84811">
        <ele>1690.2</ele>
        <time>2022-04-03T13:37:39Z</time>
      </trkpt>
      <trkpt lat="45.3515" lon="5.84813">
        <ele>1690.6</ele>
        <time>2022-04-03T13:37:42Z</time>
      </trkpt>
      <trkpt lat="45.35151" lon="5.84814">
        <ele>1691.2</ele>
        <time>2022-04-03T13:37:44Z</time>
      </trkpt>
      <trkpt lat="45.35152" lon="5.84819">
        <ele>1692.4</ele>
        <time>2022-04-03T13:37:53Z</time>
      </trkpt>
      <trkpt lat="45.35153" lon="5.8482">
        <ele>1693.8</ele>
        <time>2022-04-03T13:37:55Z</time>
      </trkpt>
      <trkpt lat="45.35155" lon="5.84822">
        <ele>1695</ele>
        <time>2022-04-03T13:37:59Z</time>
      </trkpt>
      <trkpt lat="45.35157" lon="5.84825">
        <ele>1696</ele>
        <time>2022-04-03T13:38:05Z</time>
      </trkpt>
      <trkpt lat="45.35157" lon="5.84825">
        <ele>1696</ele>
        <time>2022-04-03T13:38:06Z</time>
      </trkpt>
      <trkpt lat="45.35157" lon="5.84827">
        <ele>1697.4</ele>
        <time>2022-04-03T13:38:15Z</time>
      </trkpt>
      <trkpt lat="45.35155" lon="5.84828">
        <ele>1698.6</ele>
        <time>2022-04-03T13:38:20Z</time>
      </trkpt>
      <trkpt lat="45.35153" lon="5.84832">
        <ele>1699.4</ele>
        <time>2022-04-03T13:38:24Z</time>
      </trkpt>
      <trkpt lat="45.35152" lon="5.84832">
        <ele>1699.6</ele>
        <time>2022-04-03T13:38:25Z</time>
      </trkpt>
      <trkpt lat="45.35147" lon="5.84835">
        <ele>1700.8</ele>
        <time>2022-04-03T13:38:32Z</time>
      </trkpt>
      <trkpt lat="45.35145" lon="5.84836">
        <ele>1701</ele>
        <time>2022-04-03T13:38:34Z</time>
      </trkpt>
      <trkpt lat="45.35144" lon="5.84838">
        <ele>1701.6</ele>
        <time>2022-04-03T13:38:37Z</time>
      </trkpt>
      <trkpt lat="45.35143" lon="5.84839">
        <ele>1701.8</ele>
        <time>2022-04-03T13:38:39Z</time>
      </trkpt>
      <trkpt lat="45.35137" lon="5.84844">
        <ele>1703</ele>
        <time>2022-04-03T13:38:47Z</time>
      </trkpt>
      <trkpt lat="45.35134" lon="5.84846">
        <ele>1703.8</ele>
        <time>2022-04-03T13:38:51Z</time>
      </trkpt>
      <trkpt lat="45.35133" lon="5.84846">
        <ele>1704.2</ele>
        <time>2022-04-03T13:38:52Z</time>
      </trkpt>
      <trkpt lat="45.35129" lon="5.84849">
        <ele>1705.2</ele>
        <time>2022-04-03T13:38:57Z</time>
      </trkpt>
      <trkpt lat="45.35126" lon="5.84854">
        <ele>1706.4</ele>
        <time>2022-04-03T13:39:03Z</time>
      </trkpt>
      <trkpt lat="45.35125" lon="5.84855">
        <ele>1706.6</ele>
        <time>2022-04-03T13:39:04Z</time>
      </trkpt>
      <trkpt lat="45.35123" lon="5.84859">
        <ele>1707.6</ele>
        <time>2022-04-03T13:39:09Z</time>
      </trkpt>
      <trkpt lat="45.35122" lon="5.84861">
        <ele>1708.6</ele>
        <time>2022-04-03T13:39:13Z</time>
      </trkpt>
      <trkpt lat="45.35121" lon="5.84862">
        <ele>1709.2</ele>
        <time>2022-04-03T13:39:16Z</time>
      </trkpt>
      <trkpt lat="45.3512" lon="5.84864">
        <ele>1710</ele>
        <time>2022-04-03T13:39:19Z</time>
      </trkpt>
      <trkpt lat="45.35118" lon="5.84868">
        <ele>1711</ele>
        <time>2022-04-03T13:39:24Z</time>
      </trkpt>
      <trkpt lat="45.35116" lon="5.8487">
        <ele>1712</ele>
        <time>2022-04-03T13:39:28Z</time>
      </trkpt>
      <trkpt lat="45.35114" lon="5.84873">
        <ele>1713.2</ele>
        <time>2022-04-03T13:39:33Z</time>
      </trkpt>
      <trkpt lat="45.35111" lon="5.84878">
        <ele>1714.4</ele>
        <time>2022-04-03T13:39:40Z</time>
      </trkpt>
      <trkpt lat="45.35111" lon="5.84881">
        <ele>1715.4</ele>
        <time>2022-04-03T13:39:44Z</time>
      </trkpt>
      <trkpt lat="45.35114" lon="5.84884">
        <ele>1716.4</ele>
        <time>2022-04-03T13:39:50Z</time>
      </trkpt>
      <trkpt lat="45.35115" lon="5.84884">
        <ele>1716.6</ele>
        <time>2022-04-03T13:39:51Z</time>
      </trkpt>
      <trkpt lat="45.35119" lon="5.84887">
        <ele>1717.4</ele>
        <time>2022-04-03T13:39:58Z</time>
      </trkpt>
      <trkpt lat="45.3512" lon="5.84888">
        <ele>1718.4</ele>
        <time>2022-04-03T13:40:00Z</time>
      </trkpt>
      <trkpt lat="45.35122" lon="5.84889">
        <ele>1719.2</ele>
        <time>2022-04-03T13:40:03Z</time>
      </trkpt>
      <trkpt lat="45.35123" lon="5.84889">
        <ele>1719.4</ele>
        <time>2022-04-03T13:40:04Z</time>
      </trkpt>
      <trkpt lat="45.35129" lon="5.84891">
        <ele>1720.8</ele>
        <time>2022-04-03T13:40:12Z</time>
      </trkpt>
      <trkpt lat="45.35131" lon="5.84893">
        <ele>1721.2</ele>
        <time>2022-04-03T13:40:15Z</time>
      </trkpt>
      <trkpt lat="45.35133" lon="5.84895">
        <ele>1721.8</ele>
        <time>2022-04-03T13:40:18Z</time>
      </trkpt>
      <trkpt lat="45.35134" lon="5.84897">
        <ele>1723</ele>
        <time>2022-04-03T13:40:26Z</time>
      </trkpt>
      <trkpt lat="45.35136" lon="5.84898">
        <ele>1724</ele>
        <time>2022-04-03T13:40:32Z</time>
      </trkpt>
      <trkpt lat="45.3514" lon="5.849">
        <ele>1724.6</ele>
        <time>2022-04-03T13:40:38Z</time>
      </trkpt>
      <trkpt lat="45.35143" lon="5.84901">
        <ele>1725</ele>
        <time>2022-04-03T13:40:41Z</time>
      </trkpt>
      <trkpt lat="45.35146" lon="5.84902">
        <ele>1725.6</ele>
        <time>2022-04-03T13:40:44Z</time>
      </trkpt>
      <trkpt lat="45.35146" lon="5.84902">
        <ele>1726</ele>
        <time>2022-04-03T13:40:45Z</time>
      </trkpt>
      <trkpt lat="45.35149" lon="5.84904">
        <ele>1727.2</ele>
        <time>2022-04-03T13:40:49Z</time>
      </trkpt>
      <trkpt lat="45.3515" lon="5.84905">
        <ele>1727.6</ele>
        <time>2022-04-03T13:40:50Z</time>
      </trkpt>
      <trkpt lat="45.35153" lon="5.84907">
        <ele>1728.2</ele>
        <time>2022-04-03T13:40:55Z</time>
      </trkpt>
      <trkpt lat="45.35156" lon="5.8491">
        <ele>1729.4</ele>
        <time>2022-04-03T13:41:00Z</time>
      </trkpt>
      <trkpt lat="45.35157" lon="5.84912">
        <ele>1729.8</ele>
        <time>2022-04-03T13:41:03Z</time>
      </trkpt>
      <trkpt lat="45.35159" lon="5.84916">
        <ele>1730.6</ele>
        <time>2022-04-03T13:41:07Z</time>
      </trkpt>
      <trkpt lat="45.3516" lon="5.84922">
        <ele>1731.8</ele>
        <time>2022-04-03T13:41:12Z</time>
      </trkpt>
      <trkpt lat="45.3516" lon="5.84924">
        <ele>1732.2</ele>
        <time>2022-04-03T13:41:14Z</time>
      </trkpt>
      <trkpt lat="45.35161" lon="5.84927">
        <ele>1732.8</ele>
        <time>2022-04-03T13:41:17Z</time>
      </trkpt>
      <trkpt lat="45.35163" lon="5.84934">
        <ele>1734.2</ele>
        <time>2022-04-03T13:41:23Z</time>
      </trkpt>
      <trkpt lat="45.35163" lon="5.84936">
        <ele>1735</ele>
        <time>2022-04-03T13:41:25Z</time>
      </trkpt>
      <trkpt lat="45.35163" lon="5.84939">
        <ele>1735.4</ele>
        <time>2022-04-03T13:41:28Z</time>
      </trkpt>
      <trkpt lat="45.35164" lon="5.84945">
        <ele>1736.4</ele>
        <time>2022-04-03T13:41:33Z</time>
      </trkpt>
      <trkpt lat="45.35164" lon="5.8495">
        <ele>1737.2</ele>
        <time>2022-04-03T13:41:37Z</time>
      </trkpt>
      <trkpt lat="45.35164" lon="5.84951">
        <ele>1737.6</ele>
        <time>2022-04-03T13:41:38Z</time>
      </trkpt>
      <trkpt lat="45.35165" lon="5.84958">
        <ele>1738.6</ele>
        <time>2022-04-03T13:41:44Z</time>
      </trkpt>
      <trkpt lat="45.35165" lon="5.84963">
        <ele>1739.8</ele>
        <time>2022-04-03T13:41:49Z</time>
      </trkpt>
      <trkpt lat="45.35165" lon="5.84967">
        <ele>1740.8</ele>
        <time>2022-04-03T13:41:53Z</time>
      </trkpt>
      <trkpt lat="45.35166" lon="5.84971">
        <ele>1741.8</ele>
        <time>2022-04-03T13:41:58Z</time>
      </trkpt>
      <trkpt lat="45.35166" lon="5.84972">
        <ele>1742.8</ele>
        <time>2022-04-03T13:42:00Z</time>
      </trkpt>
      <trkpt lat="45.35166" lon="5.84973">
        <ele>1743</ele>
        <time>2022-04-03T13:42:01Z</time>
      </trkpt>
      <trkpt lat="45.35166" lon="5.84977">
        <ele>1744.2</ele>
        <time>2022-04-03T13:42:06Z</time>
      </trkpt>
      <trkpt lat="45.35166" lon="5.84981">
        <ele>1745.2</ele>
        <time>2022-04-03T13:42:10Z</time>
      </trkpt>
      <trkpt lat="45.35166" lon="5.84983">
        <ele>1746.2</ele>
        <time>2022-04-03T13:42:13Z</time>
      </trkpt>
      <trkpt lat="45.35168" lon="5.84988">
        <ele>1747.4</ele>
        <time>2022-04-03T13:42:19Z</time>
      </trkpt>
      <trkpt lat="45.35168" lon="5.84993">
        <ele>1748.8</ele>
        <time>2022-04-03T13:42:24Z</time>
      </trkpt>
      <trkpt lat="45.35168" lon="5.84995">
        <ele>1749.8</ele>
        <time>2022-04-03T13:42:27Z</time>
      </trkpt>
      <trkpt lat="45.35168" lon="5.84996">
        <ele>1750</ele>
        <time>2022-04-03T13:42:28Z</time>
      </trkpt>
      <trkpt lat="45.35167" lon="5.85001">
        <ele>1751.2</ele>
        <time>2022-04-03T13:42:34Z</time>
      </trkpt>
      <trkpt lat="45.35167" lon="5.85002">
        <ele>1752.2</ele>
        <time>2022-04-03T13:42:37Z</time>
      </trkpt>
      <trkpt lat="45.35167" lon="5.85001">
        <ele>1752.4</ele>
        <time>2022-04-03T13:42:39Z</time>
      </trkpt>
      <trkpt lat="45.35163" lon="5.85005">
        <ele>1752.8</ele>
        <time>2022-04-03T13:42:49Z</time>
      </trkpt>
      <trkpt lat="45.35162" lon="5.85005">
        <ele>1753.2</ele>
        <time>2022-04-03T13:42:50Z</time>
      </trkpt>
      <trkpt lat="45.35161" lon="5.85006">
        <ele>1754.4</ele>
        <time>2022-04-03T13:42:53Z</time>
      </trkpt>
      <trkpt lat="45.35158" lon="5.85011">
        <ele>1755.2</ele>
        <time>2022-04-03T13:43:01Z</time>
      </trkpt>
      <trkpt lat="45.35159" lon="5.85012">
        <ele>1755.8</ele>
        <time>2022-04-03T13:43:03Z</time>
      </trkpt>
      <trkpt lat="45.35161" lon="5.85015">
        <ele>1756.8</ele>
        <time>2022-04-03T13:43:08Z</time>
      </trkpt>
      <trkpt lat="45.35162" lon="5.85016">
        <ele>1757</ele>
        <time>2022-04-03T13:43:10Z</time>
      </trkpt>
      <trkpt lat="45.35161" lon="5.85019">
        <ele>1758</ele>
        <time>2022-04-03T13:43:14Z</time>
      </trkpt>
      <trkpt lat="45.3516" lon="5.85023">
        <ele>1759.2</ele>
        <time>2022-04-03T13:43:19Z</time>
      </trkpt>
      <trkpt lat="45.35159" lon="5.85025">
        <ele>1759.4</ele>
        <time>2022-04-03T13:43:20Z</time>
      </trkpt>
      <trkpt lat="45.35157" lon="5.85027">
        <ele>1760.2</ele>
        <time>2022-04-03T13:43:24Z</time>
      </trkpt>
      <trkpt lat="45.35156" lon="5.85029">
        <ele>1761.4</ele>
        <time>2022-04-03T13:43:28Z</time>
      </trkpt>
      <trkpt lat="45.35154" lon="5.85031">
        <ele>1761.8</ele>
        <time>2022-04-03T13:43:31Z</time>
      </trkpt>
      <trkpt lat="45.35153" lon="5.85033">
        <ele>1762.6</ele>
        <time>2022-04-03T13:43:34Z</time>
      </trkpt>
      <trkpt lat="45.3515" lon="5.85037">
        <ele>1763.8</ele>
        <time>2022-04-03T13:43:39Z</time>
      </trkpt>
      <trkpt lat="45.35148" lon="5.85039">
        <ele>1764.8</ele>
        <time>2022-04-03T13:43:43Z</time>
      </trkpt>
      <trkpt lat="45.35148" lon="5.8504">
        <ele>1765.2</ele>
        <time>2022-04-03T13:43:44Z</time>
      </trkpt>
      <trkpt lat="45.35148" lon="5.85042">
        <ele>1766</ele>
        <time>2022-04-03T13:43:49Z</time>
      </trkpt>
      <trkpt lat="45.35148" lon="5.85042">
        <ele>1766.8</ele>
        <time>2022-04-03T13:43:54Z</time>
      </trkpt>
      <trkpt lat="45.35155" lon="5.85046">
        <ele>1767</ele>
        <time>2022-04-03T13:44:04Z</time>
      </trkpt>
      <trkpt lat="45.35156" lon="5.85047">
        <ele>1767.6</ele>
        <time>2022-04-03T13:44:05Z</time>
      </trkpt>
      <trkpt lat="45.35157" lon="5.85049">
        <ele>1768.2</ele>
        <time>2022-04-03T13:44:07Z</time>
      </trkpt>
      <trkpt lat="45.35158" lon="5.85051">
        <ele>1768.2</ele>
        <time>2022-04-03T13:44:09Z</time>
      </trkpt>
      <trkpt lat="45.35161" lon="5.85057">
        <ele>1769.2</ele>
        <time>2022-04-03T13:44:14Z</time>
      </trkpt>
      <trkpt lat="45.35161" lon="5.85061">
        <ele>1770</ele>
        <time>2022-04-03T13:44:19Z</time>
      </trkpt>
      <trkpt lat="45.35161" lon="5.85062">
        <ele>1770.2</ele>
        <time>2022-04-03T13:44:20Z</time>
      </trkpt>
      <trkpt lat="45.35159" lon="5.8507">
        <ele>1771.6</ele>
        <time>2022-04-03T13:44:27Z</time>
      </trkpt>
      <trkpt lat="45.35158" lon="5.85073">
        <ele>1772.2</ele>
        <time>2022-04-03T13:44:30Z</time>
      </trkpt>
      <trkpt lat="45.35158" lon="5.85076">
        <ele>1772.8</ele>
        <time>2022-04-03T13:44:33Z</time>
      </trkpt>
      <trkpt lat="45.35158" lon="5.85082">
        <ele>1773.8</ele>
        <time>2022-04-03T13:44:38Z</time>
      </trkpt>
      <trkpt lat="45.35156" lon="5.85086">
        <ele>1774.6</ele>
        <time>2022-04-03T13:44:42Z</time>
      </trkpt>
      <trkpt lat="45.35156" lon="5.85088">
        <ele>1775</ele>
        <time>2022-04-03T13:44:43Z</time>
      </trkpt>
      <trkpt lat="45.35155" lon="5.85095">
        <ele>1776.2</ele>
        <time>2022-04-03T13:44:49Z</time>
      </trkpt>
      <trkpt lat="45.35154" lon="5.85102">
        <ele>1777.2</ele>
        <time>2022-04-03T13:44:55Z</time>
      </trkpt>
      <trkpt lat="45.35153" lon="5.85106">
        <ele>1777.6</ele>
        <time>2022-04-03T13:44:58Z</time>
      </trkpt>
      <trkpt lat="45.35154" lon="5.85112">
        <ele>1778.2</ele>
        <time>2022-04-03T13:45:02Z</time>
      </trkpt>
      <trkpt lat="45.35156" lon="5.85119">
        <ele>1778.8</ele>
        <time>2022-04-03T13:45:08Z</time>
      </trkpt>
      <trkpt lat="45.35156" lon="5.8512">
        <ele>1779</ele>
        <time>2022-04-03T13:45:10Z</time>
      </trkpt>
      <trkpt lat="45.35157" lon="5.85121">
        <ele>1779.2</ele>
        <time>2022-04-03T13:45:12Z</time>
      </trkpt>
      <trkpt lat="45.35159" lon="5.85121">
        <ele>1779.6</ele>
        <time>2022-04-03T13:45:21Z</time>
      </trkpt>
      <trkpt lat="45.35159" lon="5.85121">
        <ele>1779.8</ele>
        <time>2022-04-03T13:45:38Z</time>
      </trkpt>
      <trkpt lat="45.35161" lon="5.85121">
        <ele>1780</ele>
        <time>2022-04-03T13:45:53Z</time>
      </trkpt>
      <trkpt lat="45.35161" lon="5.85122">
        <ele>1779.6</ele>
        <time>2022-04-03T13:46:13Z</time>
      </trkpt>
      <trkpt lat="45.35162" lon="5.85124">
        <ele>1779.6</ele>
        <time>2022-04-03T13:46:31Z</time>
      </trkpt>
      <trkpt lat="45.35162" lon="5.85125">
        <ele>1779.6</ele>
        <time>2022-04-03T13:46:54Z</time>
      </trkpt>
      <trkpt lat="45.35163" lon="5.85124">
        <ele>1779.6</ele>
        <time>2022-04-03T13:47:09Z</time>
      </trkpt>
      <trkpt lat="45.35163" lon="5.85123">
        <ele>1779.6</ele>
        <time>2022-04-03T13:47:27Z</time>
      </trkpt>
      <trkpt lat="45.35163" lon="5.85123">
        <ele>1779.6</ele>
        <time>2022-04-03T13:47:49Z</time>
      </trkpt>
      <trkpt lat="45.35161" lon="5.85125">
        <ele>1779.6</ele>
        <time>2022-04-03T13:48:08Z</time>
      </trkpt>
      <trkpt lat="45.35157" lon="5.85129">
        <ele>1779.6</ele>
        <time>2022-04-03T13:48:13Z</time>
      </trkpt>
      <trkpt lat="45.35153" lon="5.85132">
        <ele>1780.4</ele>
        <time>2022-04-03T13:48:19Z</time>
      </trkpt>
      <trkpt lat="45.3515" lon="5.85134">
        <ele>1781.6</ele>
        <time>2022-04-03T13:48:22Z</time>
      </trkpt>
      <trkpt lat="45.35147" lon="5.85134">
        <ele>1782.8</ele>
        <time>2022-04-03T13:48:26Z</time>
      </trkpt>
      <trkpt lat="45.35142" lon="5.85133">
        <ele>1783.8</ele>
        <time>2022-04-03T13:48:30Z</time>
      </trkpt>
      <trkpt lat="45.3514" lon="5.85132">
        <ele>1784.4</ele>
        <time>2022-04-03T13:48:33Z</time>
      </trkpt>
      <trkpt lat="45.35138" lon="5.85132">
        <ele>1784.8</ele>
        <time>2022-04-03T13:48:35Z</time>
      </trkpt>
      <trkpt lat="45.35134" lon="5.8513">
        <ele>1786.2</ele>
        <time>2022-04-03T13:48:39Z</time>
      </trkpt>
      <trkpt lat="45.3513" lon="5.85127">
        <ele>1787.4</ele>
        <time>2022-04-03T13:48:43Z</time>
      </trkpt>
      <trkpt lat="45.35125" lon="5.85125">
        <ele>1788.2</ele>
        <time>2022-04-03T13:48:48Z</time>
      </trkpt>
      <trkpt lat="45.35124" lon="5.85125">
        <ele>1788.4</ele>
        <time>2022-04-03T13:48:49Z</time>
      </trkpt>
      <trkpt lat="45.35119" lon="5.85123">
        <ele>1789.6</ele>
        <time>2022-04-03T13:48:53Z</time>
      </trkpt>
      <trkpt lat="45.35115" lon="5.85122">
        <ele>1790</ele>
        <time>2022-04-03T13:48:56Z</time>
      </trkpt>
      <trkpt lat="45.35111" lon="5.85121">
        <ele>1790.6</ele>
        <time>2022-04-03T13:48:59Z</time>
      </trkpt>
      <trkpt lat="45.35107" lon="5.85119">
        <ele>1791.6</ele>
        <time>2022-04-03T13:49:03Z</time>
      </trkpt>
      <trkpt lat="45.35107" lon="5.85119">
        <ele>1791.8</ele>
        <time>2022-04-03T13:49:04Z</time>
      </trkpt>
      <trkpt lat="45.35103" lon="5.85118">
        <ele>1792.8</ele>
        <time>2022-04-03T13:49:10Z</time>
      </trkpt>
      <trkpt lat="45.35097" lon="5.85118">
        <ele>1793.8</ele>
        <time>2022-04-03T13:49:17Z</time>
      </trkpt>
      <trkpt lat="45.35095" lon="5.85118">
        <ele>1794</ele>
        <time>2022-04-03T13:49:19Z</time>
      </trkpt>
      <trkpt lat="45.3509" lon="5.85119">
        <ele>1795</ele>
        <time>2022-04-03T13:49:25Z</time>
      </trkpt>
      <trkpt lat="45.35086" lon="5.85121">
        <ele>1796.4</ele>
        <time>2022-04-03T13:49:29Z</time>
      </trkpt>
      <trkpt lat="45.35083" lon="5.85123">
        <ele>1796.8</ele>
        <time>2022-04-03T13:49:31Z</time>
      </trkpt>
      <trkpt lat="45.3508" lon="5.85125">
        <ele>1797.4</ele>
        <time>2022-04-03T13:49:34Z</time>
      </trkpt>
      <trkpt lat="45.35074" lon="5.85127">
        <ele>1798.6</ele>
        <time>2022-04-03T13:49:39Z</time>
      </trkpt>
      <trkpt lat="45.35069" lon="5.85127">
        <ele>1799.6</ele>
        <time>2022-04-03T13:49:45Z</time>
      </trkpt>
      <trkpt lat="45.35063" lon="5.85125">
        <ele>1800.6</ele>
        <time>2022-04-03T13:49:52Z</time>
      </trkpt>
      <trkpt lat="45.35057" lon="5.85123">
        <ele>1801.6</ele>
        <time>2022-04-03T13:49:58Z</time>
      </trkpt>
      <trkpt lat="45.35056" lon="5.85123">
        <ele>1801.6</ele>
        <time>2022-04-03T13:49:59Z</time>
      </trkpt>
      <trkpt lat="45.35051" lon="5.85122">
        <ele>1802.8</ele>
        <time>2022-04-03T13:50:05Z</time>
      </trkpt>
      <trkpt lat="45.35045" lon="5.85122">
        <ele>1803.8</ele>
        <time>2022-04-03T13:50:11Z</time>
      </trkpt>
      <trkpt lat="45.35044" lon="5.85122">
        <ele>1803.8</ele>
        <time>2022-04-03T13:50:12Z</time>
      </trkpt>
      <trkpt lat="45.35034" lon="5.85119">
        <ele>1805</ele>
        <time>2022-04-03T13:50:21Z</time>
      </trkpt>
      <trkpt lat="45.35031" lon="5.85117">
        <ele>1806</ele>
        <time>2022-04-03T13:50:25Z</time>
      </trkpt>
      <trkpt lat="45.35021" lon="5.85113">
        <ele>1807</ele>
        <time>2022-04-03T13:50:34Z</time>
      </trkpt>
      <trkpt lat="45.35018" lon="5.85112">
        <ele>1807.4</ele>
        <time>2022-04-03T13:50:37Z</time>
      </trkpt>
      <trkpt lat="45.35008" lon="5.85111">
        <ele>1808</ele>
        <time>2022-04-03T13:50:45Z</time>
      </trkpt>
      <trkpt lat="45.35004" lon="5.85111">
        <ele>1808.4</ele>
        <time>2022-04-03T13:50:48Z</time>
      </trkpt>
      <trkpt lat="45.35002" lon="5.8511">
        <ele>1808.6</ele>
        <time>2022-04-03T13:50:50Z</time>
      </trkpt>
      <trkpt lat="45.34996" lon="5.85107">
        <ele>1809.2</ele>
        <time>2022-04-03T13:50:56Z</time>
      </trkpt>
      <trkpt lat="45.34994" lon="5.85107">
        <ele>1809.8</ele>
        <time>2022-04-03T13:51:01Z</time>
      </trkpt>
      <trkpt lat="45.34995" lon="5.85106">
        <ele>1810.2</ele>
        <time>2022-04-03T13:51:05Z</time>
      </trkpt>
      <trkpt lat="45.34995" lon="5.85106">
        <ele>1810.4</ele>
        <time>2022-04-03T13:51:14Z</time>
      </trkpt>
      <trkpt lat="45.34995" lon="5.85105">
        <ele>1810.2</ele>
        <time>2022-04-03T13:51:33Z</time>
      </trkpt>
      <trkpt lat="45.34995" lon="5.85105">
        <ele>1810.2</ele>
        <time>2022-04-03T13:51:55Z</time>
      </trkpt>
      <trkpt lat="45.34996" lon="5.85106">
        <ele>1810.6</ele>
        <time>2022-04-03T13:52:13Z</time>
      </trkpt>
      <trkpt lat="45.34994" lon="5.85105">
        <ele>1810.6</ele>
        <time>2022-04-03T13:52:32Z</time>
      </trkpt>
      <trkpt lat="45.34994" lon="5.85107">
        <ele>1810.6</ele>
        <time>2022-04-03T13:52:52Z</time>
      </trkpt>
      <trkpt lat="45.34995" lon="5.85108">
        <ele>1810.6</ele>
        <time>2022-04-03T13:53:11Z</time>
      </trkpt>
      <trkpt lat="45.34995" lon="5.85108">
        <ele>1810.6</ele>
        <time>2022-04-03T13:53:26Z</time>
      </trkpt>
      <trkpt lat="45.34995" lon="5.85108">
        <ele>1810.6</ele>
        <time>2022-04-03T13:53:39Z</time>
      </trkpt>
      <trkpt lat="45.34996" lon="5.85108">
        <ele>1810.6</ele>
        <time>2022-04-03T13:53:53Z</time>
      </trkpt>
      <trkpt lat="45.34997" lon="5.85108">
        <ele>1810.6</ele>
        <time>2022-04-03T13:54:12Z</time>
      </trkpt>
      <trkpt lat="45.34996" lon="5.85108">
        <ele>1810.6</ele>
        <time>2022-04-03T13:54:33Z</time>
      </trkpt>
      <trkpt lat="45.34995" lon="5.85108">
        <ele>1810.6</ele>
        <time>2022-04-03T13:54:54Z</time>
      </trkpt>
      <trkpt lat="45.34995" lon="5.85108">
        <ele>1810.6</ele>
        <time>2022-04-03T13:55:15Z</time>
      </trkpt>
      <trkpt lat="45.34995" lon="5.85108">
        <ele>1810.6</ele>
        <time>2022-04-03T13:55:36Z</time>
      </trkpt>
      <trkpt lat="45.34994" lon="5.85108">
        <ele>1810.6</ele>
        <time>2022-04-03T13:55:52Z</time>
      </trkpt>
      <trkpt lat="45.34995" lon="5.85108">
        <ele>1810.6</ele>
        <time>2022-04-03T13:56:13Z</time>
      </trkpt>
      <trkpt lat="45.34993" lon="5.85109">
        <ele>1810.6</ele>
        <time>2022-04-03T13:56:32Z</time>
      </trkpt>
      <trkpt lat="45.34993" lon="5.85109">
        <ele>1810.6</ele>
        <time>2022-04-03T13:56:49Z</time>
      </trkpt>
      <trkpt lat="45.34992" lon="5.85109">
        <ele>1810.6</ele>
        <time>2022-04-03T13:57:02Z</time>
      </trkpt>
      <trkpt lat="45.34992" lon="5.85109">
        <ele>1810.6</ele>
        <time>2022-04-03T13:57:22Z</time>
      </trkpt>
      <trkpt lat="45.3499" lon="5.85107">
        <ele>1810.6</ele>
        <time>2022-04-03T13:57:36Z</time>
      </trkpt>
      <trkpt lat="45.3499" lon="5.85107">
        <ele>1810.6</ele>
        <time>2022-04-03T13:57:54Z</time>
      </trkpt>
      <trkpt lat="45.34991" lon="5.85108">
        <ele>1810.6</ele>
        <time>2022-04-03T13:58:10Z</time>
      </trkpt>
      <trkpt lat="45.34992" lon="5.85108">
        <ele>1810.6</ele>
        <time>2022-04-03T13:58:22Z</time>
      </trkpt>
      <trkpt lat="45.34993" lon="5.85109">
        <ele>1810.6</ele>
        <time>2022-04-03T13:58:44Z</time>
      </trkpt>
      <trkpt lat="45.34994" lon="5.85108">
        <ele>1810.6</ele>
        <time>2022-04-03T13:59:02Z</time>
      </trkpt>
      <trkpt lat="45.34994" lon="5.85109">
        <ele>1810.6</ele>
        <time>2022-04-03T13:59:22Z</time>
      </trkpt>
      <trkpt lat="45.34994" lon="5.85109">
        <ele>1810.6</ele>
        <time>2022-04-03T13:59:42Z</time>
      </trkpt>
      <trkpt lat="45.34994" lon="5.85109">
        <ele>1810.6</ele>
        <time>2022-04-03T14:00:20Z</time>
      </trkpt>
      <trkpt lat="45.34994" lon="5.85109">
        <ele>1810.6</ele>
        <time>2022-04-03T14:00:38Z</time>
      </trkpt>
      <trkpt lat="45.34994" lon="5.85109">
        <ele>1810.6</ele>
        <time>2022-04-03T14:01:03Z</time>
      </trkpt>
      <trkpt lat="45.34994" lon="5.85109">
        <ele>1810.6</ele>
        <time>2022-04-03T14:01:11Z</time>
      </trkpt>
      <trkpt lat="45.34991" lon="5.85106">
        <ele>1810.6</ele>
        <time>2022-04-03T14:01:49Z</time>
      </trkpt>
      <trkpt lat="45.34988" lon="5.85104">
        <ele>1810.6</ele>
        <time>2022-04-03T14:01:51Z</time>
      </trkpt>
      <trkpt lat="45.3498" lon="5.85103">
        <ele>1811</ele>
        <time>2022-04-03T14:01:58Z</time>
      </trkpt>
      <trkpt lat="45.34977" lon="5.85103">
        <ele>1811.4</ele>
        <time>2022-04-03T14:02:00Z</time>
      </trkpt>
      <trkpt lat="45.34968" lon="5.85105">
        <ele>1812.4</ele>
        <time>2022-04-03T14:02:06Z</time>
      </trkpt>
      <trkpt lat="45.34967" lon="5.85105">
        <ele>1812.4</ele>
        <time>2022-04-03T14:02:07Z</time>
      </trkpt>
      <trkpt lat="45.34965" lon="5.85107">
        <ele>1812.8</ele>
        <time>2022-04-03T14:02:09Z</time>
      </trkpt>
      <trkpt lat="45.34962" lon="5.8511">
        <ele>1813.4</ele>
        <time>2022-04-03T14:02:13Z</time>
      </trkpt>
      <trkpt lat="45.34961" lon="5.85111">
        <ele>1813.2</ele>
        <time>2022-04-03T14:02:23Z</time>
      </trkpt>
      <trkpt lat="45.34959" lon="5.85116">
        <ele>1812</ele>
        <time>2022-04-03T14:02:31Z</time>
      </trkpt>
      <trkpt lat="45.34962" lon="5.85119">
        <ele>1812</ele>
        <time>2022-04-03T14:02:39Z</time>
      </trkpt>
      <trkpt lat="45.3496" lon="5.85115">
        <ele>1812.2</ele>
        <time>2022-04-03T14:02:47Z</time>
      </trkpt>
      <trkpt lat="45.34959" lon="5.85108">
        <ele>1813.4</ele>
        <time>2022-04-03T14:02:52Z</time>
      </trkpt>
      <trkpt lat="45.34959" lon="5.85107">
        <ele>1813.6</ele>
        <time>2022-04-03T14:02:53Z</time>
      </trkpt>
      <trkpt lat="45.34958" lon="5.85106">
        <ele>1813.8</ele>
        <time>2022-04-03T14:02:58Z</time>
      </trkpt>
      <trkpt lat="45.34958" lon="5.85106">
        <ele>1813.6</ele>
        <time>2022-04-03T14:03:09Z</time>
      </trkpt>
      <trkpt lat="45.34958" lon="5.85106">
        <ele>1813.6</ele>
        <time>2022-04-03T14:03:21Z</time>
      </trkpt>
      <trkpt lat="45.34958" lon="5.85105">
        <ele>1813.6</ele>
        <time>2022-04-03T14:03:33Z</time>
      </trkpt>
      <trkpt lat="45.34958" lon="5.85105">
        <ele>1813.8</ele>
        <time>2022-04-03T14:03:44Z</time>
      </trkpt>
      <trkpt lat="45.34958" lon="5.85105">
        <ele>1813.2</ele>
        <time>2022-04-03T14:03:49Z</time>
      </trkpt>
      <trkpt lat="45.34958" lon="5.85105">
        <ele>1813.2</ele>
        <time>2022-04-03T14:03:53Z</time>
      </trkpt>
      <trkpt lat="45.34957" lon="5.85106">
        <ele>1813.4</ele>
        <time>2022-04-03T14:04:07Z</time>
      </trkpt>
      <trkpt lat="45.34956" lon="5.85105">
        <ele>1813.2</ele>
        <time>2022-04-03T14:04:22Z</time>
      </trkpt>
      <trkpt lat="45.34957" lon="5.85106">
        <ele>1813.6</ele>
        <time>2022-04-03T14:04:35Z</time>
      </trkpt>
      <trkpt lat="45.34957" lon="5.85104">
        <ele>1813.4</ele>
        <time>2022-04-03T14:04:49Z</time>
      </trkpt>
      <trkpt lat="45.34957" lon="5.85107">
        <ele>1813.6</ele>
        <time>2022-04-03T14:05:00Z</time>
      </trkpt>
      <trkpt lat="45.34957" lon="5.85108">
        <ele>1813.8</ele>
        <time>2022-04-03T14:05:09Z</time>
      </trkpt>
      <trkpt lat="45.34958" lon="5.85106">
        <ele>1813.2</ele>
        <time>2022-04-03T14:05:21Z</time>
      </trkpt>
      <trkpt lat="45.34958" lon="5.85106">
        <ele>1813.2</ele>
        <time>2022-04-03T14:05:34Z</time>
      </trkpt>
      <trkpt lat="45.34958" lon="5.85105">
        <ele>1813.2</ele>
        <time>2022-04-03T14:05:50Z</time>
      </trkpt>
      <trkpt lat="45.34958" lon="5.85104">
        <ele>1813.2</ele>
        <time>2022-04-03T14:06:02Z</time>
      </trkpt>
      <trkpt lat="45.34959" lon="5.85103">
        <ele>1813.2</ele>
        <time>2022-04-03T14:06:15Z</time>
      </trkpt>
      <trkpt lat="45.3496" lon="5.85103">
        <ele>1813.2</ele>
        <time>2022-04-03T14:06:26Z</time>
      </trkpt>
      <trkpt lat="45.3496" lon="5.85103">
        <ele>1813.2</ele>
        <time>2022-04-03T14:06:41Z</time>
      </trkpt>
      <trkpt lat="45.34961" lon="5.85104">
        <ele>1813.2</ele>
        <time>2022-04-03T14:06:54Z</time>
      </trkpt>
      <trkpt lat="45.34961" lon="5.85104">
        <ele>1813.2</ele>
        <time>2022-04-03T14:07:10Z</time>
      </trkpt>
      <trkpt lat="45.34961" lon="5.85106">
        <ele>1813.2</ele>
        <time>2022-04-03T14:07:21Z</time>
      </trkpt>
      <trkpt lat="45.34961" lon="5.8511">
        <ele>1813.2</ele>
        <time>2022-04-03T14:07:24Z</time>
      </trkpt>
      <trkpt lat="45.34961" lon="5.85124">
        <ele>1813.2</ele>
        <time>2022-04-03T14:07:28Z</time>
      </trkpt>
      <trkpt lat="45.3496" lon="5.85137">
        <ele>1812.4</ele>
        <time>2022-04-03T14:07:30Z</time>
      </trkpt>
      <trkpt lat="45.3496" lon="5.85137">
        <ele>1808.4</ele>
        <time>2022-04-03T14:07:31Z</time>
      </trkpt>
      <trkpt lat="45.34957" lon="5.85156">
        <ele>1807.2</ele>
        <time>2022-04-03T14:07:33Z</time>
      </trkpt>
      <trkpt lat="45.34956" lon="5.85162">
        <ele>1803.8</ele>
        <time>2022-04-03T14:07:34Z</time>
      </trkpt>
      <trkpt lat="45.34953" lon="5.85168">
        <ele>1801</ele>
        <time>2022-04-03T14:07:35Z</time>
      </trkpt>
      <trkpt lat="45.34952" lon="5.85174">
        <ele>1797.6</ele>
        <time>2022-04-03T14:07:36Z</time>
      </trkpt>
      <trkpt lat="45.3495" lon="5.8518">
        <ele>1795.2</ele>
        <time>2022-04-03T14:07:37Z</time>
      </trkpt>
      <trkpt lat="45.34949" lon="5.85186">
        <ele>1791.6</ele>
        <time>2022-04-03T14:07:38Z</time>
      </trkpt>
      <trkpt lat="45.34947" lon="5.85192">
        <ele>1788.4</ele>
        <time>2022-04-03T14:07:39Z</time>
      </trkpt>
      <trkpt lat="45.34945" lon="5.85197">
        <ele>1785.8</ele>
        <time>2022-04-03T14:07:40Z</time>
      </trkpt>
      <trkpt lat="45.34943" lon="5.85204">
        <ele>1782.8</ele>
        <time>2022-04-03T14:07:41Z</time>
      </trkpt>
      <trkpt lat="45.34941" lon="5.85208">
        <ele>1780.4</ele>
        <time>2022-04-03T14:07:42Z</time>
      </trkpt>
      <trkpt lat="45.34939" lon="5.85213">
        <ele>1776.2</ele>
        <time>2022-04-03T14:07:43Z</time>
      </trkpt>
      <trkpt lat="45.34936" lon="5.85223">
        <ele>1773</ele>
        <time>2022-04-03T14:07:44Z</time>
      </trkpt>
      <trkpt lat="45.34933" lon="5.85229">
        <ele>1768.8</ele>
        <time>2022-04-03T14:07:45Z</time>
      </trkpt>
      <trkpt lat="45.3493" lon="5.85235">
        <ele>1764.6</ele>
        <time>2022-04-03T14:07:46Z</time>
      </trkpt>
      <trkpt lat="45.34928" lon="5.85242">
        <ele>1761.8</ele>
        <time>2022-04-03T14:07:47Z</time>
      </trkpt>
      <trkpt lat="45.34925" lon="5.85249">
        <ele>1758.4</ele>
        <time>2022-04-03T14:07:48Z</time>
      </trkpt>
      <trkpt lat="45.34922" lon="5.85255">
        <ele>1755.6</ele>
        <time>2022-04-03T14:07:49Z</time>
      </trkpt>
      <trkpt lat="45.34919" lon="5.85258">
        <ele>1750.2</ele>
        <time>2022-04-03T14:07:50Z</time>
      </trkpt>
      <trkpt lat="45.34917" lon="5.8526">
        <ele>1747.4</ele>
        <time>2022-04-03T14:07:51Z</time>
      </trkpt>
      <trkpt lat="45.34915" lon="5.8526">
        <ele>1744.8</ele>
        <time>2022-04-03T14:07:52Z</time>
      </trkpt>
      <trkpt lat="45.34915" lon="5.8526">
        <ele>1742.8</ele>
        <time>2022-04-03T14:07:53Z</time>
      </trkpt>
      <trkpt lat="45.34915" lon="5.8526">
        <ele>1741.6</ele>
        <time>2022-04-03T14:07:54Z</time>
      </trkpt>
      <trkpt lat="45.34915" lon="5.85259">
        <ele>1740.6</ele>
        <time>2022-04-03T14:07:56Z</time>
      </trkpt>
      <trkpt lat="45.34915" lon="5.85258">
        <ele>1740</ele>
        <time>2022-04-03T14:08:01Z</time>
      </trkpt>
      <trkpt lat="45.34911" lon="5.8526">
        <ele>1739.4</ele>
        <time>2022-04-03T14:08:06Z</time>
      </trkpt>
      <trkpt lat="45.3491" lon="5.85263">
        <ele>1738.2</ele>
        <time>2022-04-03T14:08:08Z</time>
      </trkpt>
      <trkpt lat="45.34913" lon="5.85272">
        <ele>1736.4</ele>
        <time>2022-04-03T14:08:10Z</time>
      </trkpt>
      <trkpt lat="45.34915" lon="5.85278">
        <ele>1735.2</ele>
        <time>2022-04-03T14:08:11Z</time>
      </trkpt>
      <trkpt lat="45.34916" lon="5.85284">
        <ele>1734</ele>
        <time>2022-04-03T14:08:12Z</time>
      </trkpt>
      <trkpt lat="45.34916" lon="5.85291">
        <ele>1731.2</ele>
        <time>2022-04-03T14:08:13Z</time>
      </trkpt>
      <trkpt lat="45.34915" lon="5.85297">
        <ele>1728.6</ele>
        <time>2022-04-03T14:08:14Z</time>
      </trkpt>
      <trkpt lat="45.34913" lon="5.85303">
        <ele>1724.2</ele>
        <time>2022-04-03T14:08:15Z</time>
      </trkpt>
      <trkpt lat="45.34912" lon="5.8531">
        <ele>1720.6</ele>
        <time>2022-04-03T14:08:16Z</time>
      </trkpt>
      <trkpt lat="45.3491" lon="5.85317">
        <ele>1717</ele>
        <time>2022-04-03T14:08:17Z</time>
      </trkpt>
      <trkpt lat="45.34908" lon="5.85325">
        <ele>1712.8</ele>
        <time>2022-04-03T14:08:18Z</time>
      </trkpt>
      <trkpt lat="45.34906" lon="5.85333">
        <ele>1708.6</ele>
        <time>2022-04-03T14:08:19Z</time>
      </trkpt>
      <trkpt lat="45.34903" lon="5.8534">
        <ele>1706.4</ele>
        <time>2022-04-03T14:08:20Z</time>
      </trkpt>
      <trkpt lat="45.34901" lon="5.85346">
        <ele>1703.2</ele>
        <time>2022-04-03T14:08:21Z</time>
      </trkpt>
      <trkpt lat="45.34899" lon="5.85353">
        <ele>1699</ele>
        <time>2022-04-03T14:08:22Z</time>
      </trkpt>
      <trkpt lat="45.34896" lon="5.8536">
        <ele>1695.8</ele>
        <time>2022-04-03T14:08:23Z</time>
      </trkpt>
      <trkpt lat="45.34894" lon="5.85367">
        <ele>1692</ele>
        <time>2022-04-03T14:08:24Z</time>
      </trkpt>
      <trkpt lat="45.34893" lon="5.85373">
        <ele>1689.4</ele>
        <time>2022-04-03T14:08:25Z</time>
      </trkpt>
      <trkpt lat="45.34892" lon="5.8538">
        <ele>1685.4</ele>
        <time>2022-04-03T14:08:26Z</time>
      </trkpt>
      <trkpt lat="45.34891" lon="5.85387">
        <ele>1682</ele>
        <time>2022-04-03T14:08:27Z</time>
      </trkpt>
      <trkpt lat="45.3489" lon="5.85394">
        <ele>1679</ele>
        <time>2022-04-03T14:08:28Z</time>
      </trkpt>
      <trkpt lat="45.34888" lon="5.85401">
        <ele>1674.8</ele>
        <time>2022-04-03T14:08:29Z</time>
      </trkpt>
      <trkpt lat="45.34886" lon="5.85407">
        <ele>1672</ele>
        <time>2022-04-03T14:08:30Z</time>
      </trkpt>
      <trkpt lat="45.34882" lon="5.85412">
        <ele>1668</ele>
        <time>2022-04-03T14:08:31Z</time>
      </trkpt>
      <trkpt lat="45.34879" lon="5.85418">
        <ele>1664.2</ele>
        <time>2022-04-03T14:08:32Z</time>
      </trkpt>
      <trkpt lat="45.34877" lon="5.85425">
        <ele>1662</ele>
        <time>2022-04-03T14:08:33Z</time>
      </trkpt>
      <trkpt lat="45.34875" lon="5.8543">
        <ele>1657.8</ele>
        <time>2022-04-03T14:08:34Z</time>
      </trkpt>
      <trkpt lat="45.34874" lon="5.85437">
        <ele>1655.6</ele>
        <time>2022-04-03T14:08:35Z</time>
      </trkpt>
      <trkpt lat="45.34875" lon="5.85443">
        <ele>1651.6</ele>
        <time>2022-04-03T14:08:36Z</time>
      </trkpt>
      <trkpt lat="45.34876" lon="5.85449">
        <ele>1648.4</ele>
        <time>2022-04-03T14:08:37Z</time>
      </trkpt>
      <trkpt lat="45.34875" lon="5.85455">
        <ele>1646</ele>
        <time>2022-04-03T14:08:38Z</time>
      </trkpt>
      <trkpt lat="45.34875" lon="5.85458">
        <ele>1642.2</ele>
        <time>2022-04-03T14:08:39Z</time>
      </trkpt>
      <trkpt lat="45.34875" lon="5.85459">
        <ele>1639.4</ele>
        <time>2022-04-03T14:08:40Z</time>
      </trkpt>
      <trkpt lat="45.34876" lon="5.85459">
        <ele>1637</ele>
        <time>2022-04-03T14:08:41Z</time>
      </trkpt>
      <trkpt lat="45.34875" lon="5.85459">
        <ele>1635.6</ele>
        <time>2022-04-03T14:08:42Z</time>
      </trkpt>
      <trkpt lat="45.34875" lon="5.85458">
        <ele>1634.6</ele>
        <time>2022-04-03T14:08:44Z</time>
      </trkpt>
      <trkpt lat="45.34875" lon="5.85456">
        <ele>1633.8</ele>
        <time>2022-04-03T14:08:47Z</time>
      </trkpt>
      <trkpt lat="45.34876" lon="5.85455">
        <ele>1633.6</ele>
        <time>2022-04-03T14:08:54Z</time>
      </trkpt>
      <trkpt lat="45.34877" lon="5.85457">
        <ele>1633.4</ele>
        <time>2022-04-03T14:08:55Z</time>
      </trkpt>
      <trkpt lat="45.34878" lon="5.85458">
        <ele>1633.2</ele>
        <time>2022-04-03T14:08:56Z</time>
      </trkpt>
      <trkpt lat="45.34881" lon="5.8546">
        <ele>1632.4</ele>
        <time>2022-04-03T14:08:58Z</time>
      </trkpt>
      <trkpt lat="45.34882" lon="5.85461">
        <ele>1631.2</ele>
        <time>2022-04-03T14:09:00Z</time>
      </trkpt>
      <trkpt lat="45.34883" lon="5.85461">
        <ele>1630.8</ele>
        <time>2022-04-03T14:09:01Z</time>
      </trkpt>
      <trkpt lat="45.34884" lon="5.85463">
        <ele>1630.4</ele>
        <time>2022-04-03T14:09:02Z</time>
      </trkpt>
      <trkpt lat="45.34889" lon="5.8547">
        <ele>1630</ele>
        <time>2022-04-03T14:09:04Z</time>
      </trkpt>
      <trkpt lat="45.34892" lon="5.85478">
        <ele>1626.6</ele>
        <time>2022-04-03T14:09:06Z</time>
      </trkpt>
      <trkpt lat="45.34892" lon="5.85479">
        <ele>1623.8</ele>
        <time>2022-04-03T14:09:07Z</time>
      </trkpt>
      <trkpt lat="45.34893" lon="5.8548">
        <ele>1621.6</ele>
        <time>2022-04-03T14:09:08Z</time>
      </trkpt>
      <trkpt lat="45.34893" lon="5.8548">
        <ele>1620.4</ele>
        <time>2022-04-03T14:09:09Z</time>
      </trkpt>
      <trkpt lat="45.34894" lon="5.85481">
        <ele>1619.4</ele>
        <time>2022-04-03T14:09:11Z</time>
      </trkpt>
      <trkpt lat="45.34895" lon="5.85486">
        <ele>1619</ele>
        <time>2022-04-03T14:09:13Z</time>
      </trkpt>
      <trkpt lat="45.34896" lon="5.8549">
        <ele>1618.6</ele>
        <time>2022-04-03T14:09:14Z</time>
      </trkpt>
      <trkpt lat="45.34895" lon="5.85501">
        <ele>1617.4</ele>
        <time>2022-04-03T14:09:16Z</time>
      </trkpt>
      <trkpt lat="45.34894" lon="5.85507">
        <ele>1616</ele>
        <time>2022-04-03T14:09:17Z</time>
      </trkpt>
      <trkpt lat="45.34894" lon="5.85513">
        <ele>1613.4</ele>
        <time>2022-04-03T14:09:18Z</time>
      </trkpt>
      <trkpt lat="45.34894" lon="5.8552">
        <ele>1611.2</ele>
        <time>2022-04-03T14:09:19Z</time>
      </trkpt>
      <trkpt lat="45.34894" lon="5.85527">
        <ele>1608.8</ele>
        <time>2022-04-03T14:09:20Z</time>
      </trkpt>
      <trkpt lat="45.34894" lon="5.85534">
        <ele>1607.2</ele>
        <time>2022-04-03T14:09:21Z</time>
      </trkpt>
      <trkpt lat="45.34894" lon="5.85541">
        <ele>1604.4</ele>
        <time>2022-04-03T14:09:22Z</time>
      </trkpt>
      <trkpt lat="45.34894" lon="5.85547">
        <ele>1602.2</ele>
        <time>2022-04-03T14:09:23Z</time>
      </trkpt>
      <trkpt lat="45.34893" lon="5.85553">
        <ele>1599</ele>
        <time>2022-04-03T14:09:24Z</time>
      </trkpt>
      <trkpt lat="45.34892" lon="5.85559">
        <ele>1596.2</ele>
        <time>2022-04-03T14:09:25Z</time>
      </trkpt>
      <trkpt lat="45.34891" lon="5.85565">
        <ele>1593.8</ele>
        <time>2022-04-03T14:09:26Z</time>
      </trkpt>
      <trkpt lat="45.34891" lon="5.85571">
        <ele>1591.8</ele>
        <time>2022-04-03T14:09:27Z</time>
      </trkpt>
      <trkpt lat="45.3489" lon="5.85575">
        <ele>1588.6</ele>
        <time>2022-04-03T14:09:28Z</time>
      </trkpt>
      <trkpt lat="45.34888" lon="5.85578">
        <ele>1586.8</ele>
        <time>2022-04-03T14:09:29Z</time>
      </trkpt>
      <trkpt lat="45.34886" lon="5.85582">
        <ele>1585</ele>
        <time>2022-04-03T14:09:30Z</time>
      </trkpt>
      <trkpt lat="45.34885" lon="5.85585">
        <ele>1583.6</ele>
        <time>2022-04-03T14:09:31Z</time>
      </trkpt>
      <trkpt lat="45.34883" lon="5.85589">
        <ele>1581</ele>
        <time>2022-04-03T14:09:32Z</time>
      </trkpt>
      <trkpt lat="45.34883" lon="5.85593">
        <ele>1579.2</ele>
        <time>2022-04-03T14:09:33Z</time>
      </trkpt>
      <trkpt lat="45.34883" lon="5.85597">
        <ele>1577.6</ele>
        <time>2022-04-03T14:09:34Z</time>
      </trkpt>
      <trkpt lat="45.34884" lon="5.85601">
        <ele>1576.2</ele>
        <time>2022-04-03T14:09:35Z</time>
      </trkpt>
      <trkpt lat="45.34885" lon="5.85605">
        <ele>1574.4</ele>
        <time>2022-04-03T14:09:36Z</time>
      </trkpt>
      <trkpt lat="45.34886" lon="5.85611">
        <ele>1572.6</ele>
        <time>2022-04-03T14:09:37Z</time>
      </trkpt>
      <trkpt lat="45.34886" lon="5.85615">
        <ele>1571.2</ele>
        <time>2022-04-03T14:09:38Z</time>
      </trkpt>
      <trkpt lat="45.34887" lon="5.8562">
        <ele>1569.6</ele>
        <time>2022-04-03T14:09:39Z</time>
      </trkpt>
      <trkpt lat="45.34887" lon="5.85624">
        <ele>1568.4</ele>
        <time>2022-04-03T14:09:40Z</time>
      </trkpt>
      <trkpt lat="45.34887" lon="5.8563">
        <ele>1566</ele>
        <time>2022-04-03T14:09:41Z</time>
      </trkpt>
      <trkpt lat="45.34886" lon="5.85636">
        <ele>1564</ele>
        <time>2022-04-03T14:09:42Z</time>
      </trkpt>
      <trkpt lat="45.34886" lon="5.85643">
        <ele>1562</ele>
        <time>2022-04-03T14:09:43Z</time>
      </trkpt>
      <trkpt lat="45.34884" lon="5.8565">
        <ele>1559.4</ele>
        <time>2022-04-03T14:09:44Z</time>
      </trkpt>
      <trkpt lat="45.34882" lon="5.85657">
        <ele>1557</ele>
        <time>2022-04-03T14:09:45Z</time>
      </trkpt>
      <trkpt lat="45.34879" lon="5.85663">
        <ele>1553.2</ele>
        <time>2022-04-03T14:09:46Z</time>
      </trkpt>
      <trkpt lat="45.34876" lon="5.85669">
        <ele>1551.2</ele>
        <time>2022-04-03T14:09:47Z</time>
      </trkpt>
      <trkpt lat="45.34876" lon="5.85669">
        <ele>1545.8</ele>
        <time>2022-04-03T14:09:48Z</time>
      </trkpt>
      <trkpt lat="45.34869" lon="5.85685">
        <ele>1543.4</ele>
        <time>2022-04-03T14:09:50Z</time>
      </trkpt>
      <trkpt lat="45.34867" lon="5.85691">
        <ele>1540.8</ele>
        <time>2022-04-03T14:09:51Z</time>
      </trkpt>
      <trkpt lat="45.34865" lon="5.85697">
        <ele>1537.8</ele>
        <time>2022-04-03T14:09:52Z</time>
      </trkpt>
      <trkpt lat="45.34863" lon="5.85703">
        <ele>1535.4</ele>
        <time>2022-04-03T14:09:53Z</time>
      </trkpt>
      <trkpt lat="45.34861" lon="5.85708">
        <ele>1534.2</ele>
        <time>2022-04-03T14:09:54Z</time>
      </trkpt>
      <trkpt lat="45.34859" lon="5.85712">
        <ele>1533</ele>
        <time>2022-04-03T14:09:55Z</time>
      </trkpt>
      <trkpt lat="45.34857" lon="5.85716">
        <ele>1531.2</ele>
        <time>2022-04-03T14:09:56Z</time>
      </trkpt>
      <trkpt lat="45.34855" lon="5.85718">
        <ele>1529.4</ele>
        <time>2022-04-03T14:09:57Z</time>
      </trkpt>
      <trkpt lat="45.34853" lon="5.85719">
        <ele>1528.2</ele>
        <time>2022-04-03T14:09:58Z</time>
      </trkpt>
      <trkpt lat="45.34851" lon="5.8572">
        <ele>1526.6</ele>
        <time>2022-04-03T14:09:59Z</time>
      </trkpt>
      <trkpt lat="45.34848" lon="5.85721">
        <ele>1525.2</ele>
        <time>2022-04-03T14:10:00Z</time>
      </trkpt>
      <trkpt lat="45.34845" lon="5.85721">
        <ele>1522.6</ele>
        <time>2022-04-03T14:10:02Z</time>
      </trkpt>
      <trkpt lat="45.34841" lon="5.85722">
        <ele>1521.6</ele>
        <time>2022-04-03T14:10:03Z</time>
      </trkpt>
      <trkpt lat="45.34835" lon="5.85724">
        <ele>1519.2</ele>
        <time>2022-04-03T14:10:05Z</time>
      </trkpt>
      <trkpt lat="45.34828" lon="5.85728">
        <ele>1517.2</ele>
        <time>2022-04-03T14:10:07Z</time>
      </trkpt>
      <trkpt lat="45.34824" lon="5.8573">
        <ele>1515.6</ele>
        <time>2022-04-03T14:10:08Z</time>
      </trkpt>
      <trkpt lat="45.34821" lon="5.85732">
        <ele>1514.2</ele>
        <time>2022-04-03T14:10:09Z</time>
      </trkpt>
      <trkpt lat="45.3482" lon="5.85735">
        <ele>1513.2</ele>
        <time>2022-04-03T14:10:10Z</time>
      </trkpt>
      <trkpt lat="45.34819" lon="5.8574">
        <ele>1511.6</ele>
        <time>2022-04-03T14:10:11Z</time>
      </trkpt>
      <trkpt lat="45.34819" lon="5.85752">
        <ele>1509.8</ele>
        <time>2022-04-03T14:10:13Z</time>
      </trkpt>
      <trkpt lat="45.34815" lon="5.85765">
        <ele>1507.2</ele>
        <time>2022-04-03T14:10:15Z</time>
      </trkpt>
      <trkpt lat="45.34813" lon="5.85772">
        <ele>1505.8</ele>
        <time>2022-04-03T14:10:16Z</time>
      </trkpt>
      <trkpt lat="45.34811" lon="5.85776">
        <ele>1504.8</ele>
        <time>2022-04-03T14:10:17Z</time>
      </trkpt>
      <trkpt lat="45.3481" lon="5.85777">
        <ele>1503.6</ele>
        <time>2022-04-03T14:10:18Z</time>
      </trkpt>
      <trkpt lat="45.34809" lon="5.85778">
        <ele>1502</ele>
        <time>2022-04-03T14:10:19Z</time>
      </trkpt>
      <trkpt lat="45.34809" lon="5.85779">
        <ele>1501</ele>
        <time>2022-04-03T14:10:20Z</time>
      </trkpt>
      <trkpt lat="45.34809" lon="5.8578">
        <ele>1499.8</ele>
        <time>2022-04-03T14:10:22Z</time>
      </trkpt>
      <trkpt lat="45.34808" lon="5.85781">
        <ele>1499.6</ele>
        <time>2022-04-03T14:10:23Z</time>
      </trkpt>
      <trkpt lat="45.34806" lon="5.85784">
        <ele>1498.6</ele>
        <time>2022-04-03T14:10:30Z</time>
      </trkpt>
      <trkpt lat="45.34805" lon="5.85785">
        <ele>1499</ele>
        <time>2022-04-03T14:10:33Z</time>
      </trkpt>
      <trkpt lat="45.34797" lon="5.85792">
        <ele>1499.2</ele>
        <time>2022-04-03T14:10:47Z</time>
      </trkpt>
      <trkpt lat="45.34794" lon="5.85794">
        <ele>1498.8</ele>
        <time>2022-04-03T14:11:03Z</time>
      </trkpt>
      <trkpt lat="45.34794" lon="5.85792">
        <ele>1498</ele>
        <time>2022-04-03T14:11:17Z</time>
      </trkpt>
      <trkpt lat="45.34795" lon="5.85791">
        <ele>1498.6</ele>
        <time>2022-04-03T14:11:31Z</time>
      </trkpt>
      <trkpt lat="45.34795" lon="5.85791">
        <ele>1499.4</ele>
        <time>2022-04-03T14:11:43Z</time>
      </trkpt>
      <trkpt lat="45.34796" lon="5.85793">
        <ele>1499.4</ele>
        <time>2022-04-03T14:12:00Z</time>
      </trkpt>
      <trkpt lat="45.34795" lon="5.85794">
        <ele>1499.4</ele>
        <time>2022-04-03T14:12:14Z</time>
      </trkpt>
      <trkpt lat="45.34793" lon="5.85795">
        <ele>1499.4</ele>
        <time>2022-04-03T14:12:29Z</time>
      </trkpt>
      <trkpt lat="45.34793" lon="5.85796">
        <ele>1499.4</ele>
        <time>2022-04-03T14:12:42Z</time>
      </trkpt>
      <trkpt lat="45.34793" lon="5.85796">
        <ele>1499.4</ele>
        <time>2022-04-03T14:12:43Z</time>
      </trkpt>
      <trkpt lat="45.34793" lon="5.85797">
        <ele>1499.4</ele>
        <time>2022-04-03T14:12:56Z</time>
      </trkpt>
      <trkpt lat="45.34791" lon="5.85798">
        <ele>1499.4</ele>
        <time>2022-04-03T14:13:11Z</time>
      </trkpt>
      <trkpt lat="45.34792" lon="5.85798">
        <ele>1499.4</ele>
        <time>2022-04-03T14:13:24Z</time>
      </trkpt>
      <trkpt lat="45.34791" lon="5.85793">
        <ele>1499.4</ele>
        <time>2022-04-03T14:13:35Z</time>
      </trkpt>
      <trkpt lat="45.34791" lon="5.85788">
        <ele>1499.4</ele>
        <time>2022-04-03T14:13:38Z</time>
      </trkpt>
      <trkpt lat="45.34791" lon="5.85785">
        <ele>1499.4</ele>
        <time>2022-04-03T14:13:40Z</time>
      </trkpt>
      <trkpt lat="45.34791" lon="5.85776">
        <ele>1499.6</ele>
        <time>2022-04-03T14:13:46Z</time>
      </trkpt>
      <trkpt lat="45.34791" lon="5.85775">
        <ele>1499.8</ele>
        <time>2022-04-03T14:13:47Z</time>
      </trkpt>
      <trkpt lat="45.34791" lon="5.85766">
        <ele>1501</ele>
        <time>2022-04-03T14:13:55Z</time>
      </trkpt>
      <trkpt lat="45.34791" lon="5.85763">
        <ele>1502</ele>
        <time>2022-04-03T14:13:58Z</time>
      </trkpt>
      <trkpt lat="45.34791" lon="5.85761">
        <ele>1502.2</ele>
        <time>2022-04-03T14:13:59Z</time>
      </trkpt>
      <trkpt lat="45.34792" lon="5.85758">
        <ele>1503.2</ele>
        <time>2022-04-03T14:14:03Z</time>
      </trkpt>
      <trkpt lat="45.34793" lon="5.85755">
        <ele>1504.2</ele>
        <time>2022-04-03T14:14:11Z</time>
      </trkpt>
      <trkpt lat="45.34793" lon="5.85754">
        <ele>1504.2</ele>
        <time>2022-04-03T14:14:12Z</time>
      </trkpt>
      <trkpt lat="45.34794" lon="5.85749">
        <ele>1505.2</ele>
        <time>2022-04-03T14:14:19Z</time>
      </trkpt>
      <trkpt lat="45.34794" lon="5.85744">
        <ele>1506.2</ele>
        <time>2022-04-03T14:14:23Z</time>
      </trkpt>
      <trkpt lat="45.34795" lon="5.85741">
        <ele>1507.2</ele>
        <time>2022-04-03T14:14:27Z</time>
      </trkpt>
      <trkpt lat="45.34798" lon="5.85738">
        <ele>1507</ele>
        <time>2022-04-03T14:14:38Z</time>
      </trkpt>
      <trkpt lat="45.34797" lon="5.85737">
        <ele>1507.4</ele>
        <time>2022-04-03T14:14:46Z</time>
      </trkpt>
      <trkpt lat="45.34798" lon="5.85735">
        <ele>1508.6</ele>
        <time>2022-04-03T14:14:49Z</time>
      </trkpt>
      <trkpt lat="45.34799" lon="5.85731">
        <ele>1509.6</ele>
        <time>2022-04-03T14:14:53Z</time>
      </trkpt>
      <trkpt lat="45.34799" lon="5.8573">
        <ele>1509.6</ele>
        <time>2022-04-03T14:14:54Z</time>
      </trkpt>
      <trkpt lat="45.34803" lon="5.85723">
        <ele>1510.8</ele>
        <time>2022-04-03T14:15:00Z</time>
      </trkpt>
      <trkpt lat="45.34802" lon="5.85723">
        <ele>1511.8</ele>
        <time>2022-04-03T14:15:04Z</time>
      </trkpt>
      <trkpt lat="45.34804" lon="5.85722">
        <ele>1512</ele>
        <time>2022-04-03T14:15:05Z</time>
      </trkpt>
      <trkpt lat="45.34809" lon="5.8572">
        <ele>1512.8</ele>
        <time>2022-04-03T14:15:11Z</time>
      </trkpt>
      <trkpt lat="45.34812" lon="5.85721">
        <ele>1514.2</ele>
        <time>2022-04-03T14:15:17Z</time>
      </trkpt>
      <trkpt lat="45.34812" lon="5.85721">
        <ele>1514.6</ele>
        <time>2022-04-03T14:15:19Z</time>
      </trkpt>
      <trkpt lat="45.34809" lon="5.85721">
        <ele>1515.2</ele>
        <time>2022-04-03T14:15:23Z</time>
      </trkpt>
      <trkpt lat="45.34807" lon="5.85716">
        <ele>1516.2</ele>
        <time>2022-04-03T14:15:30Z</time>
      </trkpt>
      <trkpt lat="45.34806" lon="5.85714">
        <ele>1517.4</ele>
        <time>2022-04-03T14:15:33Z</time>
      </trkpt>
      <trkpt lat="45.34805" lon="5.85707">
        <ele>1518.4</ele>
        <time>2022-04-03T14:15:39Z</time>
      </trkpt>
      <trkpt lat="45.34804" lon="5.85703">
        <ele>1519.6</ele>
        <time>2022-04-03T14:15:44Z</time>
      </trkpt>
      <trkpt lat="45.34804" lon="5.85702">
        <ele>1519.8</ele>
        <time>2022-04-03T14:15:45Z</time>
      </trkpt>
      <trkpt lat="45.34804" lon="5.857">
        <ele>1520.6</ele>
        <time>2022-04-03T14:15:49Z</time>
      </trkpt>
      <trkpt lat="45.34806" lon="5.85696">
        <ele>1521.6</ele>
        <time>2022-04-03T14:15:56Z</time>
      </trkpt>
      <trkpt lat="45.34808" lon="5.85697">
        <ele>1521.8</ele>
        <time>2022-04-03T14:15:58Z</time>
      </trkpt>
      <trkpt lat="45.34811" lon="5.85695">
        <ele>1522.8</ele>
        <time>2022-04-03T14:16:03Z</time>
      </trkpt>
      <trkpt lat="45.34813" lon="5.85693">
        <ele>1524</ele>
        <time>2022-04-03T14:16:07Z</time>
      </trkpt>
      <trkpt lat="45.34816" lon="5.85692">
        <ele>1525</ele>
        <time>2022-04-03T14:16:12Z</time>
      </trkpt>
      <trkpt lat="45.34817" lon="5.85693">
        <ele>1525.2</ele>
        <time>2022-04-03T14:16:13Z</time>
      </trkpt>
      <trkpt lat="45.3482" lon="5.85693">
        <ele>1526</ele>
        <time>2022-04-03T14:16:18Z</time>
      </trkpt>
      <trkpt lat="45.34826" lon="5.85692">
        <ele>1527</ele>
        <time>2022-04-03T14:16:25Z</time>
      </trkpt>
      <trkpt lat="45.34828" lon="5.85691">
        <ele>1527.6</ele>
        <time>2022-04-03T14:16:28Z</time>
      </trkpt>
      <trkpt lat="45.3483" lon="5.8569">
        <ele>1528</ele>
        <time>2022-04-03T14:16:31Z</time>
      </trkpt>
      <trkpt lat="45.34834" lon="5.8569">
        <ele>1529</ele>
        <time>2022-04-03T14:16:36Z</time>
      </trkpt>
      <trkpt lat="45.34836" lon="5.8569">
        <ele>1530</ele>
        <time>2022-04-03T14:16:41Z</time>
      </trkpt>
      <trkpt lat="45.34837" lon="5.8569">
        <ele>1530.2</ele>
        <time>2022-04-03T14:16:42Z</time>
      </trkpt>
      <trkpt lat="45.3484" lon="5.8569">
        <ele>1531.4</ele>
        <time>2022-04-03T14:16:48Z</time>
      </trkpt>
      <trkpt lat="45.34843" lon="5.85689">
        <ele>1532.6</ele>
        <time>2022-04-03T14:16:54Z</time>
      </trkpt>
      <trkpt lat="45.34846" lon="5.85688">
        <ele>1533.2</ele>
        <time>2022-04-03T14:16:58Z</time>
      </trkpt>
      <trkpt lat="45.34848" lon="5.85686">
        <ele>1533.8</ele>
        <time>2022-04-03T14:17:01Z</time>
      </trkpt>
      <trkpt lat="45.34856" lon="5.85687">
        <ele>1534.8</ele>
        <time>2022-04-03T14:17:14Z</time>
      </trkpt>
      <trkpt lat="45.34859" lon="5.85687">
        <ele>1534.6</ele>
        <time>2022-04-03T14:17:29Z</time>
      </trkpt>
      <trkpt lat="45.34863" lon="5.85686">
        <ele>1536</ele>
        <time>2022-04-03T14:17:38Z</time>
      </trkpt>
      <trkpt lat="45.34864" lon="5.85684">
        <ele>1536.4</ele>
        <time>2022-04-03T14:17:41Z</time>
      </trkpt>
      <trkpt lat="45.34866" lon="5.85683">
        <ele>1537</ele>
        <time>2022-04-03T14:17:44Z</time>
      </trkpt>
      <trkpt lat="45.34871" lon="5.85678">
        <ele>1538.4</ele>
        <time>2022-04-03T14:17:52Z</time>
      </trkpt>
      <trkpt lat="45.34873" lon="5.85677">
        <ele>1539.4</ele>
        <time>2022-04-03T14:17:56Z</time>
      </trkpt>
      <trkpt lat="45.34874" lon="5.85677">
        <ele>1539.6</ele>
        <time>2022-04-03T14:17:57Z</time>
      </trkpt>
      <trkpt lat="45.34877" lon="5.85677">
        <ele>1540.4</ele>
        <time>2022-04-03T14:18:03Z</time>
      </trkpt>
      <trkpt lat="45.34881" lon="5.85679">
        <ele>1541.6</ele>
        <time>2022-04-03T14:18:08Z</time>
      </trkpt>
      <trkpt lat="45.34883" lon="5.85678">
        <ele>1541.8</ele>
        <time>2022-04-03T14:18:11Z</time>
      </trkpt>
      <trkpt lat="45.34886" lon="5.85678">
        <ele>1542.6</ele>
        <time>2022-04-03T14:18:15Z</time>
      </trkpt>
      <trkpt lat="45.34891" lon="5.85674">
        <ele>1543.8</ele>
        <time>2022-04-03T14:18:21Z</time>
      </trkpt>
      <trkpt lat="45.34892" lon="5.85673">
        <ele>1544.4</ele>
        <time>2022-04-03T14:18:23Z</time>
      </trkpt>
      <trkpt lat="45.34894" lon="5.85671">
        <ele>1544.8</ele>
        <time>2022-04-03T14:18:26Z</time>
      </trkpt>
      <trkpt lat="45.34899" lon="5.85672">
        <ele>1545.8</ele>
        <time>2022-04-03T14:18:32Z</time>
      </trkpt>
      <trkpt lat="45.34903" lon="5.85671">
        <ele>1546.6</ele>
        <time>2022-04-03T14:18:37Z</time>
      </trkpt>
      <trkpt lat="45.34904" lon="5.8567">
        <ele>1547</ele>
        <time>2022-04-03T14:18:39Z</time>
      </trkpt>
      <trkpt lat="45.34909" lon="5.8567">
        <ele>1548.2</ele>
        <time>2022-04-03T14:18:46Z</time>
      </trkpt>
      <trkpt lat="45.34914" lon="5.85669">
        <ele>1549.2</ele>
        <time>2022-04-03T14:18:53Z</time>
      </trkpt>
      <trkpt lat="45.34916" lon="5.85669">
        <ele>1550.2</ele>
        <time>2022-04-03T14:18:56Z</time>
      </trkpt>
      <trkpt lat="45.34917" lon="5.85669">
        <ele>1550.4</ele>
        <time>2022-04-03T14:18:57Z</time>
      </trkpt>
      <trkpt lat="45.34921" lon="5.85667">
        <ele>1551.4</ele>
        <time>2022-04-03T14:19:02Z</time>
      </trkpt>
      <trkpt lat="45.34925" lon="5.85666">
        <ele>1552.6</ele>
        <time>2022-04-03T14:19:10Z</time>
      </trkpt>
      <trkpt lat="45.34929" lon="5.85665">
        <ele>1553.8</ele>
        <time>2022-04-03T14:19:17Z</time>
      </trkpt>
      <trkpt lat="45.34933" lon="5.85664">
        <ele>1554.8</ele>
        <time>2022-04-03T14:19:24Z</time>
      </trkpt>
      <trkpt lat="45.34934" lon="5.85664">
        <ele>1555</ele>
        <time>2022-04-03T14:19:26Z</time>
      </trkpt>
      <trkpt lat="45.34936" lon="5.85662">
        <ele>1555.8</ele>
        <time>2022-04-03T14:19:30Z</time>
      </trkpt>
      <trkpt lat="45.34939" lon="5.85662">
        <ele>1556.8</ele>
        <time>2022-04-03T14:19:36Z</time>
      </trkpt>
      <trkpt lat="45.34941" lon="5.85661">
        <ele>1558</ele>
        <time>2022-04-03T14:19:40Z</time>
      </trkpt>
      <trkpt lat="45.34945" lon="5.85661">
        <ele>1559</ele>
        <time>2022-04-03T14:19:54Z</time>
      </trkpt>
      <trkpt lat="45.34946" lon="5.85661">
        <ele>1559.2</ele>
        <time>2022-04-03T14:19:55Z</time>
      </trkpt>
      <trkpt lat="45.34948" lon="5.8566">
        <ele>1560.2</ele>
        <time>2022-04-03T14:20:00Z</time>
      </trkpt>
      <trkpt lat="45.34949" lon="5.85659">
        <ele>1561.2</ele>
        <time>2022-04-03T14:20:08Z</time>
      </trkpt>
      <trkpt lat="45.34949" lon="5.85657">
        <ele>1561.4</ele>
        <time>2022-04-03T14:20:13Z</time>
      </trkpt>
      <trkpt lat="45.34947" lon="5.85653">
        <ele>1562.4</ele>
        <time>2022-04-03T14:20:18Z</time>
      </trkpt>
      <trkpt lat="45.34947" lon="5.85652">
        <ele>1562.6</ele>
        <time>2022-04-03T14:20:19Z</time>
      </trkpt>
      <trkpt lat="45.34945" lon="5.85649">
        <ele>1563.4</ele>
        <time>2022-04-03T14:20:23Z</time>
      </trkpt>
      <trkpt lat="45.34942" lon="5.85643">
        <ele>1564.4</ele>
        <time>2022-04-03T14:20:31Z</time>
      </trkpt>
      <trkpt lat="45.34942" lon="5.85643">
        <ele>1564.6</ele>
        <time>2022-04-03T14:20:32Z</time>
      </trkpt>
      <trkpt lat="45.3494" lon="5.85641">
        <ele>1565.4</ele>
        <time>2022-04-03T14:20:39Z</time>
      </trkpt>
      <trkpt lat="45.34939" lon="5.85641">
        <ele>1565.4</ele>
        <time>2022-04-03T14:20:44Z</time>
      </trkpt>
      <trkpt lat="45.34935" lon="5.8564">
        <ele>1565.8</ele>
        <time>2022-04-03T14:21:00Z</time>
      </trkpt>
      <trkpt lat="45.34933" lon="5.8564">
        <ele>1566.6</ele>
        <time>2022-04-03T14:21:04Z</time>
      </trkpt>
      <trkpt lat="45.34932" lon="5.85636">
        <ele>1567.8</ele>
        <time>2022-04-03T14:21:09Z</time>
      </trkpt>
      <trkpt lat="45.34934" lon="5.85632">
        <ele>1568.4</ele>
        <time>2022-04-03T14:21:13Z</time>
      </trkpt>
      <trkpt lat="45.34934" lon="5.85631">
        <ele>1568.8</ele>
        <time>2022-04-03T14:21:15Z</time>
      </trkpt>
      <trkpt lat="45.34939" lon="5.85632">
        <ele>1569.2</ele>
        <time>2022-04-03T14:21:23Z</time>
      </trkpt>
      <trkpt lat="45.34945" lon="5.85634">
        <ele>1570</ele>
        <time>2022-04-03T14:21:30Z</time>
      </trkpt>
      <trkpt lat="45.3495" lon="5.85632">
        <ele>1571.2</ele>
        <time>2022-04-03T14:21:36Z</time>
      </trkpt>
      <trkpt lat="45.34951" lon="5.85631">
        <ele>1571.4</ele>
        <time>2022-04-03T14:21:38Z</time>
      </trkpt>
      <trkpt lat="45.3495" lon="5.85628">
        <ele>1572</ele>
        <time>2022-04-03T14:21:50Z</time>
      </trkpt>
      <trkpt lat="45.3495" lon="5.85628">
        <ele>1572.2</ele>
        <time>2022-04-03T14:21:51Z</time>
      </trkpt>
      <trkpt lat="45.34948" lon="5.85628">
        <ele>1572.4</ele>
        <time>2022-04-03T14:22:08Z</time>
      </trkpt>
      <trkpt lat="45.34946" lon="5.85624">
        <ele>1573.4</ele>
        <time>2022-04-03T14:22:15Z</time>
      </trkpt>
      <trkpt lat="45.34945" lon="5.85617">
        <ele>1574.4</ele>
        <time>2022-04-03T14:22:20Z</time>
      </trkpt>
      <trkpt lat="45.34945" lon="5.85615">
        <ele>1574.6</ele>
        <time>2022-04-03T14:22:22Z</time>
      </trkpt>
      <trkpt lat="45.34943" lon="5.85611">
        <ele>1575.8</ele>
        <time>2022-04-03T14:22:27Z</time>
      </trkpt>
      <trkpt lat="45.3494" lon="5.85606">
        <ele>1576.8</ele>
        <time>2022-04-03T14:22:32Z</time>
      </trkpt>
      <trkpt lat="45.34938" lon="5.85604">
        <ele>1577.4</ele>
        <time>2022-04-03T14:22:36Z</time>
      </trkpt>
      <trkpt lat="45.34937" lon="5.85601">
        <ele>1578</ele>
        <time>2022-04-03T14:22:39Z</time>
      </trkpt>
      <trkpt lat="45.34932" lon="5.85598">
        <ele>1579.4</ele>
        <time>2022-04-03T14:22:47Z</time>
      </trkpt>
      <trkpt lat="45.34932" lon="5.85597">
        <ele>1580</ele>
        <time>2022-04-03T14:22:50Z</time>
      </trkpt>
      <trkpt lat="45.34932" lon="5.85595">
        <ele>1580.4</ele>
        <time>2022-04-03T14:22:54Z</time>
      </trkpt>
      <trkpt lat="45.34935" lon="5.85591">
        <ele>1581.6</ele>
        <time>2022-04-03T14:23:00Z</time>
      </trkpt>
      <trkpt lat="45.34937" lon="5.85591">
        <ele>1581.8</ele>
        <time>2022-04-03T14:23:02Z</time>
      </trkpt>
      <trkpt lat="45.3494" lon="5.85587">
        <ele>1582.8</ele>
        <time>2022-04-03T14:23:06Z</time>
      </trkpt>
      <trkpt lat="45.34942" lon="5.85585">
        <ele>1583.8</ele>
        <time>2022-04-03T14:23:14Z</time>
      </trkpt>
      <trkpt lat="45.34942" lon="5.85585">
        <ele>1584</ele>
        <time>2022-04-03T14:23:15Z</time>
      </trkpt>
      <trkpt lat="45.34942" lon="5.85585">
        <ele>1585</ele>
        <time>2022-04-03T14:23:20Z</time>
      </trkpt>
      <trkpt lat="45.3494" lon="5.85584">
        <ele>1585.8</ele>
        <time>2022-04-03T14:23:26Z</time>
      </trkpt>
      <trkpt lat="45.34942" lon="5.85582">
        <ele>1586.2</ele>
        <time>2022-04-03T14:23:29Z</time>
      </trkpt>
      <trkpt lat="45.34947" lon="5.85583">
        <ele>1586.6</ele>
        <time>2022-04-03T14:23:37Z</time>
      </trkpt>
      <trkpt lat="45.34949" lon="5.85582">
        <ele>1587.2</ele>
        <time>2022-04-03T14:23:40Z</time>
      </trkpt>
      <trkpt lat="45.3495" lon="5.85582">
        <ele>1587.6</ele>
        <time>2022-04-03T14:23:41Z</time>
      </trkpt>
      <trkpt lat="45.34953" lon="5.8558">
        <ele>1588.2</ele>
        <time>2022-04-03T14:23:45Z</time>
      </trkpt>
      <trkpt lat="45.34958" lon="5.85578">
        <ele>1589.4</ele>
        <time>2022-04-03T14:23:51Z</time>
      </trkpt>
      <trkpt lat="45.3496" lon="5.85577">
        <ele>1589.8</ele>
        <time>2022-04-03T14:23:54Z</time>
      </trkpt>
      <trkpt lat="45.34961" lon="5.85576">
        <ele>1590.6</ele>
        <time>2022-04-03T14:23:58Z</time>
      </trkpt>
      <trkpt lat="45.34961" lon="5.85575">
        <ele>1590.8</ele>
        <time>2022-04-03T14:24:04Z</time>
      </trkpt>
      <trkpt lat="45.3496" lon="5.85572">
        <ele>1591.6</ele>
        <time>2022-04-03T14:24:08Z</time>
      </trkpt>
      <trkpt lat="45.34959" lon="5.8557">
        <ele>1592.6</ele>
        <time>2022-04-03T14:24:12Z</time>
      </trkpt>
      <trkpt lat="45.34959" lon="5.85567">
        <ele>1593.8</ele>
        <time>2022-04-03T14:24:17Z</time>
      </trkpt>
      <trkpt lat="45.34958" lon="5.85565">
        <ele>1594.2</ele>
        <time>2022-04-03T14:24:18Z</time>
      </trkpt>
      <trkpt lat="45.34957" lon="5.8556">
        <ele>1594.8</ele>
        <time>2022-04-03T14:24:23Z</time>
      </trkpt>
      <trkpt lat="45.34953" lon="5.85555">
        <ele>1596</ele>
        <time>2022-04-03T14:24:30Z</time>
      </trkpt>
      <trkpt lat="45.34952" lon="5.85554">
        <ele>1597</ele>
        <time>2022-04-03T14:24:34Z</time>
      </trkpt>
      <trkpt lat="45.34949" lon="5.85548">
        <ele>1598.2</ele>
        <time>2022-04-03T14:24:42Z</time>
      </trkpt>
      <trkpt lat="45.34947" lon="5.85544">
        <ele>1599.4</ele>
        <time>2022-04-03T14:24:47Z</time>
      </trkpt>
      <trkpt lat="45.34947" lon="5.85544">
        <ele>1599.6</ele>
        <time>2022-04-03T14:24:48Z</time>
      </trkpt>
      <trkpt lat="45.34947" lon="5.85541">
        <ele>1600.6</ele>
        <time>2022-04-03T14:24:51Z</time>
      </trkpt>
      <trkpt lat="45.34946" lon="5.85539">
        <ele>1601.6</ele>
        <time>2022-04-03T14:24:55Z</time>
      </trkpt>
      <trkpt lat="45.34946" lon="5.85539">
        <ele>1601.6</ele>
        <time>2022-04-03T14:25:01Z</time>
      </trkpt>
      <trkpt lat="45.34944" lon="5.85539">
        <ele>1600.8</ele>
        <time>2022-04-03T14:25:16Z</time>
      </trkpt>
      <trkpt lat="45.34943" lon="5.85536">
        <ele>1601.2</ele>
        <time>2022-04-03T14:25:31Z</time>
      </trkpt>
      <trkpt lat="45.34942" lon="5.8554">
        <ele>1600.8</ele>
        <time>2022-04-03T14:25:46Z</time>
      </trkpt>
      <trkpt lat="45.34942" lon="5.85543">
        <ele>1601.8</ele>
        <time>2022-04-03T14:26:00Z</time>
      </trkpt>
      <trkpt lat="45.34943" lon="5.85536">
        <ele>1602</ele>
        <time>2022-04-03T14:26:15Z</time>
      </trkpt>
      <trkpt lat="45.34942" lon="5.85533">
        <ele>1602.8</ele>
        <time>2022-04-03T14:26:18Z</time>
      </trkpt>
      <trkpt lat="45.3494" lon="5.85528">
        <ele>1604</ele>
        <time>2022-04-03T14:26:23Z</time>
      </trkpt>
      <trkpt lat="45.34938" lon="5.85524">
        <ele>1605.2</ele>
        <time>2022-04-03T14:26:28Z</time>
      </trkpt>
      <trkpt lat="45.34938" lon="5.85523">
        <ele>1605.4</ele>
        <time>2022-04-03T14:26:29Z</time>
      </trkpt>
      <trkpt lat="45.34938" lon="5.8552">
        <ele>1606.4</ele>
        <time>2022-04-03T14:26:33Z</time>
      </trkpt>
      <trkpt lat="45.34936" lon="5.85518">
        <ele>1607.6</ele>
        <time>2022-04-03T14:26:38Z</time>
      </trkpt>
      <trkpt lat="45.34933" lon="5.85515">
        <ele>1608.4</ele>
        <time>2022-04-03T14:26:44Z</time>
      </trkpt>
      <trkpt lat="45.34933" lon="5.85514">
        <ele>1608.6</ele>
        <time>2022-04-03T14:26:45Z</time>
      </trkpt>
      <trkpt lat="45.34931" lon="5.85512">
        <ele>1609.6</ele>
        <time>2022-04-03T14:26:50Z</time>
      </trkpt>
      <trkpt lat="45.3493" lon="5.85508">
        <ele>1610.8</ele>
        <time>2022-04-03T14:26:56Z</time>
      </trkpt>
      <trkpt lat="45.34929" lon="5.85507">
        <ele>1611.6</ele>
        <time>2022-04-03T14:26:58Z</time>
      </trkpt>
      <trkpt lat="45.34929" lon="5.85506">
        <ele>1612</ele>
        <time>2022-04-03T14:26:59Z</time>
      </trkpt>
      <trkpt lat="45.34931" lon="5.85504">
        <ele>1612.6</ele>
        <time>2022-04-03T14:27:09Z</time>
      </trkpt>
      <trkpt lat="45.34933" lon="5.85504">
        <ele>1613</ele>
        <time>2022-04-03T14:27:12Z</time>
      </trkpt>
      <trkpt lat="45.34939" lon="5.85504">
        <ele>1614</ele>
        <time>2022-04-03T14:27:20Z</time>
      </trkpt>
      <trkpt lat="45.34942" lon="5.85501">
        <ele>1615</ele>
        <time>2022-04-03T14:27:26Z</time>
      </trkpt>
      <trkpt lat="45.34945" lon="5.855">
        <ele>1616.2</ele>
        <time>2022-04-03T14:27:31Z</time>
      </trkpt>
      <trkpt lat="45.34948" lon="5.85499">
        <ele>1617.4</ele>
        <time>2022-04-03T14:27:37Z</time>
      </trkpt>
      <trkpt lat="45.34952" lon="5.85498">
        <ele>1618.4</ele>
        <time>2022-04-03T14:27:43Z</time>
      </trkpt>
      <trkpt lat="45.34952" lon="5.85498">
        <ele>1618.6</ele>
        <time>2022-04-03T14:27:45Z</time>
      </trkpt>
      <trkpt lat="45.34956" lon="5.85494">
        <ele>1619.6</ele>
        <time>2022-04-03T14:27:55Z</time>
      </trkpt>
      <trkpt lat="45.34959" lon="5.85493">
        <ele>1620.6</ele>
        <time>2022-04-03T14:28:01Z</time>
      </trkpt>
      <trkpt lat="45.34961" lon="5.85491">
        <ele>1621.6</ele>
        <time>2022-04-03T14:28:05Z</time>
      </trkpt>
      <trkpt lat="45.34964" lon="5.8549">
        <ele>1622.6</ele>
        <time>2022-04-03T14:28:09Z</time>
      </trkpt>
      <trkpt lat="45.34967" lon="5.85487">
        <ele>1623.8</ele>
        <time>2022-04-03T14:28:15Z</time>
      </trkpt>
      <trkpt lat="45.34972" lon="5.85486">
        <ele>1624.4</ele>
        <time>2022-04-03T14:28:20Z</time>
      </trkpt>
      <trkpt lat="45.34974" lon="5.85486">
        <ele>1624.8</ele>
        <time>2022-04-03T14:28:23Z</time>
      </trkpt>
      <trkpt lat="45.34975" lon="5.85486">
        <ele>1625</ele>
        <time>2022-04-03T14:28:24Z</time>
      </trkpt>
      <trkpt lat="45.34979" lon="5.85485">
        <ele>1625.4</ele>
        <time>2022-04-03T14:28:28Z</time>
      </trkpt>
      <trkpt lat="45.34983" lon="5.85485">
        <ele>1626</ele>
        <time>2022-04-03T14:28:33Z</time>
      </trkpt>
      <trkpt lat="45.34985" lon="5.85486">
        <ele>1626.2</ele>
        <time>2022-04-03T14:28:35Z</time>
      </trkpt>
      <trkpt lat="45.34994" lon="5.85486">
        <ele>1627.2</ele>
        <time>2022-04-03T14:28:48Z</time>
      </trkpt>
      <trkpt lat="45.34995" lon="5.85485">
        <ele>1627.6</ele>
        <time>2022-04-03T14:28:49Z</time>
      </trkpt>
      <trkpt lat="45.35" lon="5.85483">
        <ele>1628.4</ele>
        <time>2022-04-03T14:28:57Z</time>
      </trkpt>
      <trkpt lat="45.35002" lon="5.85482">
        <ele>1629.4</ele>
        <time>2022-04-03T14:29:01Z</time>
      </trkpt>
      <trkpt lat="45.35003" lon="5.85481">
        <ele>1629.6</ele>
        <time>2022-04-03T14:29:02Z</time>
      </trkpt>
      <trkpt lat="45.35008" lon="5.85478">
        <ele>1630.8</ele>
        <time>2022-04-03T14:29:10Z</time>
      </trkpt>
      <trkpt lat="45.35008" lon="5.85478">
        <ele>1631.2</ele>
        <time>2022-04-03T14:29:12Z</time>
      </trkpt>
      <trkpt lat="45.35009" lon="5.85476">
        <ele>1632</ele>
        <time>2022-04-03T14:29:16Z</time>
      </trkpt>
      <trkpt lat="45.35007" lon="5.85475">
        <ele>1632.4</ele>
        <time>2022-04-03T14:29:22Z</time>
      </trkpt>
      <trkpt lat="45.35006" lon="5.85471">
        <ele>1633</ele>
        <time>2022-04-03T14:29:26Z</time>
      </trkpt>
      <trkpt lat="45.35004" lon="5.85468">
        <ele>1634.2</ele>
        <time>2022-04-03T14:29:31Z</time>
      </trkpt>
      <trkpt lat="45.35003" lon="5.85468">
        <ele>1634.6</ele>
        <time>2022-04-03T14:29:33Z</time>
      </trkpt>
      <trkpt lat="45.35002" lon="5.85465">
        <ele>1635.2</ele>
        <time>2022-04-03T14:29:37Z</time>
      </trkpt>
      <trkpt lat="45.35" lon="5.85462">
        <ele>1636.4</ele>
        <time>2022-04-03T14:29:42Z</time>
      </trkpt>
      <trkpt lat="45.34998" lon="5.8546">
        <ele>1637.2</ele>
        <time>2022-04-03T14:29:46Z</time>
      </trkpt>
      <trkpt lat="45.34997" lon="5.85459">
        <ele>1637.4</ele>
        <time>2022-04-03T14:29:48Z</time>
      </trkpt>
      <trkpt lat="45.34994" lon="5.85457">
        <ele>1638.6</ele>
        <time>2022-04-03T14:29:54Z</time>
      </trkpt>
      <trkpt lat="45.34992" lon="5.85456">
        <ele>1639.6</ele>
        <time>2022-04-03T14:29:58Z</time>
      </trkpt>
      <trkpt lat="45.3499" lon="5.85454">
        <ele>1640.2</ele>
        <time>2022-04-03T14:30:10Z</time>
      </trkpt>
      <trkpt lat="45.3499" lon="5.85453">
        <ele>1639.8</ele>
        <time>2022-04-03T14:30:28Z</time>
      </trkpt>
      <trkpt lat="45.3499" lon="5.85454">
        <ele>1639.6</ele>
        <time>2022-04-03T14:30:43Z</time>
      </trkpt>
      <trkpt lat="45.34991" lon="5.85454">
        <ele>1640.2</ele>
        <time>2022-04-03T14:30:59Z</time>
      </trkpt>
      <trkpt lat="45.34992" lon="5.8545">
        <ele>1640.4</ele>
        <time>2022-04-03T14:31:09Z</time>
      </trkpt>
      <trkpt lat="45.34993" lon="5.8545">
        <ele>1640.6</ele>
        <time>2022-04-03T14:31:11Z</time>
      </trkpt>
      <trkpt lat="45.34996" lon="5.85449">
        <ele>1641.8</ele>
        <time>2022-04-03T14:31:16Z</time>
      </trkpt>
      <trkpt lat="45.34999" lon="5.85447">
        <ele>1642.4</ele>
        <time>2022-04-03T14:31:21Z</time>
      </trkpt>
      <trkpt lat="45.35" lon="5.85446">
        <ele>1642.8</ele>
        <time>2022-04-03T14:31:23Z</time>
      </trkpt>
      <trkpt lat="45.35003" lon="5.85444">
        <ele>1643.8</ele>
        <time>2022-04-03T14:31:28Z</time>
      </trkpt>
      <trkpt lat="45.35006" lon="5.85442">
        <ele>1644.8</ele>
        <time>2022-04-03T14:31:33Z</time>
      </trkpt>
      <trkpt lat="45.35006" lon="5.85441">
        <ele>1644.8</ele>
        <time>2022-04-03T14:31:34Z</time>
      </trkpt>
      <trkpt lat="45.35009" lon="5.85441">
        <ele>1646</ele>
        <time>2022-04-03T14:31:38Z</time>
      </trkpt>
      <trkpt lat="45.35009" lon="5.8544">
        <ele>1647</ele>
        <time>2022-04-03T14:31:42Z</time>
      </trkpt>
      <trkpt lat="45.35009" lon="5.8544">
        <ele>1647.4</ele>
        <time>2022-04-03T14:31:45Z</time>
      </trkpt>
      <trkpt lat="45.3501" lon="5.85441">
        <ele>1648</ele>
        <time>2022-04-03T14:31:58Z</time>
      </trkpt>
      <trkpt lat="45.3501" lon="5.8544">
        <ele>1647.8</ele>
        <time>2022-04-03T14:32:09Z</time>
      </trkpt>
      <trkpt lat="45.35008" lon="5.85439">
        <ele>1647.8</ele>
        <time>2022-04-03T14:32:20Z</time>
      </trkpt>
      <trkpt lat="45.35008" lon="5.85436">
        <ele>1649</ele>
        <time>2022-04-03T14:32:29Z</time>
      </trkpt>
      <trkpt lat="45.35008" lon="5.85435">
        <ele>1649.2</ele>
        <time>2022-04-03T14:32:30Z</time>
      </trkpt>
      <trkpt lat="45.35009" lon="5.85434">
        <ele>1649.4</ele>
        <time>2022-04-03T14:32:31Z</time>
      </trkpt>
      <trkpt lat="45.35012" lon="5.85432">
        <ele>1650.6</ele>
        <time>2022-04-03T14:32:35Z</time>
      </trkpt>
      <trkpt lat="45.35015" lon="5.85431">
        <ele>1651.2</ele>
        <time>2022-04-03T14:32:39Z</time>
      </trkpt>
      <trkpt lat="45.35016" lon="5.85431">
        <ele>1651.8</ele>
        <time>2022-04-03T14:32:42Z</time>
      </trkpt>
      <trkpt lat="45.35019" lon="5.8543">
        <ele>1652.8</ele>
        <time>2022-04-03T14:32:47Z</time>
      </trkpt>
      <trkpt lat="45.3502" lon="5.85429">
        <ele>1653</ele>
        <time>2022-04-03T14:32:48Z</time>
      </trkpt>
      <trkpt lat="45.35022" lon="5.85428">
        <ele>1654.2</ele>
        <time>2022-04-03T14:32:51Z</time>
      </trkpt>
      <trkpt lat="45.35027" lon="5.85426">
        <ele>1655.4</ele>
        <time>2022-04-03T14:32:57Z</time>
      </trkpt>
      <trkpt lat="45.35032" lon="5.85425">
        <ele>1656.4</ele>
        <time>2022-04-03T14:33:04Z</time>
      </trkpt>
      <trkpt lat="45.35035" lon="5.85423">
        <ele>1657.6</ele>
        <time>2022-04-03T14:33:09Z</time>
      </trkpt>
      <trkpt lat="45.35036" lon="5.85423">
        <ele>1658.6</ele>
        <time>2022-04-03T14:33:14Z</time>
      </trkpt>
      <trkpt lat="45.35031" lon="5.8542">
        <ele>1659.6</ele>
        <time>2022-04-03T14:33:24Z</time>
      </trkpt>
      <trkpt lat="45.3503" lon="5.8542">
        <ele>1659.8</ele>
        <time>2022-04-03T14:33:25Z</time>
      </trkpt>
      <trkpt lat="45.35027" lon="5.85419">
        <ele>1661</ele>
        <time>2022-04-03T14:33:31Z</time>
      </trkpt>
      <trkpt lat="45.35026" lon="5.85418">
        <ele>1661.4</ele>
        <time>2022-04-03T14:33:33Z</time>
      </trkpt>
      <trkpt lat="45.35023" lon="5.85417">
        <ele>1662.2</ele>
        <time>2022-04-03T14:33:37Z</time>
      </trkpt>
      <trkpt lat="45.35024" lon="5.85414">
        <ele>1663.2</ele>
        <time>2022-04-03T14:33:43Z</time>
      </trkpt>
      <trkpt lat="45.35024" lon="5.85414">
        <ele>1663.4</ele>
        <time>2022-04-03T14:33:44Z</time>
      </trkpt>
      <trkpt lat="45.35029" lon="5.85411">
        <ele>1664.8</ele>
        <time>2022-04-03T14:33:52Z</time>
      </trkpt>
      <trkpt lat="45.3503" lon="5.8541">
        <ele>1665</ele>
        <time>2022-04-03T14:33:53Z</time>
      </trkpt>
      <trkpt lat="45.35033" lon="5.8541">
        <ele>1666</ele>
        <time>2022-04-03T14:33:58Z</time>
      </trkpt>
      <trkpt lat="45.35033" lon="5.8541">
        <ele>1666.4</ele>
        <time>2022-04-03T14:34:02Z</time>
      </trkpt>
      <trkpt lat="45.35033" lon="5.85412">
        <ele>1667.2</ele>
        <time>2022-04-03T14:34:11Z</time>
      </trkpt>
      <trkpt lat="45.35032" lon="5.85411">
        <ele>1667.4</ele>
        <time>2022-04-03T14:34:15Z</time>
      </trkpt>
      <trkpt lat="45.35028" lon="5.85408">
        <ele>1667.8</ele>
        <time>2022-04-03T14:34:21Z</time>
      </trkpt>
      <trkpt lat="45.35026" lon="5.85407">
        <ele>1668.4</ele>
        <time>2022-04-03T14:34:24Z</time>
      </trkpt>
      <trkpt lat="45.35023" lon="5.85405">
        <ele>1669.2</ele>
        <time>2022-04-03T14:34:28Z</time>
      </trkpt>
      <trkpt lat="45.35022" lon="5.85404">
        <ele>1669.4</ele>
        <time>2022-04-03T14:34:30Z</time>
      </trkpt>
      <trkpt lat="45.35019" lon="5.85403">
        <ele>1670.6</ele>
        <time>2022-04-03T14:34:35Z</time>
      </trkpt>
      <trkpt lat="45.35017" lon="5.85402">
        <ele>1671.6</ele>
        <time>2022-04-03T14:34:38Z</time>
      </trkpt>
      <trkpt lat="45.35017" lon="5.85401">
        <ele>1671.8</ele>
        <time>2022-04-03T14:34:39Z</time>
      </trkpt>
      <trkpt lat="45.35015" lon="5.854">
        <ele>1672.8</ele>
        <time>2022-04-03T14:34:44Z</time>
      </trkpt>
      <trkpt lat="45.35014" lon="5.85398">
        <ele>1673.8</ele>
        <time>2022-04-03T14:34:48Z</time>
      </trkpt>
      <trkpt lat="45.35012" lon="5.85397">
        <ele>1674.6</ele>
        <time>2022-04-03T14:34:51Z</time>
      </trkpt>
      <trkpt lat="45.35011" lon="5.85396">
        <ele>1675</ele>
        <time>2022-04-03T14:34:54Z</time>
      </trkpt>
      <trkpt lat="45.35007" lon="5.85395">
        <ele>1675.6</ele>
        <time>2022-04-03T14:35:03Z</time>
      </trkpt>
      <trkpt lat="45.35005" lon="5.85393">
        <ele>1676.2</ele>
        <time>2022-04-03T14:35:07Z</time>
      </trkpt>
      <trkpt lat="45.35001" lon="5.85389">
        <ele>1677</ele>
        <time>2022-04-03T14:35:13Z</time>
      </trkpt>
      <trkpt lat="45.35001" lon="5.85388">
        <ele>1677.2</ele>
        <time>2022-04-03T14:35:14Z</time>
      </trkpt>
      <trkpt lat="45.34998" lon="5.85385">
        <ele>1678.2</ele>
        <time>2022-04-03T14:35:20Z</time>
      </trkpt>
      <trkpt lat="45.34997" lon="5.85384">
        <ele>1678.8</ele>
        <time>2022-04-03T14:35:22Z</time>
      </trkpt>
      <trkpt lat="45.34996" lon="5.85383">
        <ele>1679.2</ele>
        <time>2022-04-03T14:35:24Z</time>
      </trkpt>
      <trkpt lat="45.34999" lon="5.85381">
        <ele>1679.8</ele>
        <time>2022-04-03T14:35:31Z</time>
      </trkpt>
      <trkpt lat="45.35001" lon="5.8538">
        <ele>1680.2</ele>
        <time>2022-04-03T14:35:34Z</time>
      </trkpt>
      <trkpt lat="45.35006" lon="5.85379">
        <ele>1681.8</ele>
        <time>2022-04-03T14:35:42Z</time>
      </trkpt>
      <trkpt lat="45.35009" lon="5.85379">
        <ele>1683</ele>
        <time>2022-04-03T14:35:47Z</time>
      </trkpt>
      <trkpt lat="45.35012" lon="5.85378">
        <ele>1684</ele>
        <time>2022-04-03T14:35:52Z</time>
      </trkpt>
      <trkpt lat="45.35013" lon="5.85378">
        <ele>1684</ele>
        <time>2022-04-03T14:35:53Z</time>
      </trkpt>
      <trkpt lat="45.35016" lon="5.85376">
        <ele>1685</ele>
        <time>2022-04-03T14:35:58Z</time>
      </trkpt>
      <trkpt lat="45.35019" lon="5.85375">
        <ele>1686</ele>
        <time>2022-04-03T14:36:02Z</time>
      </trkpt>
      <trkpt lat="45.35021" lon="5.85374">
        <ele>1686.4</ele>
        <time>2022-04-03T14:36:05Z</time>
      </trkpt>
      <trkpt lat="45.35024" lon="5.85374">
        <ele>1687.2</ele>
        <time>2022-04-03T14:36:08Z</time>
      </trkpt>
      <trkpt lat="45.35024" lon="5.85373">
        <ele>1687.4</ele>
        <time>2022-04-03T14:36:09Z</time>
      </trkpt>
      <trkpt lat="45.35027" lon="5.85373">
        <ele>1688.2</ele>
        <time>2022-04-03T14:36:14Z</time>
      </trkpt>
      <trkpt lat="45.35029" lon="5.85373">
        <ele>1688.4</ele>
        <time>2022-04-03T14:36:17Z</time>
      </trkpt>
      <trkpt lat="45.35031" lon="5.85372">
        <ele>1689.2</ele>
        <time>2022-04-03T14:36:21Z</time>
      </trkpt>
      <trkpt lat="45.35035" lon="5.85371">
        <ele>1690.4</ele>
        <time>2022-04-03T14:36:27Z</time>
      </trkpt>
      <trkpt lat="45.35037" lon="5.85371">
        <ele>1690.8</ele>
        <time>2022-04-03T14:36:29Z</time>
      </trkpt>
      <trkpt lat="45.35039" lon="5.8537">
        <ele>1691.6</ele>
        <time>2022-04-03T14:36:32Z</time>
      </trkpt>
      <trkpt lat="45.35043" lon="5.85368">
        <ele>1692.6</ele>
        <time>2022-04-03T14:36:39Z</time>
      </trkpt>
      <trkpt lat="45.35044" lon="5.85367">
        <ele>1693</ele>
        <time>2022-04-03T14:36:41Z</time>
      </trkpt>
      <trkpt lat="45.35046" lon="5.85365">
        <ele>1693.4</ele>
        <time>2022-04-03T14:36:44Z</time>
      </trkpt>
      <trkpt lat="45.35046" lon="5.85364">
        <ele>1693.8</ele>
        <time>2022-04-03T14:36:45Z</time>
      </trkpt>
      <trkpt lat="45.35049" lon="5.85362">
        <ele>1695</ele>
        <time>2022-04-03T14:36:50Z</time>
      </trkpt>
      <trkpt lat="45.35051" lon="5.85361">
        <ele>1695.6</ele>
        <time>2022-04-03T14:36:52Z</time>
      </trkpt>
      <trkpt lat="45.35052" lon="5.85361">
        <ele>1696</ele>
        <time>2022-04-03T14:36:55Z</time>
      </trkpt>
      <trkpt lat="45.35055" lon="5.85358">
        <ele>1697.2</ele>
        <time>2022-04-03T14:37:01Z</time>
      </trkpt>
      <trkpt lat="45.35055" lon="5.85358">
        <ele>1697.6</ele>
        <time>2022-04-03T14:37:03Z</time>
      </trkpt>
      <trkpt lat="45.35057" lon="5.85357">
        <ele>1698.4</ele>
        <time>2022-04-03T14:37:06Z</time>
      </trkpt>
      <trkpt lat="45.35061" lon="5.85354">
        <ele>1699.4</ele>
        <time>2022-04-03T14:37:13Z</time>
      </trkpt>
      <trkpt lat="45.35062" lon="5.85354">
        <ele>1699.8</ele>
        <time>2022-04-03T14:37:14Z</time>
      </trkpt>
      <trkpt lat="45.35065" lon="5.85354">
        <ele>1700.6</ele>
        <time>2022-04-03T14:37:18Z</time>
      </trkpt>
      <trkpt lat="45.35067" lon="5.85353">
        <ele>1701.6</ele>
        <time>2022-04-03T14:37:22Z</time>
      </trkpt>
      <trkpt lat="45.35068" lon="5.85353">
        <ele>1702.4</ele>
        <time>2022-04-03T14:37:25Z</time>
      </trkpt>
      <trkpt lat="45.35069" lon="5.85352">
        <ele>1702.6</ele>
        <time>2022-04-03T14:37:26Z</time>
      </trkpt>
      <trkpt lat="45.3507" lon="5.85352">
        <ele>1703.6</ele>
        <time>2022-04-03T14:37:29Z</time>
      </trkpt>
      <trkpt lat="45.35073" lon="5.8535">
        <ele>1704.8</ele>
        <time>2022-04-03T14:37:34Z</time>
      </trkpt>
      <trkpt lat="45.35075" lon="5.85349">
        <ele>1706</ele>
        <time>2022-04-03T14:37:38Z</time>
      </trkpt>
      <trkpt lat="45.35075" lon="5.8535">
        <ele>1706.6</ele>
        <time>2022-04-03T14:37:44Z</time>
      </trkpt>
      <trkpt lat="45.35078" lon="5.85348">
        <ele>1707.2</ele>
        <time>2022-04-03T14:37:53Z</time>
      </trkpt>
      <trkpt lat="45.35079" lon="5.85347">
        <ele>1707.4</ele>
        <time>2022-04-03T14:37:54Z</time>
      </trkpt>
      <trkpt lat="45.35081" lon="5.85346">
        <ele>1708.4</ele>
        <time>2022-04-03T14:37:59Z</time>
      </trkpt>
      <trkpt lat="45.35083" lon="5.85344">
        <ele>1709.4</ele>
        <time>2022-04-03T14:38:02Z</time>
      </trkpt>
      <trkpt lat="45.35084" lon="5.85343">
        <ele>1709.8</ele>
        <time>2022-04-03T14:38:04Z</time>
      </trkpt>
      <trkpt lat="45.35086" lon="5.8534">
        <ele>1710.6</ele>
        <time>2022-04-03T14:38:08Z</time>
      </trkpt>
      <trkpt lat="45.3509" lon="5.85338">
        <ele>1711.8</ele>
        <time>2022-04-03T14:38:14Z</time>
      </trkpt>
      <trkpt lat="45.3509" lon="5.85338">
        <ele>1712</ele>
        <time>2022-04-03T14:38:15Z</time>
      </trkpt>
      <trkpt lat="45.35092" lon="5.85337">
        <ele>1712.8</ele>
        <time>2022-04-03T14:38:19Z</time>
      </trkpt>
      <trkpt lat="45.35095" lon="5.85336">
        <ele>1714</ele>
        <time>2022-04-03T14:38:24Z</time>
      </trkpt>
      <trkpt lat="45.35095" lon="5.85334">
        <ele>1714.8</ele>
        <time>2022-04-03T14:38:26Z</time>
      </trkpt>
      <trkpt lat="45.35096" lon="5.85334">
        <ele>1715.2</ele>
        <time>2022-04-03T14:38:27Z</time>
      </trkpt>
      <trkpt lat="45.351" lon="5.85332">
        <ele>1716.4</ele>
        <time>2022-04-03T14:38:33Z</time>
      </trkpt>
      <trkpt lat="45.35104" lon="5.8533">
        <ele>1717</ele>
        <time>2022-04-03T14:38:39Z</time>
      </trkpt>
      <trkpt lat="45.35105" lon="5.85329">
        <ele>1717.6</ele>
        <time>2022-04-03T14:38:41Z</time>
      </trkpt>
      <trkpt lat="45.35109" lon="5.85325">
        <ele>1718.8</ele>
        <time>2022-04-03T14:38:47Z</time>
      </trkpt>
      <trkpt lat="45.3511" lon="5.85323">
        <ele>1719.4</ele>
        <time>2022-04-03T14:38:50Z</time>
      </trkpt>
      <trkpt lat="45.35111" lon="5.85322">
        <ele>1719.8</ele>
        <time>2022-04-03T14:38:52Z</time>
      </trkpt>
      <trkpt lat="45.35114" lon="5.8532">
        <ele>1721.2</ele>
        <time>2022-04-03T14:38:58Z</time>
      </trkpt>
      <trkpt lat="45.35115" lon="5.85318">
        <ele>1722.2</ele>
        <time>2022-04-03T14:39:05Z</time>
      </trkpt>
      <trkpt lat="45.35113" lon="5.8532">
        <ele>1722.8</ele>
        <time>2022-04-03T14:39:20Z</time>
      </trkpt>
      <trkpt lat="45.35112" lon="5.85318">
        <ele>1723.2</ele>
        <time>2022-04-03T14:39:22Z</time>
      </trkpt>
      <trkpt lat="45.35111" lon="5.85315">
        <ele>1724.4</ele>
        <time>2022-04-03T14:39:26Z</time>
      </trkpt>
      <trkpt lat="45.35111" lon="5.85313">
        <ele>1725</ele>
        <time>2022-04-03T14:39:29Z</time>
      </trkpt>
      <trkpt lat="45.35113" lon="5.8531">
        <ele>1725.6</ele>
        <time>2022-04-03T14:39:33Z</time>
      </trkpt>
      <trkpt lat="45.35116" lon="5.85307">
        <ele>1726.2</ele>
        <time>2022-04-03T14:39:38Z</time>
      </trkpt>
      <trkpt lat="45.35117" lon="5.85306">
        <ele>1726.8</ele>
        <time>2022-04-03T14:39:40Z</time>
      </trkpt>
      <trkpt lat="45.35119" lon="5.85304">
        <ele>1727.8</ele>
        <time>2022-04-03T14:39:44Z</time>
      </trkpt>
      <trkpt lat="45.35123" lon="5.85302">
        <ele>1728.6</ele>
        <time>2022-04-03T14:39:49Z</time>
      </trkpt>
      <trkpt lat="45.35124" lon="5.85301">
        <ele>1728.8</ele>
        <time>2022-04-03T14:39:51Z</time>
      </trkpt>
      <trkpt lat="45.35127" lon="5.853">
        <ele>1730</ele>
        <time>2022-04-03T14:39:56Z</time>
      </trkpt>
      <trkpt lat="45.3513" lon="5.85297">
        <ele>1731</ele>
        <time>2022-04-03T14:40:01Z</time>
      </trkpt>
      <trkpt lat="45.35131" lon="5.85297">
        <ele>1731.8</ele>
        <time>2022-04-03T14:40:10Z</time>
      </trkpt>
      <trkpt lat="45.35132" lon="5.85295">
        <ele>1732</ele>
        <time>2022-04-03T14:40:15Z</time>
      </trkpt>
      <trkpt lat="45.35136" lon="5.85293">
        <ele>1732.8</ele>
        <time>2022-04-03T14:40:20Z</time>
      </trkpt>
      <trkpt lat="45.35136" lon="5.85293">
        <ele>1733.2</ele>
        <time>2022-04-03T14:40:21Z</time>
      </trkpt>
      <trkpt lat="45.35139" lon="5.85292">
        <ele>1734.2</ele>
        <time>2022-04-03T14:40:26Z</time>
      </trkpt>
      <trkpt lat="45.35145" lon="5.8529">
        <ele>1735.2</ele>
        <time>2022-04-03T14:40:32Z</time>
      </trkpt>
      <trkpt lat="45.35148" lon="5.85289">
        <ele>1736.2</ele>
        <time>2022-04-03T14:40:36Z</time>
      </trkpt>
      <trkpt lat="45.35152" lon="5.85288">
        <ele>1737.4</ele>
        <time>2022-04-03T14:40:40Z</time>
      </trkpt>
      <trkpt lat="45.35155" lon="5.85288">
        <ele>1738.4</ele>
        <time>2022-04-03T14:40:45Z</time>
      </trkpt>
      <trkpt lat="45.35156" lon="5.85288">
        <ele>1738.6</ele>
        <time>2022-04-03T14:40:46Z</time>
      </trkpt>
      <trkpt lat="45.35155" lon="5.85287">
        <ele>1738.6</ele>
        <time>2022-04-03T14:40:56Z</time>
      </trkpt>
      <trkpt lat="45.35155" lon="5.85284">
        <ele>1739.2</ele>
        <time>2022-04-03T14:41:12Z</time>
      </trkpt>
      <trkpt lat="45.35154" lon="5.85278">
        <ele>1739.8</ele>
        <time>2022-04-03T14:41:18Z</time>
      </trkpt>
      <trkpt lat="45.35153" lon="5.85276">
        <ele>1740</ele>
        <time>2022-04-03T14:41:20Z</time>
      </trkpt>
      <trkpt lat="45.3515" lon="5.85271">
        <ele>1740</ele>
        <time>2022-04-03T14:41:25Z</time>
      </trkpt>
      <trkpt lat="45.35149" lon="5.8527">
        <ele>1740</ele>
        <time>2022-04-03T14:41:26Z</time>
      </trkpt>
      <trkpt lat="45.35148" lon="5.85269">
        <ele>1741</ele>
        <time>2022-04-03T14:41:27Z</time>
      </trkpt>
      <trkpt lat="45.35147" lon="5.85268">
        <ele>1742.4</ele>
        <time>2022-04-03T14:41:29Z</time>
      </trkpt>
      <trkpt lat="45.35143" lon="5.85266">
        <ele>1743</ele>
        <time>2022-04-03T14:41:34Z</time>
      </trkpt>
      <trkpt lat="45.35141" lon="5.85265">
        <ele>1743.4</ele>
        <time>2022-04-03T14:41:37Z</time>
      </trkpt>
      <trkpt lat="45.35135" lon="5.85263">
        <ele>1743.8</ele>
        <time>2022-04-03T14:41:45Z</time>
      </trkpt>
      <trkpt lat="45.35129" lon="5.85257">
        <ele>1744.2</ele>
        <time>2022-04-03T14:41:56Z</time>
      </trkpt>
      <trkpt lat="45.35127" lon="5.85256">
        <ele>1744.4</ele>
        <time>2022-04-03T14:41:59Z</time>
      </trkpt>
      <trkpt lat="45.35125" lon="5.85255">
        <ele>1745.6</ele>
        <time>2022-04-03T14:42:03Z</time>
      </trkpt>
      <trkpt lat="45.35125" lon="5.85255">
        <ele>1746.2</ele>
        <time>2022-04-03T14:42:09Z</time>
      </trkpt>
      <trkpt lat="45.35125" lon="5.85255">
        <ele>1746.6</ele>
        <time>2022-04-03T14:42:12Z</time>
      </trkpt>
      <trkpt lat="45.35125" lon="5.85254">
        <ele>1747.8</ele>
        <time>2022-04-03T14:42:18Z</time>
      </trkpt>
      <trkpt lat="45.35124" lon="5.85255">
        <ele>1749</ele>
        <time>2022-04-03T14:42:21Z</time>
      </trkpt>
      <trkpt lat="45.35123" lon="5.85255">
        <ele>1750.2</ele>
        <time>2022-04-03T14:42:23Z</time>
      </trkpt>
      <trkpt lat="45.35122" lon="5.85255">
        <ele>1751.2</ele>
        <time>2022-04-03T14:42:25Z</time>
      </trkpt>
      <trkpt lat="45.35121" lon="5.85254">
        <ele>1751.6</ele>
        <time>2022-04-03T14:42:26Z</time>
      </trkpt>
      <trkpt lat="45.35121" lon="5.85254">
        <ele>1752.2</ele>
        <time>2022-04-03T14:42:28Z</time>
      </trkpt>
      <trkpt lat="45.35123" lon="5.85252">
        <ele>1752.8</ele>
        <time>2022-04-03T14:42:35Z</time>
      </trkpt>
      <trkpt lat="45.35125" lon="5.8525">
        <ele>1753.2</ele>
        <time>2022-04-03T14:42:38Z</time>
      </trkpt>
      <trkpt lat="45.35128" lon="5.85246">
        <ele>1754.4</ele>
        <time>2022-04-03T14:42:44Z</time>
      </trkpt>
      <trkpt lat="45.35129" lon="5.85243">
        <ele>1754.8</ele>
        <time>2022-04-03T14:42:46Z</time>
      </trkpt>
      <trkpt lat="45.35133" lon="5.85239">
        <ele>1755.4</ele>
        <time>2022-04-03T14:42:52Z</time>
      </trkpt>
      <trkpt lat="45.35137" lon="5.85235">
        <ele>1756.6</ele>
        <time>2022-04-03T14:42:57Z</time>
      </trkpt>
      <trkpt lat="45.35138" lon="5.85233">
        <ele>1756.8</ele>
        <time>2022-04-03T14:42:59Z</time>
      </trkpt>
      <trkpt lat="45.35142" lon="5.8523">
        <ele>1757.6</ele>
        <time>2022-04-03T14:43:05Z</time>
      </trkpt>
      <trkpt lat="45.35143" lon="5.85227">
        <ele>1758.6</ele>
        <time>2022-04-03T14:43:09Z</time>
      </trkpt>
      <trkpt lat="45.35145" lon="5.85225">
        <ele>1759.4</ele>
        <time>2022-04-03T14:43:12Z</time>
      </trkpt>
      <trkpt lat="45.35146" lon="5.85223">
        <ele>1759.8</ele>
        <time>2022-04-03T14:43:14Z</time>
      </trkpt>
      <trkpt lat="45.35147" lon="5.85219">
        <ele>1761</ele>
        <time>2022-04-03T14:43:18Z</time>
      </trkpt>
      <trkpt lat="45.35151" lon="5.85216">
        <ele>1761.6</ele>
        <time>2022-04-03T14:43:24Z</time>
      </trkpt>
      <trkpt lat="45.35152" lon="5.85216">
        <ele>1762.2</ele>
        <time>2022-04-03T14:43:26Z</time>
      </trkpt>
      <trkpt lat="45.35157" lon="5.85212">
        <ele>1763.2</ele>
        <time>2022-04-03T14:43:32Z</time>
      </trkpt>
      <trkpt lat="45.3516" lon="5.8521">
        <ele>1764</ele>
        <time>2022-04-03T14:43:35Z</time>
      </trkpt>
      <trkpt lat="45.35161" lon="5.85208">
        <ele>1764.2</ele>
        <time>2022-04-03T14:43:37Z</time>
      </trkpt>
      <trkpt lat="45.35163" lon="5.85207">
        <ele>1765.2</ele>
        <time>2022-04-03T14:43:42Z</time>
      </trkpt>
      <trkpt lat="45.35167" lon="5.85206">
        <ele>1766.4</ele>
        <time>2022-04-03T14:43:47Z</time>
      </trkpt>
      <trkpt lat="45.35171" lon="5.85203">
        <ele>1767.6</ele>
        <time>2022-04-03T14:43:54Z</time>
      </trkpt>
      <trkpt lat="45.35172" lon="5.852">
        <ele>1768.2</ele>
        <time>2022-04-03T14:43:58Z</time>
      </trkpt>
      <trkpt lat="45.35173" lon="5.85199">
        <ele>1768.8</ele>
        <time>2022-04-03T14:44:00Z</time>
      </trkpt>
      <trkpt lat="45.35172" lon="5.85192">
        <ele>1770.2</ele>
        <time>2022-04-03T14:44:07Z</time>
      </trkpt>
      <trkpt lat="45.35167" lon="5.85187">
        <ele>1771.4</ele>
        <time>2022-04-03T14:44:14Z</time>
      </trkpt>
      <trkpt lat="45.35164" lon="5.85185">
        <ele>1771.8</ele>
        <time>2022-04-03T14:44:18Z</time>
      </trkpt>
      <trkpt lat="45.35162" lon="5.85183">
        <ele>1772.4</ele>
        <time>2022-04-03T14:44:21Z</time>
      </trkpt>
      <trkpt lat="45.35161" lon="5.85182">
        <ele>1772.4</ele>
        <time>2022-04-03T14:44:22Z</time>
      </trkpt>
      <trkpt lat="45.35154" lon="5.85179">
        <ele>1773.6</ele>
        <time>2022-04-03T14:44:31Z</time>
      </trkpt>
      <trkpt lat="45.35153" lon="5.85179">
        <ele>1774.2</ele>
        <time>2022-04-03T14:44:33Z</time>
      </trkpt>
      <trkpt lat="45.35152" lon="5.85178">
        <ele>1774.8</ele>
        <time>2022-04-03T14:44:35Z</time>
      </trkpt>
      <trkpt lat="45.35148" lon="5.85175">
        <ele>1775.8</ele>
        <time>2022-04-03T14:44:42Z</time>
      </trkpt>
      <trkpt lat="45.35148" lon="5.85174">
        <ele>1775.8</ele>
        <time>2022-04-03T14:44:43Z</time>
      </trkpt>
      <trkpt lat="45.35147" lon="5.8517">
        <ele>1776.8</ele>
        <time>2022-04-03T14:44:48Z</time>
      </trkpt>
      <trkpt lat="45.35148" lon="5.85168">
        <ele>1778</ele>
        <time>2022-04-03T14:44:51Z</time>
      </trkpt>
      <trkpt lat="45.35148" lon="5.85167">
        <ele>1778.4</ele>
        <time>2022-04-03T14:44:53Z</time>
      </trkpt>
      <trkpt lat="45.35148" lon="5.85164">
        <ele>1779.2</ele>
        <time>2022-04-03T14:44:57Z</time>
      </trkpt>
      <trkpt lat="45.35154" lon="5.8516">
        <ele>1779.2</ele>
        <time>2022-04-03T14:45:04Z</time>
      </trkpt>
      <trkpt lat="45.35157" lon="5.8516">
        <ele>1778</ele>
        <time>2022-04-03T14:45:08Z</time>
      </trkpt>
      <trkpt lat="45.35161" lon="5.8516">
        <ele>1777.4</ele>
        <time>2022-04-03T14:45:11Z</time>
      </trkpt>
      <trkpt lat="45.35165" lon="5.85159">
        <ele>1776.8</ele>
        <time>2022-04-03T14:45:13Z</time>
      </trkpt>
      <trkpt lat="45.35167" lon="5.85159">
        <ele>1776.4</ele>
        <time>2022-04-03T14:45:14Z</time>
      </trkpt>
      <trkpt lat="45.35169" lon="5.85157">
        <ele>1775.6</ele>
        <time>2022-04-03T14:45:16Z</time>
      </trkpt>
      <trkpt lat="45.35172" lon="5.85153">
        <ele>1774.8</ele>
        <time>2022-04-03T14:45:19Z</time>
      </trkpt>
      <trkpt lat="45.35175" lon="5.85149">
        <ele>1774.4</ele>
        <time>2022-04-03T14:45:22Z</time>
      </trkpt>
      <trkpt lat="45.35178" lon="5.85145">
        <ele>1774</ele>
        <time>2022-04-03T14:45:25Z</time>
      </trkpt>
      <trkpt lat="45.35187" lon="5.85139">
        <ele>1773.6</ele>
        <time>2022-04-03T14:45:33Z</time>
      </trkpt>
      <trkpt lat="45.35198" lon="5.85135">
        <ele>1773.6</ele>
        <time>2022-04-03T14:45:42Z</time>
      </trkpt>
      <trkpt lat="45.35203" lon="5.85131">
        <ele>1773.4</ele>
        <time>2022-04-03T14:45:47Z</time>
      </trkpt>
      <trkpt lat="45.35205" lon="5.85131">
        <ele>1773.4</ele>
        <time>2022-04-03T14:45:49Z</time>
      </trkpt>
      <trkpt lat="45.3521" lon="5.85128">
        <ele>1773.4</ele>
        <time>2022-04-03T14:45:56Z</time>
      </trkpt>
      <trkpt lat="45.3521" lon="5.85128">
        <ele>1773.6</ele>
        <time>2022-04-03T14:46:05Z</time>
      </trkpt>
      <trkpt lat="45.35212" lon="5.8513">
        <ele>1773.6</ele>
        <time>2022-04-03T14:46:12Z</time>
      </trkpt>
      <trkpt lat="45.35212" lon="5.85132">
        <ele>1772.4</ele>
        <time>2022-04-03T14:46:17Z</time>
      </trkpt>
      <trkpt lat="45.35214" lon="5.85132">
        <ele>1772.4</ele>
        <time>2022-04-03T14:46:20Z</time>
      </trkpt>
      <trkpt lat="45.35215" lon="5.85133">
        <ele>1773</ele>
        <time>2022-04-03T14:46:27Z</time>
      </trkpt>
      <trkpt lat="45.35215" lon="5.85133">
        <ele>1773.4</ele>
        <time>2022-04-03T14:46:32Z</time>
      </trkpt>
      <trkpt lat="45.35214" lon="5.85133">
        <ele>1772.6</ele>
        <time>2022-04-03T14:46:41Z</time>
      </trkpt>
      <trkpt lat="45.35214" lon="5.85131">
        <ele>1772.4</ele>
        <time>2022-04-03T14:46:52Z</time>
      </trkpt>
      <trkpt lat="45.35214" lon="5.85131">
        <ele>1772.2</ele>
        <time>2022-04-03T14:46:53Z</time>
      </trkpt>
      <trkpt lat="45.35212" lon="5.85129">
        <ele>1773</ele>
        <time>2022-04-03T14:47:05Z</time>
      </trkpt>
      <trkpt lat="45.35214" lon="5.85131">
        <ele>1772.6</ele>
        <time>2022-04-03T14:47:21Z</time>
      </trkpt>
      <trkpt lat="45.35213" lon="5.85132">
        <ele>1771.8</ele>
        <time>2022-04-03T14:47:39Z</time>
      </trkpt>
      <trkpt lat="45.35213" lon="5.85133">
        <ele>1772.4</ele>
        <time>2022-04-03T14:47:50Z</time>
      </trkpt>
      <trkpt lat="45.35215" lon="5.85133">
        <ele>1771.6</ele>
        <time>2022-04-03T14:48:04Z</time>
      </trkpt>
      <trkpt lat="45.35212" lon="5.85132">
        <ele>1771.6</ele>
        <time>2022-04-03T14:48:19Z</time>
      </trkpt>
      <trkpt lat="45.35212" lon="5.85132">
        <ele>1771.6</ele>
        <time>2022-04-03T14:48:21Z</time>
      </trkpt>
      <trkpt lat="45.35212" lon="5.85131">
        <ele>1771.6</ele>
        <time>2022-04-03T14:48:41Z</time>
      </trkpt>
      <trkpt lat="45.35213" lon="5.85132">
        <ele>1771.6</ele>
        <time>2022-04-03T14:48:54Z</time>
      </trkpt>
      <trkpt lat="45.35214" lon="5.85132">
        <ele>1771.6</ele>
        <time>2022-04-03T14:49:04Z</time>
      </trkpt>
      <trkpt lat="45.35213" lon="5.85128">
        <ele>1771.6</ele>
        <time>2022-04-03T14:49:17Z</time>
      </trkpt>
      <trkpt lat="45.35213" lon="5.85128">
        <ele>1771.6</ele>
        <time>2022-04-03T14:49:21Z</time>
      </trkpt>
      <trkpt lat="45.35219" lon="5.85129">
        <ele>1771.6</ele>
        <time>2022-04-03T14:49:36Z</time>
      </trkpt>
      <trkpt lat="45.35221" lon="5.85128">
        <ele>1771.6</ele>
        <time>2022-04-03T14:49:38Z</time>
      </trkpt>
      <trkpt lat="45.35232" lon="5.85124">
        <ele>1771</ele>
        <time>2022-04-03T14:49:45Z</time>
      </trkpt>
      <trkpt lat="45.35242" lon="5.85118">
        <ele>1769.4</ele>
        <time>2022-04-03T14:49:49Z</time>
      </trkpt>
      <trkpt lat="45.35246" lon="5.85115">
        <ele>1768.6</ele>
        <time>2022-04-03T14:49:50Z</time>
      </trkpt>
      <trkpt lat="45.3525" lon="5.85113">
        <ele>1768.2</ele>
        <time>2022-04-03T14:49:51Z</time>
      </trkpt>
      <trkpt lat="45.35257" lon="5.85109">
        <ele>1766.4</ele>
        <time>2022-04-03T14:49:53Z</time>
      </trkpt>
      <trkpt lat="45.35261" lon="5.85107">
        <ele>1765.2</ele>
        <time>2022-04-03T14:49:54Z</time>
      </trkpt>
      <trkpt lat="45.35265" lon="5.85105">
        <ele>1763</ele>
        <time>2022-04-03T14:49:55Z</time>
      </trkpt>
      <trkpt lat="45.35269" lon="5.85103">
        <ele>1761.4</ele>
        <time>2022-04-03T14:49:56Z</time>
      </trkpt>
      <trkpt lat="45.35274" lon="5.851">
        <ele>1759.8</ele>
        <time>2022-04-03T14:49:57Z</time>
      </trkpt>
      <trkpt lat="45.35279" lon="5.85096">
        <ele>1758.8</ele>
        <time>2022-04-03T14:49:58Z</time>
      </trkpt>
      <trkpt lat="45.35284" lon="5.85089">
        <ele>1756</ele>
        <time>2022-04-03T14:49:59Z</time>
      </trkpt>
      <trkpt lat="45.35288" lon="5.85081">
        <ele>1754.6</ele>
        <time>2022-04-03T14:50:00Z</time>
      </trkpt>
      <trkpt lat="45.35292" lon="5.85073">
        <ele>1753</ele>
        <time>2022-04-03T14:50:02Z</time>
      </trkpt>
      <trkpt lat="45.35295" lon="5.85058">
        <ele>1752</ele>
        <time>2022-04-03T14:50:03Z</time>
      </trkpt>
      <trkpt lat="45.35297" lon="5.85044">
        <ele>1750.2</ele>
        <time>2022-04-03T14:50:04Z</time>
      </trkpt>
      <trkpt lat="45.35296" lon="5.85036">
        <ele>1748.8</ele>
        <time>2022-04-03T14:50:05Z</time>
      </trkpt>
      <trkpt lat="45.35296" lon="5.8503">
        <ele>1747.6</ele>
        <time>2022-04-03T14:50:06Z</time>
      </trkpt>
      <trkpt lat="45.35297" lon="5.85028">
        <ele>1747</ele>
        <time>2022-04-03T14:50:07Z</time>
      </trkpt>
      <trkpt lat="45.35299" lon="5.85028">
        <ele>1746.8</ele>
        <time>2022-04-03T14:50:11Z</time>
      </trkpt>
      <trkpt lat="45.35299" lon="5.85027">
        <ele>1746.4</ele>
        <time>2022-04-03T14:50:15Z</time>
      </trkpt>
      <trkpt lat="45.35299" lon="5.85028">
        <ele>1746</ele>
        <time>2022-04-03T14:50:19Z</time>
      </trkpt>
      <trkpt lat="45.35301" lon="5.85029">
        <ele>1746.2</ele>
        <time>2022-04-03T14:50:27Z</time>
      </trkpt>
      <trkpt lat="45.35301" lon="5.85029">
        <ele>1746.4</ele>
        <time>2022-04-03T14:50:29Z</time>
      </trkpt>
      <trkpt lat="45.35301" lon="5.8503">
        <ele>1746.6</ele>
        <time>2022-04-03T14:50:35Z</time>
      </trkpt>
      <trkpt lat="45.35302" lon="5.85032">
        <ele>1746.4</ele>
        <time>2022-04-03T14:50:36Z</time>
      </trkpt>
      <trkpt lat="45.35311" lon="5.85038">
        <ele>1745.4</ele>
        <time>2022-04-03T14:50:40Z</time>
      </trkpt>
      <trkpt lat="45.35313" lon="5.85039">
        <ele>1745</ele>
        <time>2022-04-03T14:50:41Z</time>
      </trkpt>
      <trkpt lat="45.35316" lon="5.85041">
        <ele>1743.4</ele>
        <time>2022-04-03T14:50:43Z</time>
      </trkpt>
      <trkpt lat="45.3532" lon="5.85043">
        <ele>1742.4</ele>
        <time>2022-04-03T14:50:45Z</time>
      </trkpt>
      <trkpt lat="45.35327" lon="5.85046">
        <ele>1741</ele>
        <time>2022-04-03T14:50:48Z</time>
      </trkpt>
      <trkpt lat="45.35331" lon="5.85045">
        <ele>1740</ele>
        <time>2022-04-03T14:50:50Z</time>
      </trkpt>
      <trkpt lat="45.35334" lon="5.85043">
        <ele>1739.8</ele>
        <time>2022-04-03T14:50:51Z</time>
      </trkpt>
      <trkpt lat="45.35336" lon="5.85039">
        <ele>1738.8</ele>
        <time>2022-04-03T14:50:52Z</time>
      </trkpt>
      <trkpt lat="45.3534" lon="5.85034">
        <ele>1736.6</ele>
        <time>2022-04-03T14:50:54Z</time>
      </trkpt>
      <trkpt lat="45.35345" lon="5.8503">
        <ele>1735</ele>
        <time>2022-04-03T14:50:56Z</time>
      </trkpt>
      <trkpt lat="45.35348" lon="5.85029">
        <ele>1733.6</ele>
        <time>2022-04-03T14:50:57Z</time>
      </trkpt>
      <trkpt lat="45.3535" lon="5.85028">
        <ele>1732.6</ele>
        <time>2022-04-03T14:50:58Z</time>
      </trkpt>
      <trkpt lat="45.35351" lon="5.85026">
        <ele>1731</ele>
        <time>2022-04-03T14:50:59Z</time>
      </trkpt>
      <trkpt lat="45.35354" lon="5.85023">
        <ele>1729.6</ele>
        <time>2022-04-03T14:51:01Z</time>
      </trkpt>
      <trkpt lat="45.35357" lon="5.85021">
        <ele>1728.6</ele>
        <time>2022-04-03T14:51:03Z</time>
      </trkpt>
      <trkpt lat="45.35366" lon="5.85015">
        <ele>1727.6</ele>
        <time>2022-04-03T14:51:05Z</time>
      </trkpt>
      <trkpt lat="45.3537" lon="5.8501">
        <ele>1726.2</ele>
        <time>2022-04-03T14:51:06Z</time>
      </trkpt>
      <trkpt lat="45.35379" lon="5.85">
        <ele>1723.2</ele>
        <time>2022-04-03T14:51:08Z</time>
      </trkpt>
      <trkpt lat="45.35383" lon="5.84994">
        <ele>1721</ele>
        <time>2022-04-03T14:51:09Z</time>
      </trkpt>
      <trkpt lat="45.35387" lon="5.84986">
        <ele>1719.8</ele>
        <time>2022-04-03T14:51:10Z</time>
      </trkpt>
      <trkpt lat="45.3539" lon="5.84979">
        <ele>1718</ele>
        <time>2022-04-03T14:51:11Z</time>
      </trkpt>
      <trkpt lat="45.35393" lon="5.84974">
        <ele>1716.2</ele>
        <time>2022-04-03T14:51:12Z</time>
      </trkpt>
      <trkpt lat="45.35395" lon="5.8497">
        <ele>1714.6</ele>
        <time>2022-04-03T14:51:13Z</time>
      </trkpt>
      <trkpt lat="45.35399" lon="5.84963">
        <ele>1712.6</ele>
        <time>2022-04-03T14:51:15Z</time>
      </trkpt>
      <trkpt lat="45.35401" lon="5.84962">
        <ele>1711.6</ele>
        <time>2022-04-03T14:51:16Z</time>
      </trkpt>
      <trkpt lat="45.35403" lon="5.84962">
        <ele>1710.4</ele>
        <time>2022-04-03T14:51:17Z</time>
      </trkpt>
      <trkpt lat="45.35408" lon="5.8496">
        <ele>1708.6</ele>
        <time>2022-04-03T14:51:19Z</time>
      </trkpt>
      <trkpt lat="45.35411" lon="5.84957">
        <ele>1707.4</ele>
        <time>2022-04-03T14:51:20Z</time>
      </trkpt>
      <trkpt lat="45.35416" lon="5.84952">
        <ele>1705.2</ele>
        <time>2022-04-03T14:51:22Z</time>
      </trkpt>
      <trkpt lat="45.35418" lon="5.8495">
        <ele>1703.8</ele>
        <time>2022-04-03T14:51:23Z</time>
      </trkpt>
      <trkpt lat="45.35419" lon="5.84949">
        <ele>1703</ele>
        <time>2022-04-03T14:51:24Z</time>
      </trkpt>
      <trkpt lat="45.35419" lon="5.84949">
        <ele>1701.8</ele>
        <time>2022-04-03T14:51:25Z</time>
      </trkpt>
      <trkpt lat="45.3542" lon="5.84946">
        <ele>1701.2</ele>
        <time>2022-04-03T14:51:29Z</time>
      </trkpt>
      <trkpt lat="45.35422" lon="5.84943">
        <ele>1701.2</ele>
        <time>2022-04-03T14:51:30Z</time>
      </trkpt>
      <trkpt lat="45.35424" lon="5.8494">
        <ele>1700.6</ele>
        <time>2022-04-03T14:51:31Z</time>
      </trkpt>
      <trkpt lat="45.35429" lon="5.84933">
        <ele>1698.8</ele>
        <time>2022-04-03T14:51:33Z</time>
      </trkpt>
      <trkpt lat="45.35432" lon="5.84929">
        <ele>1697.6</ele>
        <time>2022-04-03T14:51:34Z</time>
      </trkpt>
      <trkpt lat="45.35435" lon="5.84925">
        <ele>1695.6</ele>
        <time>2022-04-03T14:51:35Z</time>
      </trkpt>
      <trkpt lat="45.35438" lon="5.84921">
        <ele>1694.6</ele>
        <time>2022-04-03T14:51:36Z</time>
      </trkpt>
      <trkpt lat="45.35441" lon="5.84918">
        <ele>1692.8</ele>
        <time>2022-04-03T14:51:37Z</time>
      </trkpt>
      <trkpt lat="45.35444" lon="5.84917">
        <ele>1691.6</ele>
        <time>2022-04-03T14:51:38Z</time>
      </trkpt>
      <trkpt lat="45.35446" lon="5.84915">
        <ele>1690.6</ele>
        <time>2022-04-03T14:51:39Z</time>
      </trkpt>
      <trkpt lat="45.35451" lon="5.84911">
        <ele>1688.2</ele>
        <time>2022-04-03T14:51:41Z</time>
      </trkpt>
      <trkpt lat="45.35453" lon="5.84909">
        <ele>1686.8</ele>
        <time>2022-04-03T14:51:42Z</time>
      </trkpt>
      <trkpt lat="45.35457" lon="5.84905">
        <ele>1685.2</ele>
        <time>2022-04-03T14:51:44Z</time>
      </trkpt>
      <trkpt lat="45.3546" lon="5.849">
        <ele>1683.4</ele>
        <time>2022-04-03T14:51:46Z</time>
      </trkpt>
      <trkpt lat="45.35466" lon="5.84895">
        <ele>1682.2</ele>
        <time>2022-04-03T14:51:48Z</time>
      </trkpt>
      <trkpt lat="45.35473" lon="5.84889">
        <ele>1680.8</ele>
        <time>2022-04-03T14:51:50Z</time>
      </trkpt>
      <trkpt lat="45.35477" lon="5.84888">
        <ele>1680</ele>
        <time>2022-04-03T14:51:51Z</time>
      </trkpt>
      <trkpt lat="45.35481" lon="5.84889">
        <ele>1678.4</ele>
        <time>2022-04-03T14:51:52Z</time>
      </trkpt>
      <trkpt lat="45.35484" lon="5.84891">
        <ele>1677</ele>
        <time>2022-04-03T14:51:53Z</time>
      </trkpt>
      <trkpt lat="45.35486" lon="5.84894">
        <ele>1675.6</ele>
        <time>2022-04-03T14:51:54Z</time>
      </trkpt>
      <trkpt lat="45.35488" lon="5.84895">
        <ele>1674.4</ele>
        <time>2022-04-03T14:51:55Z</time>
      </trkpt>
      <trkpt lat="45.35489" lon="5.84896">
        <ele>1673</ele>
        <time>2022-04-03T14:51:57Z</time>
      </trkpt>
      <trkpt lat="45.35489" lon="5.84895">
        <ele>1672.4</ele>
        <time>2022-04-03T14:51:59Z</time>
      </trkpt>
      <trkpt lat="45.35489" lon="5.84895">
        <ele>1671.8</ele>
        <time>2022-04-03T14:52:01Z</time>
      </trkpt>
      <trkpt lat="45.3549" lon="5.84893">
        <ele>1671.4</ele>
        <time>2022-04-03T14:52:06Z</time>
      </trkpt>
      <trkpt lat="45.35491" lon="5.8489">
        <ele>1670.6</ele>
        <time>2022-04-03T14:52:08Z</time>
      </trkpt>
      <trkpt lat="45.35494" lon="5.8489">
        <ele>1670.4</ele>
        <time>2022-04-03T14:52:09Z</time>
      </trkpt>
      <trkpt lat="45.35497" lon="5.84894">
        <ele>1669.2</ele>
        <time>2022-04-03T14:52:10Z</time>
      </trkpt>
      <trkpt lat="45.35501" lon="5.84898">
        <ele>1667.8</ele>
        <time>2022-04-03T14:52:11Z</time>
      </trkpt>
      <trkpt lat="45.35504" lon="5.84902">
        <ele>1666.6</ele>
        <time>2022-04-03T14:52:12Z</time>
      </trkpt>
      <trkpt lat="45.35506" lon="5.84905">
        <ele>1664.8</ele>
        <time>2022-04-03T14:52:13Z</time>
      </trkpt>
      <trkpt lat="45.35508" lon="5.84907">
        <ele>1663.2</ele>
        <time>2022-04-03T14:52:14Z</time>
      </trkpt>
      <trkpt lat="45.35509" lon="5.84908">
        <ele>1662.4</ele>
        <time>2022-04-03T14:52:15Z</time>
      </trkpt>
      <trkpt lat="45.35511" lon="5.84908">
        <ele>1662</ele>
        <time>2022-04-03T14:52:16Z</time>
      </trkpt>
      <trkpt lat="45.35519" lon="5.84905">
        <ele>1659.6</ele>
        <time>2022-04-03T14:52:19Z</time>
      </trkpt>
      <trkpt lat="45.35522" lon="5.84902">
        <ele>1657.6</ele>
        <time>2022-04-03T14:52:20Z</time>
      </trkpt>
      <trkpt lat="45.35524" lon="5.84899">
        <ele>1656.4</ele>
        <time>2022-04-03T14:52:21Z</time>
      </trkpt>
      <trkpt lat="45.35527" lon="5.84896">
        <ele>1655.2</ele>
        <time>2022-04-03T14:52:22Z</time>
      </trkpt>
      <trkpt lat="45.3553" lon="5.84894">
        <ele>1654</ele>
        <time>2022-04-03T14:52:23Z</time>
      </trkpt>
      <trkpt lat="45.35534" lon="5.84894">
        <ele>1653</ele>
        <time>2022-04-03T14:52:24Z</time>
      </trkpt>
      <trkpt lat="45.35536" lon="5.84895">
        <ele>1652.4</ele>
        <time>2022-04-03T14:52:25Z</time>
      </trkpt>
      <trkpt lat="45.35537" lon="5.84895">
        <ele>1650.6</ele>
        <time>2022-04-03T14:52:26Z</time>
      </trkpt>
      <trkpt lat="45.35538" lon="5.84894">
        <ele>1649.4</ele>
        <time>2022-04-03T14:52:27Z</time>
      </trkpt>
      <trkpt lat="45.35541" lon="5.84893">
        <ele>1648.8</ele>
        <time>2022-04-03T14:52:28Z</time>
      </trkpt>
      <trkpt lat="45.35544" lon="5.84893">
        <ele>1648.2</ele>
        <time>2022-04-03T14:52:29Z</time>
      </trkpt>
      <trkpt lat="45.3555" lon="5.8489">
        <ele>1646.4</ele>
        <time>2022-04-03T14:52:31Z</time>
      </trkpt>
      <trkpt lat="45.35554" lon="5.84887">
        <ele>1645</ele>
        <time>2022-04-03T14:52:32Z</time>
      </trkpt>
      <trkpt lat="45.3556" lon="5.84882">
        <ele>1643.6</ele>
        <time>2022-04-03T14:52:34Z</time>
      </trkpt>
      <trkpt lat="45.35571" lon="5.84874">
        <ele>1641.8</ele>
        <time>2022-04-03T14:52:37Z</time>
      </trkpt>
      <trkpt lat="45.35574" lon="5.84874">
        <ele>1640.8</ele>
        <time>2022-04-03T14:52:38Z</time>
      </trkpt>
      <trkpt lat="45.35578" lon="5.84873">
        <ele>1638.6</ele>
        <time>2022-04-03T14:52:39Z</time>
      </trkpt>
      <trkpt lat="45.35583" lon="5.84871">
        <ele>1636.2</ele>
        <time>2022-04-03T14:52:40Z</time>
      </trkpt>
      <trkpt lat="45.35586" lon="5.84867">
        <ele>1634.8</ele>
        <time>2022-04-03T14:52:41Z</time>
      </trkpt>
      <trkpt lat="45.3559" lon="5.84864">
        <ele>1633.2</ele>
        <time>2022-04-03T14:52:42Z</time>
      </trkpt>
      <trkpt lat="45.35592" lon="5.84862">
        <ele>1632.2</ele>
        <time>2022-04-03T14:52:43Z</time>
      </trkpt>
      <trkpt lat="45.35597" lon="5.84858">
        <ele>1630.2</ele>
        <time>2022-04-03T14:52:45Z</time>
      </trkpt>
      <trkpt lat="45.356" lon="5.84856">
        <ele>1628.6</ele>
        <time>2022-04-03T14:52:46Z</time>
      </trkpt>
      <trkpt lat="45.35604" lon="5.84852">
        <ele>1626.4</ele>
        <time>2022-04-03T14:52:47Z</time>
      </trkpt>
      <trkpt lat="45.35607" lon="5.84848">
        <ele>1625.2</ele>
        <time>2022-04-03T14:52:48Z</time>
      </trkpt>
      <trkpt lat="45.35611" lon="5.84843">
        <ele>1623.6</ele>
        <time>2022-04-03T14:52:49Z</time>
      </trkpt>
      <trkpt lat="45.35619" lon="5.84834">
        <ele>1620.8</ele>
        <time>2022-04-03T14:52:50Z</time>
      </trkpt>
      <trkpt lat="45.35623" lon="5.84831">
        <ele>1618.8</ele>
        <time>2022-04-03T14:52:52Z</time>
      </trkpt>
      <trkpt lat="45.35627" lon="5.84827">
        <ele>1617</ele>
        <time>2022-04-03T14:52:53Z</time>
      </trkpt>
      <trkpt lat="45.35631" lon="5.84824">
        <ele>1615.4</ele>
        <time>2022-04-03T14:52:54Z</time>
      </trkpt>
      <trkpt lat="45.35634" lon="5.84821">
        <ele>1613.4</ele>
        <time>2022-04-03T14:52:55Z</time>
      </trkpt>
      <trkpt lat="45.35637" lon="5.84816">
        <ele>1611.4</ele>
        <time>2022-04-03T14:52:56Z</time>
      </trkpt>
      <trkpt lat="45.35639" lon="5.84813">
        <ele>1610</ele>
        <time>2022-04-03T14:52:57Z</time>
      </trkpt>
      <trkpt lat="45.3564" lon="5.8481">
        <ele>1608.8</ele>
        <time>2022-04-03T14:52:58Z</time>
      </trkpt>
      <trkpt lat="45.35645" lon="5.84803">
        <ele>1607.4</ele>
        <time>2022-04-03T14:53:00Z</time>
      </trkpt>
      <trkpt lat="45.35648" lon="5.848">
        <ele>1606.8</ele>
        <time>2022-04-03T14:53:01Z</time>
      </trkpt>
      <trkpt lat="45.35651" lon="5.84795">
        <ele>1606.4</ele>
        <time>2022-04-03T14:53:02Z</time>
      </trkpt>
      <trkpt lat="45.35658" lon="5.84783">
        <ele>1604.8</ele>
        <time>2022-04-03T14:53:04Z</time>
      </trkpt>
      <trkpt lat="45.35665" lon="5.84769">
        <ele>1603.6</ele>
        <time>2022-04-03T14:53:06Z</time>
      </trkpt>
      <trkpt lat="45.35668" lon="5.84762">
        <ele>1602.6</ele>
        <time>2022-04-03T14:53:08Z</time>
      </trkpt>
      <trkpt lat="45.3567" lon="5.84759">
        <ele>1602</ele>
        <time>2022-04-03T14:53:09Z</time>
      </trkpt>
      <trkpt lat="45.35674" lon="5.84753">
        <ele>1601.4</ele>
        <time>2022-04-03T14:53:11Z</time>
      </trkpt>
      <trkpt lat="45.35681" lon="5.84742">
        <ele>1600.6</ele>
        <time>2022-04-03T14:53:13Z</time>
      </trkpt>
      <trkpt lat="45.35683" lon="5.84736">
        <ele>1599.8</ele>
        <time>2022-04-03T14:53:14Z</time>
      </trkpt>
      <trkpt lat="45.3569" lon="5.84723">
        <ele>1598.2</ele>
        <time>2022-04-03T14:53:17Z</time>
      </trkpt>
      <trkpt lat="45.35695" lon="5.84718">
        <ele>1596.8</ele>
        <time>2022-04-03T14:53:19Z</time>
      </trkpt>
      <trkpt lat="45.35698" lon="5.84715">
        <ele>1595.8</ele>
        <time>2022-04-03T14:53:20Z</time>
      </trkpt>
      <trkpt lat="45.35707" lon="5.84709">
        <ele>1593.6</ele>
        <time>2022-04-03T14:53:22Z</time>
      </trkpt>
      <trkpt lat="45.35715" lon="5.84704">
        <ele>1592</ele>
        <time>2022-04-03T14:53:24Z</time>
      </trkpt>
      <trkpt lat="45.35719" lon="5.84701">
        <ele>1591.2</ele>
        <time>2022-04-03T14:53:25Z</time>
      </trkpt>
      <trkpt lat="45.3572" lon="5.84691">
        <ele>1590.6</ele>
        <time>2022-04-03T14:53:27Z</time>
      </trkpt>
      <trkpt lat="45.35721" lon="5.84688">
        <ele>1590.6</ele>
        <time>2022-04-03T14:53:29Z</time>
      </trkpt>
      <trkpt lat="45.35722" lon="5.84686">
        <ele>1590.6</ele>
        <time>2022-04-03T14:53:31Z</time>
      </trkpt>
      <trkpt lat="45.35725" lon="5.84681">
        <ele>1591.2</ele>
        <time>2022-04-03T14:53:36Z</time>
      </trkpt>
      <trkpt lat="45.35725" lon="5.84678">
        <ele>1591.2</ele>
        <time>2022-04-03T14:53:38Z</time>
      </trkpt>
      <trkpt lat="45.35725" lon="5.84677">
        <ele>1591.4</ele>
        <time>2022-04-03T14:53:39Z</time>
      </trkpt>
      <trkpt lat="45.35726" lon="5.84671">
        <ele>1591</ele>
        <time>2022-04-03T14:53:44Z</time>
      </trkpt>
      <trkpt lat="45.35729" lon="5.84661">
        <ele>1590.4</ele>
        <time>2022-04-03T14:53:51Z</time>
      </trkpt>
      <trkpt lat="45.3573" lon="5.84646">
        <ele>1590.4</ele>
        <time>2022-04-03T14:53:55Z</time>
      </trkpt>
      <trkpt lat="45.35733" lon="5.84623">
        <ele>1589.2</ele>
        <time>2022-04-03T14:53:58Z</time>
      </trkpt>
      <trkpt lat="45.35738" lon="5.84611">
        <ele>1587.6</ele>
        <time>2022-04-03T14:54:00Z</time>
      </trkpt>
      <trkpt lat="45.35739" lon="5.84605">
        <ele>1587.2</ele>
        <time>2022-04-03T14:54:01Z</time>
      </trkpt>
      <trkpt lat="45.3574" lon="5.84598">
        <ele>1586.8</ele>
        <time>2022-04-03T14:54:02Z</time>
      </trkpt>
      <trkpt lat="45.35741" lon="5.8459">
        <ele>1586.6</ele>
        <time>2022-04-03T14:54:03Z</time>
      </trkpt>
      <trkpt lat="45.35744" lon="5.84583">
        <ele>1585.6</ele>
        <time>2022-04-03T14:54:04Z</time>
      </trkpt>
      <trkpt lat="45.35748" lon="5.84576">
        <ele>1584</ele>
        <time>2022-04-03T14:54:05Z</time>
      </trkpt>
      <trkpt lat="45.35752" lon="5.84572">
        <ele>1582.6</ele>
        <time>2022-04-03T14:54:06Z</time>
      </trkpt>
      <trkpt lat="45.35757" lon="5.84567">
        <ele>1580</ele>
        <time>2022-04-03T14:54:07Z</time>
      </trkpt>
      <trkpt lat="45.35762" lon="5.84563">
        <ele>1577.8</ele>
        <time>2022-04-03T14:54:08Z</time>
      </trkpt>
      <trkpt lat="45.35768" lon="5.84562">
        <ele>1576.4</ele>
        <time>2022-04-03T14:54:09Z</time>
      </trkpt>
      <trkpt lat="45.35773" lon="5.84559">
        <ele>1573.6</ele>
        <time>2022-04-03T14:54:10Z</time>
      </trkpt>
      <trkpt lat="45.35779" lon="5.84556">
        <ele>1572</ele>
        <time>2022-04-03T14:54:11Z</time>
      </trkpt>
      <trkpt lat="45.35785" lon="5.84555">
        <ele>1571</ele>
        <time>2022-04-03T14:54:12Z</time>
      </trkpt>
      <trkpt lat="45.35792" lon="5.84554">
        <ele>1568.4</ele>
        <time>2022-04-03T14:54:13Z</time>
      </trkpt>
      <trkpt lat="45.35801" lon="5.84553">
        <ele>1565.8</ele>
        <time>2022-04-03T14:54:14Z</time>
      </trkpt>
      <trkpt lat="45.35809" lon="5.84547">
        <ele>1563.8</ele>
        <time>2022-04-03T14:54:15Z</time>
      </trkpt>
      <trkpt lat="45.35817" lon="5.84538">
        <ele>1562.6</ele>
        <time>2022-04-03T14:54:16Z</time>
      </trkpt>
      <trkpt lat="45.35825" lon="5.84528">
        <ele>1559.2</ele>
        <time>2022-04-03T14:54:17Z</time>
      </trkpt>
      <trkpt lat="45.35832" lon="5.8452">
        <ele>1556</ele>
        <time>2022-04-03T14:54:18Z</time>
      </trkpt>
      <trkpt lat="45.35839" lon="5.84512">
        <ele>1554.2</ele>
        <time>2022-04-03T14:54:19Z</time>
      </trkpt>
      <trkpt lat="45.35845" lon="5.84505">
        <ele>1552.8</ele>
        <time>2022-04-03T14:54:20Z</time>
      </trkpt>
      <trkpt lat="45.3585" lon="5.84501">
        <ele>1551.2</ele>
        <time>2022-04-03T14:54:21Z</time>
      </trkpt>
      <trkpt lat="45.35854" lon="5.845">
        <ele>1550</ele>
        <time>2022-04-03T14:54:22Z</time>
      </trkpt>
      <trkpt lat="45.35857" lon="5.84499">
        <ele>1549.2</ele>
        <time>2022-04-03T14:54:23Z</time>
      </trkpt>
      <trkpt lat="45.35858" lon="5.845">
        <ele>1548.4</ele>
        <time>2022-04-03T14:54:24Z</time>
      </trkpt>
      <trkpt lat="45.35863" lon="5.84502">
        <ele>1547.2</ele>
        <time>2022-04-03T14:54:27Z</time>
      </trkpt>
      <trkpt lat="45.35874" lon="5.84506">
        <ele>1545.8</ele>
        <time>2022-04-03T14:54:31Z</time>
      </trkpt>
      <trkpt lat="45.35878" lon="5.84507">
        <ele>1545.4</ele>
        <time>2022-04-03T14:54:32Z</time>
      </trkpt>
      <trkpt lat="45.35882" lon="5.84506">
        <ele>1544.2</ele>
        <time>2022-04-03T14:54:33Z</time>
      </trkpt>
      <trkpt lat="45.35886" lon="5.84503">
        <ele>1543.4</ele>
        <time>2022-04-03T14:54:34Z</time>
      </trkpt>
      <trkpt lat="45.35889" lon="5.84498">
        <ele>1542.4</ele>
        <time>2022-04-03T14:54:35Z</time>
      </trkpt>
      <trkpt lat="45.35892" lon="5.84492">
        <ele>1540.2</ele>
        <time>2022-04-03T14:54:36Z</time>
      </trkpt>
      <trkpt lat="45.35895" lon="5.84485">
        <ele>1538</ele>
        <time>2022-04-03T14:54:37Z</time>
      </trkpt>
      <trkpt lat="45.35896" lon="5.84477">
        <ele>1536.4</ele>
        <time>2022-04-03T14:54:38Z</time>
      </trkpt>
      <trkpt lat="45.35899" lon="5.84469">
        <ele>1534.4</ele>
        <time>2022-04-03T14:54:39Z</time>
      </trkpt>
      <trkpt lat="45.35901" lon="5.8446">
        <ele>1530.8</ele>
        <time>2022-04-03T14:54:40Z</time>
      </trkpt>
      <trkpt lat="45.35904" lon="5.84451">
        <ele>1527.4</ele>
        <time>2022-04-03T14:54:41Z</time>
      </trkpt>
      <trkpt lat="45.35907" lon="5.84446">
        <ele>1522.2</ele>
        <time>2022-04-03T14:54:42Z</time>
      </trkpt>
      <trkpt lat="45.35909" lon="5.84443">
        <ele>1519.6</ele>
        <time>2022-04-03T14:54:43Z</time>
      </trkpt>
      <trkpt lat="45.3591" lon="5.84442">
        <ele>1518.2</ele>
        <time>2022-04-03T14:54:44Z</time>
      </trkpt>
      <trkpt lat="45.35911" lon="5.84439">
        <ele>1517.6</ele>
        <time>2022-04-03T14:54:45Z</time>
      </trkpt>
      <trkpt lat="45.35911" lon="5.84436">
        <ele>1516.4</ele>
        <time>2022-04-03T14:54:46Z</time>
      </trkpt>
      <trkpt lat="45.3591" lon="5.84433">
        <ele>1515.8</ele>
        <time>2022-04-03T14:54:47Z</time>
      </trkpt>
      <trkpt lat="45.35907" lon="5.84428">
        <ele>1515.2</ele>
        <time>2022-04-03T14:54:48Z</time>
      </trkpt>
      <trkpt lat="45.359" lon="5.84418">
        <ele>1513.8</ele>
        <time>2022-04-03T14:54:49Z</time>
      </trkpt>
      <trkpt lat="45.35895" lon="5.84411">
        <ele>1511.8</ele>
        <time>2022-04-03T14:54:50Z</time>
      </trkpt>
      <trkpt lat="45.35891" lon="5.84403">
        <ele>1508.4</ele>
        <time>2022-04-03T14:54:51Z</time>
      </trkpt>
      <trkpt lat="45.35888" lon="5.84396">
        <ele>1506.6</ele>
        <time>2022-04-03T14:54:52Z</time>
      </trkpt>
      <trkpt lat="45.35887" lon="5.84391">
        <ele>1505.2</ele>
        <time>2022-04-03T14:54:53Z</time>
      </trkpt>
      <trkpt lat="45.35887" lon="5.84389">
        <ele>1503.4</ele>
        <time>2022-04-03T14:54:54Z</time>
      </trkpt>
      <trkpt lat="45.35886" lon="5.84388">
        <ele>1501.8</ele>
        <time>2022-04-03T14:54:56Z</time>
      </trkpt>
      <trkpt lat="45.35887" lon="5.84389">
        <ele>1501.4</ele>
        <time>2022-04-03T14:54:59Z</time>
      </trkpt>
      <trkpt lat="45.35887" lon="5.84389">
        <ele>1501.2</ele>
        <time>2022-04-03T14:55:05Z</time>
      </trkpt>
      <trkpt lat="45.35887" lon="5.84384">
        <ele>1501.2</ele>
        <time>2022-04-03T14:55:07Z</time>
      </trkpt>
      <trkpt lat="45.35884" lon="5.84379">
        <ele>1500.8</ele>
        <time>2022-04-03T14:55:09Z</time>
      </trkpt>
      <trkpt lat="45.35883" lon="5.84377">
        <ele>1500.4</ele>
        <time>2022-04-03T14:55:10Z</time>
      </trkpt>
      <trkpt lat="45.35882" lon="5.84375">
        <ele>1500</ele>
        <time>2022-04-03T14:55:11Z</time>
      </trkpt>
      <trkpt lat="45.35885" lon="5.84371">
        <ele>1499</ele>
        <time>2022-04-03T14:55:13Z</time>
      </trkpt>
      <trkpt lat="45.3589" lon="5.84369">
        <ele>1496.8</ele>
        <time>2022-04-03T14:55:15Z</time>
      </trkpt>
      <trkpt lat="45.35893" lon="5.84368">
        <ele>1495.6</ele>
        <time>2022-04-03T14:55:16Z</time>
      </trkpt>
      <trkpt lat="45.359" lon="5.84369">
        <ele>1493.8</ele>
        <time>2022-04-03T14:55:18Z</time>
      </trkpt>
      <trkpt lat="45.35904" lon="5.8437">
        <ele>1492.6</ele>
        <time>2022-04-03T14:55:19Z</time>
      </trkpt>
      <trkpt lat="45.35908" lon="5.8437">
        <ele>1491.2</ele>
        <time>2022-04-03T14:55:20Z</time>
      </trkpt>
      <trkpt lat="45.3591" lon="5.8437">
        <ele>1490</ele>
        <time>2022-04-03T14:55:21Z</time>
      </trkpt>
      <trkpt lat="45.35913" lon="5.84366">
        <ele>1488.6</ele>
        <time>2022-04-03T14:55:23Z</time>
      </trkpt>
      <trkpt lat="45.35912" lon="5.84362">
        <ele>1487.6</ele>
        <time>2022-04-03T14:55:24Z</time>
      </trkpt>
      <trkpt lat="45.3591" lon="5.84359">
        <ele>1486.4</ele>
        <time>2022-04-03T14:55:25Z</time>
      </trkpt>
      <trkpt lat="45.35908" lon="5.84356">
        <ele>1485.4</ele>
        <time>2022-04-03T14:55:26Z</time>
      </trkpt>
      <trkpt lat="45.35906" lon="5.84352">
        <ele>1484.2</ele>
        <time>2022-04-03T14:55:27Z</time>
      </trkpt>
      <trkpt lat="45.35905" lon="5.84349">
        <ele>1483</ele>
        <time>2022-04-03T14:55:28Z</time>
      </trkpt>
      <trkpt lat="45.35905" lon="5.84346">
        <ele>1481.6</ele>
        <time>2022-04-03T14:55:29Z</time>
      </trkpt>
      <trkpt lat="45.35905" lon="5.84338">
        <ele>1478.8</ele>
        <time>2022-04-03T14:55:31Z</time>
      </trkpt>
      <trkpt lat="45.35905" lon="5.84333">
        <ele>1477.4</ele>
        <time>2022-04-03T14:55:32Z</time>
      </trkpt>
      <trkpt lat="45.35908" lon="5.84333">
        <ele>1476</ele>
        <time>2022-04-03T14:55:33Z</time>
      </trkpt>
      <trkpt lat="45.35911" lon="5.84332">
        <ele>1474.2</ele>
        <time>2022-04-03T14:55:34Z</time>
      </trkpt>
      <trkpt lat="45.35915" lon="5.84331">
        <ele>1472</ele>
        <time>2022-04-03T14:55:35Z</time>
      </trkpt>
      <trkpt lat="45.35919" lon="5.84329">
        <ele>1469.8</ele>
        <time>2022-04-03T14:55:36Z</time>
      </trkpt>
      <trkpt lat="45.35924" lon="5.84325">
        <ele>1468.4</ele>
        <time>2022-04-03T14:55:37Z</time>
      </trkpt>
      <trkpt lat="45.35927" lon="5.84321">
        <ele>1466.6</ele>
        <time>2022-04-03T14:55:38Z</time>
      </trkpt>
      <trkpt lat="45.35929" lon="5.84316">
        <ele>1464.2</ele>
        <time>2022-04-03T14:55:39Z</time>
      </trkpt>
      <trkpt lat="45.35931" lon="5.84312">
        <ele>1462.4</ele>
        <time>2022-04-03T14:55:40Z</time>
      </trkpt>
      <trkpt lat="45.35932" lon="5.84306">
        <ele>1459.4</ele>
        <time>2022-04-03T14:55:41Z</time>
      </trkpt>
      <trkpt lat="45.35934" lon="5.843">
        <ele>1457.6</ele>
        <time>2022-04-03T14:55:42Z</time>
      </trkpt>
      <trkpt lat="45.35935" lon="5.84296">
        <ele>1454.8</ele>
        <time>2022-04-03T14:55:43Z</time>
      </trkpt>
      <trkpt lat="45.35935" lon="5.84291">
        <ele>1451.8</ele>
        <time>2022-04-03T14:55:44Z</time>
      </trkpt>
      <trkpt lat="45.35934" lon="5.84285">
        <ele>1449.4</ele>
        <time>2022-04-03T14:55:45Z</time>
      </trkpt>
      <trkpt lat="45.35934" lon="5.84279">
        <ele>1447.4</ele>
        <time>2022-04-03T14:55:46Z</time>
      </trkpt>
      <trkpt lat="45.35935" lon="5.84274">
        <ele>1445.4</ele>
        <time>2022-04-03T14:55:47Z</time>
      </trkpt>
      <trkpt lat="45.35937" lon="5.84271">
        <ele>1442.8</ele>
        <time>2022-04-03T14:55:48Z</time>
      </trkpt>
      <trkpt lat="45.35941" lon="5.84271">
        <ele>1439.2</ele>
        <time>2022-04-03T14:55:49Z</time>
      </trkpt>
      <trkpt lat="45.35943" lon="5.84271">
        <ele>1437.4</ele>
        <time>2022-04-03T14:55:50Z</time>
      </trkpt>
      <trkpt lat="45.35945" lon="5.84271">
        <ele>1436.2</ele>
        <time>2022-04-03T14:55:51Z</time>
      </trkpt>
      <trkpt lat="45.35947" lon="5.84271">
        <ele>1435.2</ele>
        <time>2022-04-03T14:55:52Z</time>
      </trkpt>
      <trkpt lat="45.35948" lon="5.84272">
        <ele>1433.8</ele>
        <time>2022-04-03T14:55:54Z</time>
      </trkpt>
      <trkpt lat="45.35949" lon="5.84273">
        <ele>1433.4</ele>
        <time>2022-04-03T14:55:56Z</time>
      </trkpt>
      <trkpt lat="45.35949" lon="5.84271">
        <ele>1432.8</ele>
        <time>2022-04-03T14:56:02Z</time>
      </trkpt>
      <trkpt lat="45.35948" lon="5.84269">
        <ele>1432.6</ele>
        <time>2022-04-03T14:56:03Z</time>
      </trkpt>
      <trkpt lat="45.35945" lon="5.84259">
        <ele>1431.6</ele>
        <time>2022-04-03T14:56:06Z</time>
      </trkpt>
      <trkpt lat="45.35947" lon="5.84256">
        <ele>1431.2</ele>
        <time>2022-04-03T14:56:07Z</time>
      </trkpt>
      <trkpt lat="45.3595" lon="5.84254">
        <ele>1430.2</ele>
        <time>2022-04-03T14:56:08Z</time>
      </trkpt>
      <trkpt lat="45.35952" lon="5.84251">
        <ele>1427.8</ele>
        <time>2022-04-03T14:56:09Z</time>
      </trkpt>
      <trkpt lat="45.35955" lon="5.84246">
        <ele>1426.2</ele>
        <time>2022-04-03T14:56:10Z</time>
      </trkpt>
      <trkpt lat="45.35958" lon="5.84243">
        <ele>1425.4</ele>
        <time>2022-04-03T14:56:11Z</time>
      </trkpt>
      <trkpt lat="45.35961" lon="5.84239">
        <ele>1423</ele>
        <time>2022-04-03T14:56:12Z</time>
      </trkpt>
      <trkpt lat="45.35964" lon="5.84235">
        <ele>1420</ele>
        <time>2022-04-03T14:56:13Z</time>
      </trkpt>
      <trkpt lat="45.35967" lon="5.84232">
        <ele>1418.4</ele>
        <time>2022-04-03T14:56:14Z</time>
      </trkpt>
      <trkpt lat="45.35971" lon="5.84231">
        <ele>1416.2</ele>
        <time>2022-04-03T14:56:15Z</time>
      </trkpt>
      <trkpt lat="45.35975" lon="5.8423">
        <ele>1413</ele>
        <time>2022-04-03T14:56:16Z</time>
      </trkpt>
      <trkpt lat="45.35975" lon="5.84226">
        <ele>1411</ele>
        <time>2022-04-03T14:56:17Z</time>
      </trkpt>
      <trkpt lat="45.35975" lon="5.8422">
        <ele>1409.4</ele>
        <time>2022-04-03T14:56:18Z</time>
      </trkpt>
      <trkpt lat="45.35977" lon="5.84215">
        <ele>1407.8</ele>
        <time>2022-04-03T14:56:19Z</time>
      </trkpt>
      <trkpt lat="45.35983" lon="5.84211">
        <ele>1406.4</ele>
        <time>2022-04-03T14:56:20Z</time>
      </trkpt>
      <trkpt lat="45.35988" lon="5.8421">
        <ele>1405.2</ele>
        <time>2022-04-03T14:56:21Z</time>
      </trkpt>
      <trkpt lat="45.35992" lon="5.84209">
        <ele>1403</ele>
        <time>2022-04-03T14:56:22Z</time>
      </trkpt>
      <trkpt lat="45.35997" lon="5.84209">
        <ele>1400.6</ele>
        <time>2022-04-03T14:56:23Z</time>
      </trkpt>
      <trkpt lat="45.36001" lon="5.8421">
        <ele>1398.2</ele>
        <time>2022-04-03T14:56:24Z</time>
      </trkpt>
      <trkpt lat="45.36005" lon="5.84211">
        <ele>1396.6</ele>
        <time>2022-04-03T14:56:25Z</time>
      </trkpt>
      <trkpt lat="45.36009" lon="5.84213">
        <ele>1395</ele>
        <time>2022-04-03T14:56:26Z</time>
      </trkpt>
      <trkpt lat="45.36013" lon="5.84214">
        <ele>1393.4</ele>
        <time>2022-04-03T14:56:27Z</time>
      </trkpt>
      <trkpt lat="45.36016" lon="5.84215">
        <ele>1392.2</ele>
        <time>2022-04-03T14:56:28Z</time>
      </trkpt>
      <trkpt lat="45.3602" lon="5.84217">
        <ele>1391.2</ele>
        <time>2022-04-03T14:56:29Z</time>
      </trkpt>
      <trkpt lat="45.36023" lon="5.84218">
        <ele>1390.2</ele>
        <time>2022-04-03T14:56:30Z</time>
      </trkpt>
      <trkpt lat="45.36031" lon="5.84217">
        <ele>1388.6</ele>
        <time>2022-04-03T14:56:32Z</time>
      </trkpt>
      <trkpt lat="45.36031" lon="5.84214">
        <ele>1387.2</ele>
        <time>2022-04-03T14:56:33Z</time>
      </trkpt>
      <trkpt lat="45.3603" lon="5.84205">
        <ele>1385.4</ele>
        <time>2022-04-03T14:56:35Z</time>
      </trkpt>
      <trkpt lat="45.36028" lon="5.842">
        <ele>1384</ele>
        <time>2022-04-03T14:56:36Z</time>
      </trkpt>
      <trkpt lat="45.36027" lon="5.84196">
        <ele>1382.8</ele>
        <time>2022-04-03T14:56:37Z</time>
      </trkpt>
      <trkpt lat="45.36023" lon="5.8419">
        <ele>1381.2</ele>
        <time>2022-04-03T14:56:39Z</time>
      </trkpt>
      <trkpt lat="45.3602" lon="5.84183">
        <ele>1379.8</ele>
        <time>2022-04-03T14:56:41Z</time>
      </trkpt>
      <trkpt lat="45.3602" lon="5.84179">
        <ele>1379</ele>
        <time>2022-04-03T14:56:42Z</time>
      </trkpt>
      <trkpt lat="45.36024" lon="5.84175">
        <ele>1378.4</ele>
        <time>2022-04-03T14:56:43Z</time>
      </trkpt>
      <trkpt lat="45.36028" lon="5.84169">
        <ele>1376.4</ele>
        <time>2022-04-03T14:56:44Z</time>
      </trkpt>
      <trkpt lat="45.36034" lon="5.84168">
        <ele>1373.4</ele>
        <time>2022-04-03T14:56:45Z</time>
      </trkpt>
      <trkpt lat="45.3604" lon="5.84167">
        <ele>1370</ele>
        <time>2022-04-03T14:56:46Z</time>
      </trkpt>
      <trkpt lat="45.36047" lon="5.84166">
        <ele>1368.2</ele>
        <time>2022-04-03T14:56:47Z</time>
      </trkpt>
      <trkpt lat="45.36052" lon="5.84163">
        <ele>1367</ele>
        <time>2022-04-03T14:56:48Z</time>
      </trkpt>
      <trkpt lat="45.36056" lon="5.84157">
        <ele>1365.8</ele>
        <time>2022-04-03T14:56:49Z</time>
      </trkpt>
      <trkpt lat="45.3606" lon="5.8415">
        <ele>1364.4</ele>
        <time>2022-04-03T14:56:50Z</time>
      </trkpt>
      <trkpt lat="45.36065" lon="5.84146">
        <ele>1361.8</ele>
        <time>2022-04-03T14:56:51Z</time>
      </trkpt>
      <trkpt lat="45.36071" lon="5.84142">
        <ele>1360</ele>
        <time>2022-04-03T14:56:52Z</time>
      </trkpt>
      <trkpt lat="45.36075" lon="5.84136">
        <ele>1357.8</ele>
        <time>2022-04-03T14:56:53Z</time>
      </trkpt>
      <trkpt lat="45.36077" lon="5.84128">
        <ele>1356.4</ele>
        <time>2022-04-03T14:56:54Z</time>
      </trkpt>
      <trkpt lat="45.36079" lon="5.8412">
        <ele>1354.6</ele>
        <time>2022-04-03T14:56:55Z</time>
      </trkpt>
      <trkpt lat="45.36084" lon="5.84111">
        <ele>1352.2</ele>
        <time>2022-04-03T14:56:56Z</time>
      </trkpt>
      <trkpt lat="45.36089" lon="5.84102">
        <ele>1350.8</ele>
        <time>2022-04-03T14:56:57Z</time>
      </trkpt>
      <trkpt lat="45.36094" lon="5.84092">
        <ele>1347.2</ele>
        <time>2022-04-03T14:56:58Z</time>
      </trkpt>
      <trkpt lat="45.36099" lon="5.84083">
        <ele>1344.2</ele>
        <time>2022-04-03T14:56:59Z</time>
      </trkpt>
      <trkpt lat="45.36104" lon="5.84074">
        <ele>1341</ele>
        <time>2022-04-03T14:57:00Z</time>
      </trkpt>
      <trkpt lat="45.36108" lon="5.84066">
        <ele>1338.8</ele>
        <time>2022-04-03T14:57:01Z</time>
      </trkpt>
      <trkpt lat="45.3611" lon="5.84059">
        <ele>1337.4</ele>
        <time>2022-04-03T14:57:02Z</time>
      </trkpt>
      <trkpt lat="45.36112" lon="5.84053">
        <ele>1335.8</ele>
        <time>2022-04-03T14:57:03Z</time>
      </trkpt>
      <trkpt lat="45.36114" lon="5.84048">
        <ele>1334.6</ele>
        <time>2022-04-03T14:57:04Z</time>
      </trkpt>
      <trkpt lat="45.36115" lon="5.84042">
        <ele>1333</ele>
        <time>2022-04-03T14:57:05Z</time>
      </trkpt>
      <trkpt lat="45.36114" lon="5.84032">
        <ele>1331.6</ele>
        <time>2022-04-03T14:57:07Z</time>
      </trkpt>
      <trkpt lat="45.36114" lon="5.84021">
        <ele>1329.8</ele>
        <time>2022-04-03T14:57:09Z</time>
      </trkpt>
      <trkpt lat="45.36116" lon="5.84009">
        <ele>1327.6</ele>
        <time>2022-04-03T14:57:11Z</time>
      </trkpt>
      <trkpt lat="45.36117" lon="5.84004">
        <ele>1326.4</ele>
        <time>2022-04-03T14:57:12Z</time>
      </trkpt>
      <trkpt lat="45.36123" lon="5.83995">
        <ele>1324.2</ele>
        <time>2022-04-03T14:57:14Z</time>
      </trkpt>
      <trkpt lat="45.36126" lon="5.83991">
        <ele>1323</ele>
        <time>2022-04-03T14:57:15Z</time>
      </trkpt>
      <trkpt lat="45.3613" lon="5.83988">
        <ele>1320</ele>
        <time>2022-04-03T14:57:16Z</time>
      </trkpt>
      <trkpt lat="45.36135" lon="5.83986">
        <ele>1318.4</ele>
        <time>2022-04-03T14:57:17Z</time>
      </trkpt>
      <trkpt lat="45.3614" lon="5.83984">
        <ele>1316.4</ele>
        <time>2022-04-03T14:57:18Z</time>
      </trkpt>
      <trkpt lat="45.36146" lon="5.83978">
        <ele>1314.4</ele>
        <time>2022-04-03T14:57:19Z</time>
      </trkpt>
      <trkpt lat="45.36149" lon="5.8397">
        <ele>1313.2</ele>
        <time>2022-04-03T14:57:20Z</time>
      </trkpt>
      <trkpt lat="45.36152" lon="5.83961">
        <ele>1312.4</ele>
        <time>2022-04-03T14:57:21Z</time>
      </trkpt>
      <trkpt lat="45.36157" lon="5.83956">
        <ele>1311.2</ele>
        <time>2022-04-03T14:57:22Z</time>
      </trkpt>
      <trkpt lat="45.36162" lon="5.83951">
        <ele>1309.2</ele>
        <time>2022-04-03T14:57:23Z</time>
      </trkpt>
      <trkpt lat="45.36167" lon="5.83946">
        <ele>1306.4</ele>
        <time>2022-04-03T14:57:24Z</time>
      </trkpt>
      <trkpt lat="45.36171" lon="5.8394">
        <ele>1305</ele>
        <time>2022-04-03T14:57:25Z</time>
      </trkpt>
      <trkpt lat="45.36176" lon="5.83933">
        <ele>1303.6</ele>
        <time>2022-04-03T14:57:26Z</time>
      </trkpt>
      <trkpt lat="45.36181" lon="5.83926">
        <ele>1302</ele>
        <time>2022-04-03T14:57:27Z</time>
      </trkpt>
      <trkpt lat="45.36187" lon="5.8392">
        <ele>1300</ele>
        <time>2022-04-03T14:57:28Z</time>
      </trkpt>
      <trkpt lat="45.36193" lon="5.83915">
        <ele>1298.2</ele>
        <time>2022-04-03T14:57:29Z</time>
      </trkpt>
      <trkpt lat="45.362" lon="5.83911">
        <ele>1295.8</ele>
        <time>2022-04-03T14:57:30Z</time>
      </trkpt>
      <trkpt lat="45.36206" lon="5.83909">
        <ele>1293.2</ele>
        <time>2022-04-03T14:57:31Z</time>
      </trkpt>
      <trkpt lat="45.36212" lon="5.83906">
        <ele>1289.4</ele>
        <time>2022-04-03T14:57:32Z</time>
      </trkpt>
      <trkpt lat="45.36217" lon="5.839">
        <ele>1287</ele>
        <time>2022-04-03T14:57:33Z</time>
      </trkpt>
      <trkpt lat="45.36222" lon="5.83892">
        <ele>1284.2</ele>
        <time>2022-04-03T14:57:34Z</time>
      </trkpt>
      <trkpt lat="45.36225" lon="5.83882">
        <ele>1282.6</ele>
        <time>2022-04-03T14:57:35Z</time>
      </trkpt>
      <trkpt lat="45.36227" lon="5.83873">
        <ele>1281.2</ele>
        <time>2022-04-03T14:57:36Z</time>
      </trkpt>
      <trkpt lat="45.36229" lon="5.83865">
        <ele>1279.8</ele>
        <time>2022-04-03T14:57:37Z</time>
      </trkpt>
      <trkpt lat="45.36232" lon="5.83853">
        <ele>1278.2</ele>
        <time>2022-04-03T14:57:39Z</time>
      </trkpt>
      <trkpt lat="45.36233" lon="5.83849">
        <ele>1277</ele>
        <time>2022-04-03T14:57:40Z</time>
      </trkpt>
      <trkpt lat="45.36233" lon="5.83843">
        <ele>1275.4</ele>
        <time>2022-04-03T14:57:42Z</time>
      </trkpt>
      <trkpt lat="45.36233" lon="5.83843">
        <ele>1275</ele>
        <time>2022-04-03T14:57:43Z</time>
      </trkpt>
      <trkpt lat="45.36234" lon="5.83844">
        <ele>1274.6</ele>
        <time>2022-04-03T14:57:44Z</time>
      </trkpt>
      <trkpt lat="45.36238" lon="5.8385">
        <ele>1273.8</ele>
        <time>2022-04-03T14:57:47Z</time>
      </trkpt>
      <trkpt lat="45.36245" lon="5.83846">
        <ele>1273</ele>
        <time>2022-04-03T14:57:49Z</time>
      </trkpt>
      <trkpt lat="45.36248" lon="5.83842">
        <ele>1272</ele>
        <time>2022-04-03T14:57:50Z</time>
      </trkpt>
      <trkpt lat="45.36252" lon="5.83837">
        <ele>1270.8</ele>
        <time>2022-04-03T14:57:51Z</time>
      </trkpt>
      <trkpt lat="45.36256" lon="5.83832">
        <ele>1269.6</ele>
        <time>2022-04-03T14:57:52Z</time>
      </trkpt>
      <trkpt lat="45.36266" lon="5.8382">
        <ele>1267</ele>
        <time>2022-04-03T14:57:54Z</time>
      </trkpt>
      <trkpt lat="45.36271" lon="5.83814">
        <ele>1265.8</ele>
        <time>2022-04-03T14:57:55Z</time>
      </trkpt>
      <trkpt lat="45.36281" lon="5.83798">
        <ele>1264.6</ele>
        <time>2022-04-03T14:57:57Z</time>
      </trkpt>
      <trkpt lat="45.36287" lon="5.83789">
        <ele>1262</ele>
        <time>2022-04-03T14:57:58Z</time>
      </trkpt>
      <trkpt lat="45.36293" lon="5.83781">
        <ele>1260.2</ele>
        <time>2022-04-03T14:57:59Z</time>
      </trkpt>
      <trkpt lat="45.36298" lon="5.83773">
        <ele>1258.6</ele>
        <time>2022-04-03T14:58:00Z</time>
      </trkpt>
      <trkpt lat="45.36302" lon="5.83766">
        <ele>1257.4</ele>
        <time>2022-04-03T14:58:01Z</time>
      </trkpt>
      <trkpt lat="45.36305" lon="5.83761">
        <ele>1256.6</ele>
        <time>2022-04-03T14:58:02Z</time>
      </trkpt>
      <trkpt lat="45.36308" lon="5.83756">
        <ele>1256</ele>
        <time>2022-04-03T14:58:03Z</time>
      </trkpt>
      <trkpt lat="45.36314" lon="5.83749">
        <ele>1255</ele>
        <time>2022-04-03T14:58:05Z</time>
      </trkpt>
      <trkpt lat="45.36318" lon="5.8375">
        <ele>1254.6</ele>
        <time>2022-04-03T14:58:06Z</time>
      </trkpt>
      <trkpt lat="45.36323" lon="5.8375">
        <ele>1253.6</ele>
        <time>2022-04-03T14:58:07Z</time>
      </trkpt>
      <trkpt lat="45.36329" lon="5.83748">
        <ele>1252.2</ele>
        <time>2022-04-03T14:58:08Z</time>
      </trkpt>
      <trkpt lat="45.36334" lon="5.83747">
        <ele>1247.6</ele>
        <time>2022-04-03T14:58:09Z</time>
      </trkpt>
      <trkpt lat="45.3634" lon="5.83747">
        <ele>1247.6</ele>
        <time>2022-04-03T14:58:10Z</time>
      </trkpt>
      <trkpt lat="45.36351" lon="5.83747">
        <ele>1246.2</ele>
        <time>2022-04-03T14:58:11Z</time>
      </trkpt>
      <trkpt lat="45.36357" lon="5.83752">
        <ele>1243</ele>
        <time>2022-04-03T14:58:12Z</time>
      </trkpt>
      <trkpt lat="45.36363" lon="5.83756">
        <ele>1238.6</ele>
        <time>2022-04-03T14:58:13Z</time>
      </trkpt>
      <trkpt lat="45.36368" lon="5.83762">
        <ele>1236</ele>
        <time>2022-04-03T14:58:14Z</time>
      </trkpt>
      <trkpt lat="45.36374" lon="5.83769">
        <ele>1233.4</ele>
        <time>2022-04-03T14:58:15Z</time>
      </trkpt>
      <trkpt lat="45.36381" lon="5.83776">
        <ele>1230</ele>
        <time>2022-04-03T14:58:16Z</time>
      </trkpt>
      <trkpt lat="45.36387" lon="5.83783">
        <ele>1227.4</ele>
        <time>2022-04-03T14:58:17Z</time>
      </trkpt>
      <trkpt lat="45.36395" lon="5.83789">
        <ele>1222.8</ele>
        <time>2022-04-03T14:58:18Z</time>
      </trkpt>
      <trkpt lat="45.36403" lon="5.83792">
        <ele>1219.8</ele>
        <time>2022-04-03T14:58:19Z</time>
      </trkpt>
      <trkpt lat="45.36412" lon="5.83793">
        <ele>1217.2</ele>
        <time>2022-04-03T14:58:20Z</time>
      </trkpt>
      <trkpt lat="45.36419" lon="5.83794">
        <ele>1214</ele>
        <time>2022-04-03T14:58:21Z</time>
      </trkpt>
      <trkpt lat="45.36426" lon="5.83796">
        <ele>1211.8</ele>
        <time>2022-04-03T14:58:22Z</time>
      </trkpt>
      <trkpt lat="45.36431" lon="5.83799">
        <ele>1208.2</ele>
        <time>2022-04-03T14:58:23Z</time>
      </trkpt>
      <trkpt lat="45.36437" lon="5.83803">
        <ele>1206</ele>
        <time>2022-04-03T14:58:24Z</time>
      </trkpt>
      <trkpt lat="45.36442" lon="5.83806">
        <ele>1203.4</ele>
        <time>2022-04-03T14:58:25Z</time>
      </trkpt>
      <trkpt lat="45.36449" lon="5.8381">
        <ele>1201</ele>
        <time>2022-04-03T14:58:26Z</time>
      </trkpt>
      <trkpt lat="45.36455" lon="5.83813">
        <ele>1198.8</ele>
        <time>2022-04-03T14:58:27Z</time>
      </trkpt>
      <trkpt lat="45.36461" lon="5.83817">
        <ele>1197.2</ele>
        <time>2022-04-03T14:58:28Z</time>
      </trkpt>
      <trkpt lat="45.36468" lon="5.83821">
        <ele>1196</ele>
        <time>2022-04-03T14:58:29Z</time>
      </trkpt>
      <trkpt lat="45.36474" lon="5.83824">
        <ele>1193.2</ele>
        <time>2022-04-03T14:58:30Z</time>
      </trkpt>
      <trkpt lat="45.3648" lon="5.83829">
        <ele>1191.6</ele>
        <time>2022-04-03T14:58:31Z</time>
      </trkpt>
      <trkpt lat="45.36488" lon="5.83833">
        <ele>1189.6</ele>
        <time>2022-04-03T14:58:32Z</time>
      </trkpt>
      <trkpt lat="45.36495" lon="5.83838">
        <ele>1187.8</ele>
        <time>2022-04-03T14:58:33Z</time>
      </trkpt>
      <trkpt lat="45.36502" lon="5.83843">
        <ele>1185.6</ele>
        <time>2022-04-03T14:58:34Z</time>
      </trkpt>
      <trkpt lat="45.36509" lon="5.83847">
        <ele>1183.6</ele>
        <time>2022-04-03T14:58:35Z</time>
      </trkpt>
      <trkpt lat="45.36516" lon="5.83852">
        <ele>1181.2</ele>
        <time>2022-04-03T14:58:36Z</time>
      </trkpt>
      <trkpt lat="45.36522" lon="5.83855">
        <ele>1178.6</ele>
        <time>2022-04-03T14:58:37Z</time>
      </trkpt>
      <trkpt lat="45.36528" lon="5.83859">
        <ele>1176.6</ele>
        <time>2022-04-03T14:58:38Z</time>
      </trkpt>
      <trkpt lat="45.36535" lon="5.83863">
        <ele>1174.8</ele>
        <time>2022-04-03T14:58:39Z</time>
      </trkpt>
      <trkpt lat="45.36541" lon="5.83866">
        <ele>1172.4</ele>
        <time>2022-04-03T14:58:40Z</time>
      </trkpt>
      <trkpt lat="45.36547" lon="5.83869">
        <ele>1171</ele>
        <time>2022-04-03T14:58:41Z</time>
      </trkpt>
      <trkpt lat="45.36552" lon="5.83872">
        <ele>1170</ele>
        <time>2022-04-03T14:58:42Z</time>
      </trkpt>
      <trkpt lat="45.36558" lon="5.83874">
        <ele>1168.4</ele>
        <time>2022-04-03T14:58:43Z</time>
      </trkpt>
      <trkpt lat="45.36568" lon="5.83878">
        <ele>1166.6</ele>
        <time>2022-04-03T14:58:45Z</time>
      </trkpt>
      <trkpt lat="45.36578" lon="5.8388">
        <ele>1165.2</ele>
        <time>2022-04-03T14:58:47Z</time>
      </trkpt>
      <trkpt lat="45.36585" lon="5.83882">
        <ele>1164.2</ele>
        <time>2022-04-03T14:58:49Z</time>
      </trkpt>
      <trkpt lat="45.36595" lon="5.83884">
        <ele>1163.6</ele>
        <time>2022-04-03T14:58:52Z</time>
      </trkpt>
      <trkpt lat="45.36601" lon="5.83885">
        <ele>1162.8</ele>
        <time>2022-04-03T14:58:54Z</time>
      </trkpt>
      <trkpt lat="45.36611" lon="5.83884">
        <ele>1161.8</ele>
        <time>2022-04-03T14:58:57Z</time>
      </trkpt>
      <trkpt lat="45.36617" lon="5.83883">
        <ele>1161.2</ele>
        <time>2022-04-03T14:58:59Z</time>
      </trkpt>
      <trkpt lat="45.36621" lon="5.83882">
        <ele>1160.8</ele>
        <time>2022-04-03T14:59:00Z</time>
      </trkpt>
      <trkpt lat="45.36633" lon="5.83872">
        <ele>1159.8</ele>
        <time>2022-04-03T14:59:04Z</time>
      </trkpt>
      <trkpt lat="45.36636" lon="5.83869">
        <ele>1159.4</ele>
        <time>2022-04-03T14:59:05Z</time>
      </trkpt>
      <trkpt lat="45.36642" lon="5.83862">
        <ele>1158.4</ele>
        <time>2022-04-03T14:59:07Z</time>
      </trkpt>
      <trkpt lat="45.36653" lon="5.83847">
        <ele>1157.2</ele>
        <time>2022-04-03T14:59:11Z</time>
      </trkpt>
      <trkpt lat="45.36655" lon="5.83844">
        <ele>1157</ele>
        <time>2022-04-03T14:59:12Z</time>
      </trkpt>
      <trkpt lat="45.36659" lon="5.83838">
        <ele>1156</ele>
        <time>2022-04-03T14:59:14Z</time>
      </trkpt>
      <trkpt lat="45.36664" lon="5.83837">
        <ele>1154.8</ele>
        <time>2022-04-03T14:59:16Z</time>
      </trkpt>
      <trkpt lat="45.36667" lon="5.83836">
        <ele>1153.6</ele>
        <time>2022-04-03T14:59:17Z</time>
      </trkpt>
      <trkpt lat="45.36674" lon="5.83831">
        <ele>1150.8</ele>
        <time>2022-04-03T14:59:19Z</time>
      </trkpt>
      <trkpt lat="45.36678" lon="5.83828">
        <ele>1148.4</ele>
        <time>2022-04-03T14:59:20Z</time>
      </trkpt>
      <trkpt lat="45.36683" lon="5.83827">
        <ele>1146.6</ele>
        <time>2022-04-03T14:59:21Z</time>
      </trkpt>
      <trkpt lat="45.36691" lon="5.83826">
        <ele>1144.2</ele>
        <time>2022-04-03T14:59:22Z</time>
      </trkpt>
      <trkpt lat="45.36698" lon="5.83825">
        <ele>1142.4</ele>
        <time>2022-04-03T14:59:23Z</time>
      </trkpt>
      <trkpt lat="45.36705" lon="5.83823">
        <ele>1139.2</ele>
        <time>2022-04-03T14:59:24Z</time>
      </trkpt>
      <trkpt lat="45.36712" lon="5.8382">
        <ele>1136.4</ele>
        <time>2022-04-03T14:59:25Z</time>
      </trkpt>
      <trkpt lat="45.3672" lon="5.83817">
        <ele>1134.8</ele>
        <time>2022-04-03T14:59:26Z</time>
      </trkpt>
      <trkpt lat="45.36726" lon="5.83813">
        <ele>1132</ele>
        <time>2022-04-03T14:59:27Z</time>
      </trkpt>
      <trkpt lat="45.36732" lon="5.8381">
        <ele>1129.6</ele>
        <time>2022-04-03T14:59:28Z</time>
      </trkpt>
      <trkpt lat="45.36739" lon="5.83806">
        <ele>1126.8</ele>
        <time>2022-04-03T14:59:29Z</time>
      </trkpt>
      <trkpt lat="45.3675" lon="5.83798">
        <ele>1122.2</ele>
        <time>2022-04-03T14:59:30Z</time>
      </trkpt>
      <trkpt lat="45.36756" lon="5.83793">
        <ele>1120.4</ele>
        <time>2022-04-03T14:59:32Z</time>
      </trkpt>
      <trkpt lat="45.36763" lon="5.83791">
        <ele>1118.8</ele>
        <time>2022-04-03T14:59:33Z</time>
      </trkpt>
      <trkpt lat="45.3677" lon="5.83791">
        <ele>1116.2</ele>
        <time>2022-04-03T14:59:34Z</time>
      </trkpt>
      <trkpt lat="45.36777" lon="5.83793">
        <ele>1113.6</ele>
        <time>2022-04-03T14:59:35Z</time>
      </trkpt>
      <trkpt lat="45.36785" lon="5.83794">
        <ele>1111.2</ele>
        <time>2022-04-03T14:59:36Z</time>
      </trkpt>
      <trkpt lat="45.36793" lon="5.83796">
        <ele>1110</ele>
        <time>2022-04-03T14:59:37Z</time>
      </trkpt>
      <trkpt lat="45.36801" lon="5.83798">
        <ele>1107.4</ele>
        <time>2022-04-03T14:59:38Z</time>
      </trkpt>
      <trkpt lat="45.36808" lon="5.83799">
        <ele>1104.6</ele>
        <time>2022-04-03T14:59:39Z</time>
      </trkpt>
      <trkpt lat="45.36815" lon="5.838">
        <ele>1102.6</ele>
        <time>2022-04-03T14:59:40Z</time>
      </trkpt>
      <trkpt lat="45.36821" lon="5.83802">
        <ele>1100.8</ele>
        <time>2022-04-03T14:59:41Z</time>
      </trkpt>
      <trkpt lat="45.36826" lon="5.83804">
        <ele>1100</ele>
        <time>2022-04-03T14:59:42Z</time>
      </trkpt>
      <trkpt lat="45.36832" lon="5.83806">
        <ele>1099</ele>
        <time>2022-04-03T14:59:43Z</time>
      </trkpt>
      <trkpt lat="45.36844" lon="5.83812">
        <ele>1096.8</ele>
        <time>2022-04-03T14:59:45Z</time>
      </trkpt>
      <trkpt lat="45.36849" lon="5.83816">
        <ele>1095.6</ele>
        <time>2022-04-03T14:59:46Z</time>
      </trkpt>
      <trkpt lat="45.36854" lon="5.83821">
        <ele>1094.6</ele>
        <time>2022-04-03T14:59:47Z</time>
      </trkpt>
      <trkpt lat="45.3686" lon="5.83824">
        <ele>1093.4</ele>
        <time>2022-04-03T14:59:48Z</time>
      </trkpt>
      <trkpt lat="45.36871" lon="5.8383">
        <ele>1091.6</ele>
        <time>2022-04-03T14:59:50Z</time>
      </trkpt>
      <trkpt lat="45.36876" lon="5.83833">
        <ele>1090.2</ele>
        <time>2022-04-03T14:59:51Z</time>
      </trkpt>
      <trkpt lat="45.36879" lon="5.83835">
        <ele>1089</ele>
        <time>2022-04-03T14:59:52Z</time>
      </trkpt>
      <trkpt lat="45.36881" lon="5.83837">
        <ele>1088.4</ele>
        <time>2022-04-03T14:59:53Z</time>
      </trkpt>
      <trkpt lat="45.36883" lon="5.83837">
        <ele>1087.8</ele>
        <time>2022-04-03T14:59:54Z</time>
      </trkpt>
      <trkpt lat="45.36885" lon="5.83836">
        <ele>1087.6</ele>
        <time>2022-04-03T14:59:55Z</time>
      </trkpt>
      <trkpt lat="45.36886" lon="5.83832">
        <ele>1087.4</ele>
        <time>2022-04-03T14:59:56Z</time>
      </trkpt>
      <trkpt lat="45.36888" lon="5.83822">
        <ele>1086.8</ele>
        <time>2022-04-03T14:59:58Z</time>
      </trkpt>
      <trkpt lat="45.36889" lon="5.83816">
        <ele>1085.8</ele>
        <time>2022-04-03T14:59:59Z</time>
      </trkpt>
      <trkpt lat="45.36892" lon="5.83812">
        <ele>1085</ele>
        <time>2022-04-03T15:00:00Z</time>
      </trkpt>
      <trkpt lat="45.36894" lon="5.83811">
        <ele>1084</ele>
        <time>2022-04-03T15:00:01Z</time>
      </trkpt>
      <trkpt lat="45.36894" lon="5.83811">
        <ele>1082.6</ele>
        <time>2022-04-03T15:00:02Z</time>
      </trkpt>
      <trkpt lat="45.36895" lon="5.83811">
        <ele>1082</ele>
        <time>2022-04-03T15:00:03Z</time>
      </trkpt>
      <trkpt lat="45.36896" lon="5.83811">
        <ele>1081.6</ele>
        <time>2022-04-03T15:00:04Z</time>
      </trkpt>
      <trkpt lat="45.36896" lon="5.8381">
        <ele>1080.8</ele>
        <time>2022-04-03T15:00:09Z</time>
      </trkpt>
      <trkpt lat="45.36894" lon="5.83808">
        <ele>1080.8</ele>
        <time>2022-04-03T15:00:17Z</time>
      </trkpt>
      <trkpt lat="45.36893" lon="5.83808">
        <ele>1081.2</ele>
        <time>2022-04-03T15:00:23Z</time>
      </trkpt>
    </trkseg>
  </trk>
</gpx>